GFSMA_prec_precacc_021.txt.gz
Total_Precipitation_Accumulation
0.04 0.00 0.00 0.00 0.00 0.00 0.00 0.00 0.00 0.00 0.00 0.00 0.00 0.00 0.00 0.00 0.00 0.00 0.00 0.00 0.00 0.00 0.00 0.00 0.00 0.00 0.00 0.00 0.00 0.00 0.00 0.00 0.00 0.00 0.00 0.00 0.00 0.00 0.01 0.01 0.02 0.08 0.17
0.10 0.04 0.01 0.00 0.00 0.00 0.00 0.00 0.00 0.00 0.00 0.00 0.00 0.00 0.00 0.00 0.00 0.00 0.00 0.00 0.00 0.00 0.00 0.00 0.00 0.00 0.00 0.00 0.00 0.00 0.00 0.00 0.01 0.00 0.00 0.00 0.00 0.00 0.00 0.01 0.00 0.02 0.12
0.10 0.01 0.00 0.00 0.00 0.00 0.00 0.00 0.00 0.00 0.00 0.00 0.00 0.00 0.00 0.00 0.00 0.00 0.00 0.00 0.00 0.00 0.00 0.00 0.00 0.00 0.00 0.00 0.00 0.00 0.00 0.00 0.00 0.01 0.01 0.00 0.01 0.00 0.00 0.00 0.01 0.00 0.01
0.01 0.00 0.00 0.00 0.00 0.00 0.00 0.00 0.00 0.00 0.00 0.00 0.00 0.00 0.00 0.00 0.00 0.00 0.00 0.00 0.00 0.00 0.00 0.00 0.00 0.00 0.00 0.00 0.00 0.00 0.00 0.00 0.00 0.00 0.01 0.01 0.01 0.01 0.00 0.00 0.00 0.01 0.00
0.00 0.00 0.00 0.00 0.00 0.00 0.00 0.00 0.00 0.00 0.00 0.00 0.00 0.00 0.00 0.00 0.00 0.00 0.00 0.00 0.00 0.00 0.00 0.00 0.00 0.00 0.00 0.00 0.00 0.00 0.00 0.00 0.00 0.00 0.00 0.00 0.01 0.02 0.01 0.01 0.00 0.01 0.01
0.00 0.00 0.00 0.00 0.00 0.00 0.00 0.00 0.00 0.00 0.00 0.00 0.00 0.00 0.00 0.00 0.00 0.00 0.00 0.00 0.00 0.00 0.00 0.00 0.00 0.00 0.00 0.00 0.00 0.00 0.00 0.00 0.00 0.00 0.00 0.00 0.00 0.01 0.01 0.02 0.01 0.01 0.01
0.00 0.00 0.00 0.00 0.00 0.00 0.00 0.00 0.00 0.00 0.00 0.00 0.00 0.00 0.00 0.00 0.00 0.00 0.00 0.00 0.00 0.00 0.00 0.00 0.00 0.00 0.00 0.00 0.00 0.00 0.00 0.00 0.00 0.00 0.00 0.00 0.01 0.00 0.01 0.01 0.01 0.01 0.01
0.00 0.00 0.00 0.00 0.00 0.00 0.00 0.00 0.00 0.00 0.00 0.00 0.00 0.00 0.00 0.00 0.00 0.00 0.00 0.00 0.00 0.00 0.00 0.00 0.00 0.00 0.00 0.00 0.00 0.00 0.00 0.00 0.00 0.00 0.00 0.00 0.00 0.00 0.01 0.02 0.01 0.01 0.01
0.00 0.00 0.00 0.00 0.00 0.00 0.00 0.00 0.00 0.00 0.00 0.00 0.00 0.00 0.00 0.00 0.00 0.00 0.00 0.00 0.00 0.00 0.00 0.00 0.00 0.00 0.00 0.00 0.00 0.00 0.00 0.00 0.00 0.00 0.00 0.00 0.00 0.00 0.01 0.02 0.02 0.02 0.02
0.00 0.00 0.00 0.00 0.00 0.00 0.00 0.00 0.00 0.00 0.00 0.00 0.00 0.00 0.00 0.00 0.00 0.00 0.00 0.00 0.00 0.00 0.00 0.00 0.00 0.00 0.00 0.00 0.00 0.00 0.00 0.00 0.00 0.00 0.00 0.00 0.00 0.00 0.02 0.02 0.03 0.03 0.03
0.00 0.00 0.00 0.00 0.00 0.00 0.00 0.00 0.00 0.00 0.00 0.00 0.00 0.00 0.00 0.00 0.00 0.00 0.00 0.00 0.00 0.00 0.00 0.00 0.00 0.00 0.00 0.00 0.00 0.00 0.00 0.00 0.00 0.00 0.00 0.00 0.00 0.00 0.01 0.03 0.04 0.04 0.04
0.00 0.00 0.00 0.00 0.00 0.00 0.00 0.00 0.00 0.00 0.00 0.00 0.00 0.00 0.00 0.00 0.00 0.00 0.00 0.00 0.00 0.00 0.00 0.00 0.00 0.00 0.00 0.00 0.00 0.00 0.00 0.00 0.00 0.00 0.00 0.01 0.01 0.01 0.01 0.01 0.03 0.05 0.05
0.00 0.00 0.00 0.00 0.00 0.00 0.00 0.00 0.00 0.00 0.00 0.00 0.00 0.00 0.00 0.00 0.00 0.00 0.00 0.00 0.00 0.00 0.00 0.00 0.00 0.00 0.00 0.00 0.00 0.00 0.00 0.00 0.00 0.00 0.01 0.02 0.02 0.02 0.03 0.03 0.05 0.09 0.10
0.00 0.00 0.00 0.00 0.00 0.00 0.00 0.00 0.01 0.01 0.01 0.01 0.00 0.00 0.00 0.00 0.00 0.00 0.00 0.00 0.00 0.00 0.00 0.00 0.00 0.00 0.00 0.00 0.00 0.00 0.00 0.00 0.00 0.01 0.01 0.01 0.02 0.04 0.05 0.04 0.03 0.04 0.06
0.00 0.00 0.00 0.00 0.00 0.00 0.02 0.03 0.01 0.00 0.01 0.00 0.00 0.00 0.00 0.00 0.00 0.00 0.00 0.00 0.00 0.00 0.00 0.00 0.00 0.00 0.00 0.00 0.00 0.00 0.01 0.01 0.02 0.03 0.02 0.01 0.01 0.02 0.05 0.06 0.02 0.01 0.01
0.00 0.00 0.00 0.00 0.00 0.01 0.00 0.00 0.00 0.00 0.00 0.00 0.00 0.00 0.00 0.00 0.00 0.00 0.00 0.00 0.00 0.00 0.00 0.00 0.00 0.00 0.00 0.00 0.00 0.00 0.01 0.01 0.01 0.02 0.01 0.01 0.00 0.00 0.03 0.05 0.05 0.02 0.01
0.00 0.00 0.00 0.00 0.00 0.00 0.00 0.01 0.00 0.00 0.00 0.00 0.00 0.00 0.00 0.00 0.00 0.00 0.00 0.00 0.00 0.00 0.00 0.00 0.00 0.00 0.00 0.00 0.00 0.00 0.00 0.01 0.02 0.01 0.01 0.01 0.01 0.00 0.01 0.02 0.03 0.03 0.01
0.00 0.00 0.00 0.00 0.00 0.00 0.00 0.00 0.00 0.00 0.00 0.00 0.01 0.00 0.00 0.00 0.00 0.00 0.00 0.00 0.00 0.00 0.00 0.00 0.00 0.00 0.00 0.00 0.00 0.01 0.01 0.01 0.03 0.04 0.04 0.03 0.02 0.02 0.01 0.00 0.01 0.01 0.03
0.00 0.00 0.00 0.00 0.00 0.00 0.00 0.00 0.00 0.00 0.00 0.01 0.00 0.00 0.00 0.00 0.00 0.00 0.00 0.00 0.00 0.01 0.01 0.03 0.01 0.00 0.00 0.00 0.00 0.00 0.01 0.02 0.03 0.02 0.04 0.02 0.02 0.01 0.00 0.00 0.01 0.01 0.01
0.00 0.00 0.00 0.00 0.00 0.00 0.00 0.00 0.00 0.00 0.00 0.00 0.00 0.00 0.00 0.00 0.00 0.00 0.01 0.01 0.01 0.01 0.01 0.01 0.01 0.01 0.00 0.00 0.01 0.03 0.05 0.04 0.03 0.03 0.05 0.05 0.03 0.02 0.01 0.01 0.03 0.01 0.02
0.00 0.00 0.00 0.00 0.00 0.00 0.00 0.00 0.00 0.00 0.00 0.00 0.00 0.00 0.00 0.00 0.00 0.00 0.01 0.01 0.01 0.01 0.02 0.02 0.02 0.02 0.01 0.03 0.05 0.05 0.04 0.03 0.04 0.06 0.05 0.06 0.11 0.09 0.02 0.04 0.09 0.15 0.05
0.00 0.00 0.01 0.01 0.01 0.01 0.00 0.00 0.00 0.00 0.00 0.00 0.00 0.00 0.00 0.00 0.00 0.00 0.00 0.00 0.00 0.02 0.04 0.04 0.03 0.03 0.02 0.03 0.08 0.13 0.10 0.06 0.04 0.07 0.07 0.04 0.04 0.05 0.11 0.14 0.14 0.24 0.23
0.01 0.01 0.01 0.01 0.01 0.02 0.00 0.00 0.00 0.00 0.00 0.00 0.00 0.00 0.00 0.00 0.00 0.00 0.00 0.00 0.01 0.01 0.03 0.04 0.06 0.05 0.06 0.06 0.07 0.09 0.10 0.08 0.05 0.05 0.06 0.01 0.01 0.02 0.02 0.05 0.06 0.10 0.20
0.03 0.02 0.00 0.00 0.00 0.00 0.00 0.00 0.00 0.00 0.00 0.00 0.00 0.00 0.00 0.00 0.00 0.00 0.01 0.02 0.01 0.00 0.00 0.01 0.03 0.03 0.03 0.04 0.05 0.06 0.07 0.05 0.01 0.00 0.00 0.01 0.00 0.01 0.00 0.00 0.00 0.00 0.02
0.02 0.00 0.00 0.00 0.00 0.00 0.00 0.00 0.00 0.00 0.00 0.00 0.00 0.00 0.00 0.00 0.00 0.01 0.01 0.01 0.00 0.00 0.01 0.01 0.01 0.01 0.00 0.00 0.02 0.07 0.07 0.09 0.06 0.02 0.01 0.03 0.00 0.01 0.00 0.00 0.00 0.00 0.00
0.00 0.00 0.00 0.00 0.00 0.00 0.00 0.00 0.00 0.00 0.00 0.00 0.00 0.00 0.00 0.00 0.00 0.00 0.01 0.01 0.01 0.02 0.01 0.01 0.01 0.01 0.01 0.01 0.01 0.04 0.06 0.13 0.13 0.10 0.05 0.12 0.04 0.05 0.06 0.00 0.00 0.00 0.00

GFSMA_prec_precacc_027.txt.gz
Total_Precipitation_Accumulation
0.04 0.00 0.00 0.00 0.00 0.00 0.00 0.00 0.00 0.00 0.00 0.00 0.00 0.00 0.00 0.00 0.00 0.00 0.00 0.00 0.00 0.00 0.00 0.01 0.00 0.00 0.00 0.00 0.00 0.00 0.00 0.00 0.00 0.00 0.00 0.00 0.00 0.00 0.01 0.01 0.02 0.08 0.17
0.10 0.04 0.01 0.00 0.00 0.00 0.00 0.00 0.00 0.00 0.00 0.00 0.00 0.00 0.00 0.00 0.00 0.00 0.00 0.00 0.00 0.00 0.00 0.00 0.00 0.00 0.00 0.00 0.00 0.00 0.00 0.00 0.01 0.00 0.00 0.00 0.00 0.00 0.00 0.01 0.00 0.02 0.12
0.10 0.01 0.00 0.00 0.00 0.00 0.00 0.00 0.00 0.00 0.00 0.00 0.00 0.00 0.00 0.00 0.00 0.00 0.00 0.00 0.00 0.00 0.00 0.00 0.00 0.00 0.00 0.00 0.00 0.00 0.00 0.00 0.00 0.01 0.01 0.01 0.01 0.00 0.00 0.00 0.01 0.00 0.01
0.01 0.00 0.00 0.00 0.00 0.00 0.00 0.00 0.00 0.00 0.00 0.00 0.00 0.00 0.00 0.00 0.00 0.00 0.00 0.00 0.00 0.00 0.00 0.00 0.00 0.00 0.00 0.00 0.00 0.00 0.00 0.00 0.00 0.00 0.01 0.01 0.01 0.01 0.00 0.00 0.00 0.01 0.00
0.00 0.00 0.00 0.00 0.00 0.00 0.00 0.00 0.00 0.00 0.00 0.00 0.00 0.00 0.00 0.00 0.00 0.00 0.00 0.00 0.00 0.00 0.00 0.00 0.00 0.00 0.00 0.00 0.00 0.00 0.00 0.00 0.00 0.00 0.00 0.00 0.01 0.02 0.01 0.01 0.00 0.01 0.01
0.00 0.00 0.00 0.00 0.00 0.00 0.00 0.00 0.00 0.00 0.00 0.00 0.00 0.00 0.00 0.00 0.00 0.00 0.00 0.00 0.00 0.00 0.00 0.00 0.00 0.00 0.00 0.00 0.00 0.00 0.00 0.00 0.00 0.00 0.00 0.00 0.00 0.01 0.01 0.02 0.01 0.01 0.01
0.00 0.00 0.00 0.00 0.00 0.00 0.00 0.00 0.00 0.00 0.00 0.00 0.00 0.00 0.00 0.00 0.00 0.00 0.00 0.00 0.00 0.00 0.00 0.00 0.00 0.00 0.00 0.00 0.00 0.00 0.00 0.00 0.00 0.00 0.00 0.00 0.01 0.00 0.01 0.01 0.01 0.01 0.01
0.00 0.00 0.00 0.00 0.00 0.00 0.00 0.00 0.00 0.00 0.00 0.00 0.00 0.00 0.00 0.00 0.00 0.00 0.00 0.00 0.00 0.00 0.00 0.00 0.00 0.00 0.00 0.00 0.00 0.00 0.00 0.00 0.00 0.00 0.00 0.00 0.00 0.00 0.01 0.02 0.01 0.01 0.01
0.00 0.00 0.00 0.00 0.00 0.00 0.00 0.00 0.00 0.00 0.00 0.00 0.00 0.00 0.00 0.00 0.00 0.00 0.00 0.00 0.00 0.00 0.00 0.00 0.00 0.00 0.00 0.00 0.00 0.00 0.00 0.00 0.00 0.00 0.00 0.00 0.00 0.00 0.01 0.02 0.02 0.02 0.02
0.00 0.00 0.00 0.00 0.00 0.00 0.00 0.00 0.00 0.00 0.00 0.00 0.00 0.00 0.00 0.00 0.00 0.00 0.00 0.00 0.00 0.00 0.00 0.00 0.00 0.00 0.00 0.00 0.00 0.00 0.00 0.00 0.00 0.00 0.00 0.00 0.00 0.00 0.02 0.02 0.03 0.03 0.03
0.00 0.00 0.00 0.00 0.00 0.00 0.00 0.00 0.00 0.00 0.00 0.00 0.00 0.00 0.00 0.00 0.00 0.00 0.00 0.00 0.00 0.00 0.00 0.00 0.00 0.00 0.00 0.00 0.00 0.00 0.00 0.00 0.00 0.00 0.00 0.00 0.00 0.00 0.01 0.03 0.04 0.04 0.04
0.00 0.00 0.00 0.00 0.00 0.00 0.00 0.01 0.01 0.00 0.00 0.00 0.00 0.00 0.00 0.00 0.00 0.00 0.00 0.00 0.00 0.00 0.00 0.00 0.00 0.00 0.00 0.00 0.00 0.00 0.00 0.00 0.00 0.00 0.00 0.01 0.01 0.01 0.01 0.01 0.03 0.05 0.05
0.01 0.01 0.00 0.00 0.00 0.01 0.01 0.00 0.00 0.00 0.00 0.00 0.00 0.00 0.00 0.00 0.00 0.00 0.00 0.00 0.00 0.00 0.00 0.00 0.00 0.00 0.00 0.00 0.00 0.00 0.00 0.00 0.00 0.00 0.01 0.02 0.02 0.02 0.03 0.03 0.05 0.09 0.10
0.01 0.01 0.00 0.00 0.00 0.00 0.00 0.00 0.01 0.01 0.01 0.01 0.00 0.00 0.00 0.00 0.00 0.00 0.00 0.00 0.00 0.00 0.00 0.00 0.00 0.00 0.00 0.00 0.00 0.00 0.00 0.00 0.00 0.01 0.01 0.01 0.02 0.04 0.05 0.04 0.03 0.04 0.07
0.01 0.00 0.00 0.00 0.01 0.02 0.02 0.03 0.01 0.00 0.01 0.00 0.00 0.00 0.00 0.00 0.00 0.00 0.00 0.00 0.00 0.00 0.00 0.00 0.00 0.00 0.00 0.00 0.00 0.00 0.01 0.01 0.02 0.03 0.02 0.01 0.01 0.02 0.05 0.07 0.03 0.01 0.02
0.01 0.00 0.00 0.01 0.01 0.01 0.00 0.00 0.00 0.00 0.00 0.00 0.00 0.00 0.00 0.00 0.00 0.00 0.00 0.00 0.00 0.00 0.00 0.00 0.00 0.00 0.00 0.00 0.00 0.00 0.01 0.01 0.01 0.02 0.01 0.01 0.00 0.00 0.03 0.06 0.05 0.02 0.02
0.01 0.00 0.00 0.00 0.00 0.00 0.00 0.01 0.00 0.00 0.00 0.00 0.00 0.00 0.00 0.00 0.00 0.00 0.00 0.00 0.00 0.00 0.00 0.00 0.00 0.00 0.00 0.00 0.00 0.00 0.00 0.01 0.02 0.01 0.01 0.01 0.01 0.00 0.01 0.02 0.03 0.03 0.02
0.00 0.00 0.00 0.00 0.00 0.00 0.00 0.00 0.00 0.00 0.00 0.00 0.01 0.00 0.00 0.00 0.00 0.00 0.00 0.00 0.00 0.00 0.00 0.00 0.00 0.00 0.00 0.00 0.00 0.01 0.01 0.01 0.03 0.04 0.04 0.03 0.02 0.02 0.01 0.01 0.01 0.01 0.03
0.00 0.00 0.00 0.00 0.00 0.00 0.00 0.00 0.00 0.00 0.00 0.01 0.00 0.00 0.00 0.00 0.00 0.00 0.00 0.00 0.00 0.01 0.01 0.03 0.01 0.00 0.00 0.00 0.00 0.00 0.01 0.02 0.03 0.02 0.04 0.02 0.02 0.01 0.00 0.00 0.01 0.01 0.01
0.00 0.00 0.00 0.00 0.00 0.00 0.01 0.03 0.02 0.00 0.00 0.00 0.00 0.00 0.00 0.00 0.00 0.00 0.01 0.01 0.01 0.01 0.01 0.01 0.01 0.01 0.00 0.00 0.01 0.03 0.05 0.04 0.03 0.03 0.05 0.05 0.03 0.02 0.01 0.01 0.03 0.01 0.02
0.00 0.00 0.00 0.00 0.01 0.05 0.07 0.05 0.00 0.00 0.00 0.00 0.00 0.00 0.00 0.00 0.00 0.00 0.01 0.01 0.01 0.01 0.02 0.02 0.02 0.02 0.01 0.03 0.05 0.05 0.04 0.03 0.04 0.06 0.05 0.06 0.11 0.09 0.02 0.04 0.09 0.15 0.05
0.00 0.00 0.01 0.04 0.08 0.10 0.04 0.00 0.00 0.00 0.00 0.00 0.00 0.00 0.00 0.00 0.00 0.00 0.00 0.00 0.00 0.02 0.04 0.04 0.03 0.03 0.02 0.03 0.08 0.13 0.10 0.06 0.04 0.07 0.07 0.04 0.04 0.05 0.11 0.14 0.14 0.24 0.23
0.01 0.03 0.07 0.12 0.11 0.06 0.00 0.00 0.00 0.00 0.00 0.00 0.00 0.00 0.00 0.00 0.00 0.00 0.00 0.00 0.01 0.01 0.03 0.04 0.06 0.05 0.06 0.06 0.07 0.09 0.10 0.09 0.06 0.05 0.06 0.01 0.01 0.02 0.02 0.05 0.06 0.10 0.20
0.11 0.15 0.16 0.10 0.02 0.00 0.01 0.01 0.00 0.00 0.00 0.00 0.00 0.00 0.00 0.00 0.00 0.00 0.01 0.02 0.01 0.00 0.00 0.01 0.03 0.03 0.03 0.04 0.05 0.06 0.07 0.06 0.02 0.00 0.00 0.01 0.00 0.01 0.00 0.00 0.00 0.00 0.02
0.18 0.12 0.04 0.01 0.02 0.01 0.01 0.00 0.00 0.00 0.00 0.00 0.00 0.00 0.00 0.00 0.00 0.01 0.01 0.01 0.00 0.00 0.01 0.01 0.01 0.01 0.00 0.00 0.02 0.07 0.07 0.09 0.06 0.02 0.01 0.03 0.00 0.01 0.00 0.00 0.00 0.00 0.00
0.03 0.03 0.04 0.03 0.02 0.00 0.00 0.00 0.00 0.00 0.00 0.00 0.00 0.00 0.00 0.00 0.00 0.00 0.01 0.01 0.01 0.02 0.01 0.01 0.01 0.01 0.01 0.01 0.01 0.04 0.06 0.13 0.13 0.11 0.05 0.12 0.04 0.06 0.09 0.00 0.00 0.00 0.00

GFSMA_prec_precacc_030.txt.gz
Total_Precipitation_Accumulation
0.04 0.00 0.00 0.00 0.00 0.00 0.00 0.00 0.00 0.00 0.00 0.00 0.00 0.00 0.00 0.00 0.00 0.00 0.00 0.00 0.00 0.00 0.01 0.02 0.01 0.00 0.00 0.00 0.00 0.00 0.00 0.00 0.00 0.00 0.00 0.00 0.00 0.00 0.01 0.01 0.02 0.08 0.17
0.10 0.04 0.01 0.00 0.00 0.00 0.00 0.00 0.00 0.00 0.00 0.00 0.00 0.00 0.00 0.00 0.00 0.00 0.00 0.00 0.00 0.00 0.00 0.00 0.00 0.00 0.00 0.00 0.00 0.00 0.00 0.00 0.01 0.00 0.00 0.00 0.00 0.00 0.00 0.01 0.00 0.02 0.12
0.10 0.01 0.00 0.00 0.00 0.00 0.00 0.00 0.00 0.00 0.00 0.00 0.00 0.00 0.00 0.00 0.00 0.00 0.00 0.00 0.00 0.00 0.00 0.00 0.00 0.00 0.00 0.00 0.00 0.00 0.00 0.00 0.00 0.01 0.01 0.01 0.01 0.00 0.00 0.00 0.01 0.00 0.01
0.01 0.00 0.00 0.00 0.00 0.00 0.00 0.00 0.00 0.00 0.00 0.00 0.00 0.00 0.00 0.00 0.00 0.00 0.00 0.00 0.00 0.00 0.00 0.00 0.00 0.00 0.00 0.00 0.00 0.00 0.00 0.00 0.00 0.00 0.01 0.01 0.01 0.01 0.00 0.00 0.00 0.01 0.00
0.00 0.00 0.00 0.00 0.00 0.00 0.00 0.00 0.00 0.00 0.00 0.00 0.00 0.00 0.00 0.00 0.00 0.00 0.00 0.00 0.00 0.00 0.00 0.00 0.00 0.00 0.00 0.00 0.00 0.00 0.00 0.00 0.00 0.00 0.00 0.00 0.01 0.02 0.01 0.01 0.00 0.01 0.01
0.00 0.00 0.00 0.00 0.00 0.00 0.00 0.00 0.00 0.00 0.00 0.00 0.00 0.00 0.00 0.00 0.00 0.00 0.00 0.00 0.00 0.00 0.00 0.00 0.00 0.00 0.00 0.00 0.00 0.00 0.00 0.00 0.00 0.00 0.00 0.00 0.00 0.01 0.01 0.02 0.01 0.01 0.01
0.00 0.00 0.00 0.00 0.00 0.00 0.00 0.00 0.00 0.00 0.00 0.00 0.00 0.00 0.00 0.00 0.00 0.00 0.00 0.00 0.00 0.00 0.00 0.00 0.00 0.00 0.00 0.00 0.00 0.00 0.00 0.00 0.00 0.00 0.00 0.00 0.01 0.00 0.01 0.01 0.01 0.01 0.01
0.00 0.00 0.00 0.00 0.00 0.00 0.00 0.00 0.00 0.00 0.00 0.00 0.00 0.00 0.00 0.00 0.00 0.00 0.00 0.00 0.00 0.00 0.00 0.00 0.00 0.00 0.00 0.00 0.00 0.00 0.00 0.00 0.00 0.00 0.00 0.00 0.00 0.00 0.01 0.02 0.01 0.01 0.01
0.00 0.00 0.00 0.00 0.00 0.00 0.00 0.00 0.00 0.00 0.00 0.00 0.00 0.00 0.00 0.00 0.00 0.00 0.00 0.00 0.00 0.00 0.00 0.00 0.00 0.00 0.00 0.00 0.00 0.00 0.00 0.00 0.00 0.00 0.00 0.00 0.00 0.00 0.01 0.02 0.02 0.02 0.02
0.00 0.00 0.00 0.00 0.00 0.00 0.00 0.00 0.00 0.00 0.00 0.00 0.00 0.00 0.00 0.00 0.00 0.00 0.00 0.00 0.00 0.00 0.00 0.00 0.00 0.00 0.00 0.00 0.00 0.00 0.00 0.00 0.00 0.00 0.00 0.00 0.00 0.00 0.02 0.02 0.03 0.03 0.03
0.00 0.00 0.00 0.00 0.00 0.00 0.00 0.00 0.00 0.01 0.00 0.00 0.00 0.00 0.00 0.00 0.00 0.00 0.00 0.00 0.00 0.00 0.00 0.00 0.00 0.00 0.00 0.00 0.00 0.00 0.00 0.00 0.00 0.00 0.00 0.00 0.00 0.00 0.01 0.03 0.04 0.04 0.04
0.01 0.00 0.00 0.00 0.00 0.00 0.00 0.01 0.01 0.00 0.00 0.00 0.00 0.00 0.00 0.00 0.00 0.00 0.00 0.00 0.00 0.00 0.00 0.00 0.00 0.00 0.00 0.00 0.00 0.00 0.00 0.00 0.00 0.00 0.00 0.01 0.01 0.01 0.01 0.01 0.03 0.05 0.05
0.03 0.02 0.00 0.00 0.00 0.01 0.01 0.00 0.01 0.01 0.00 0.00 0.00 0.00 0.00 0.00 0.00 0.00 0.00 0.00 0.00 0.00 0.00 0.00 0.00 0.00 0.00 0.00 0.00 0.00 0.00 0.00 0.00 0.00 0.01 0.02 0.02 0.02 0.03 0.03 0.05 0.09 0.10
0.04 0.03 0.04 0.03 0.00 0.00 0.01 0.03 0.04 0.01 0.01 0.01 0.00 0.00 0.00 0.00 0.00 0.00 0.00 0.00 0.00 0.00 0.00 0.00 0.00 0.00 0.00 0.00 0.00 0.00 0.00 0.00 0.00 0.01 0.01 0.01 0.02 0.04 0.05 0.04 0.03 0.04 0.07
0.02 0.01 0.02 0.00 0.01 0.04 0.07 0.07 0.02 0.00 0.01 0.00 0.00 0.00 0.00 0.00 0.00 0.00 0.00 0.00 0.00 0.00 0.00 0.00 0.00 0.00 0.00 0.00 0.00 0.00 0.01 0.01 0.02 0.03 0.02 0.01 0.01 0.02 0.05 0.07 0.03 0.01 0.02
0.01 0.00 0.00 0.03 0.08 0.07 0.05 0.01 0.00 0.00 0.00 0.00 0.00 0.00 0.00 0.00 0.00 0.00 0.00 0.00 0.00 0.00 0.00 0.00 0.00 0.00 0.00 0.00 0.00 0.00 0.01 0.01 0.01 0.02 0.01 0.01 0.00 0.00 0.03 0.06 0.05 0.02 0.02
0.02 0.05 0.09 0.10 0.04 0.00 0.00 0.01 0.00 0.00 0.00 0.00 0.00 0.00 0.00 0.00 0.00 0.00 0.00 0.00 0.00 0.00 0.00 0.00 0.00 0.00 0.00 0.00 0.00 0.00 0.00 0.01 0.02 0.01 0.01 0.01 0.01 0.00 0.01 0.02 0.03 0.03 0.02
0.04 0.03 0.01 0.00 0.00 0.00 0.00 0.00 0.00 0.00 0.01 0.01 0.01 0.00 0.00 0.00 0.00 0.00 0.00 0.00 0.00 0.00 0.00 0.00 0.00 0.00 0.00 0.00 0.00 0.01 0.01 0.01 0.03 0.04 0.04 0.03 0.02 0.02 0.01 0.01 0.01 0.01 0.03
0.02 0.01 0.00 0.00 0.00 0.00 0.00 0.00 0.00 0.05 0.05 0.01 0.00 0.00 0.00 0.00 0.00 0.00 0.00 0.00 0.00 0.01 0.01 0.03 0.01 0.00 0.00 0.00 0.00 0.00 0.01 0.02 0.03 0.02 0.04 0.02 0.02 0.01 0.00 0.00 0.01 0.01 0.01
0.00 0.00 0.00 0.00 0.00 0.00 0.01 0.06 0.09 0.04 0.00 0.00 0.00 0.00 0.00 0.00 0.00 0.00 0.01 0.01 0.01 0.01 0.01 0.01 0.01 0.01 0.00 0.00 0.01 0.03 0.05 0.04 0.03 0.03 0.05 0.05 0.03 0.02 0.01 0.01 0.03 0.01 0.02
0.00 0.00 0.00 0.00 0.02 0.05 0.10 0.10 0.04 0.01 0.00 0.00 0.00 0.00 0.00 0.00 0.00 0.00 0.01 0.01 0.01 0.01 0.02 0.02 0.02 0.02 0.01 0.03 0.05 0.05 0.04 0.03 0.04 0.06 0.05 0.06 0.11 0.09 0.02 0.04 0.09 0.15 0.05
0.00 0.00 0.02 0.05 0.09 0.12 0.11 0.09 0.02 0.00 0.00 0.00 0.00 0.00 0.00 0.00 0.00 0.00 0.00 0.00 0.00 0.02 0.04 0.04 0.03 0.03 0.02 0.03 0.08 0.13 0.10 0.06 0.04 0.07 0.07 0.04 0.04 0.05 0.11 0.14 0.14 0.24 0.23
0.01 0.03 0.07 0.13 0.15 0.12 0.05 0.02 0.00 0.00 0.00 0.00 0.00 0.00 0.00 0.00 0.00 0.00 0.00 0.00 0.01 0.01 0.03 0.04 0.06 0.05 0.06 0.06 0.07 0.09 0.10 0.09 0.06 0.05 0.06 0.01 0.01 0.02 0.02 0.05 0.06 0.10 0.20
0.11 0.15 0.17 0.13 0.06 0.01 0.02 0.04 0.02 0.00 0.00 0.00 0.00 0.00 0.00 0.00 0.00 0.00 0.01 0.02 0.01 0.00 0.00 0.01 0.03 0.03 0.03 0.04 0.05 0.06 0.07 0.06 0.02 0.00 0.00 0.01 0.00 0.01 0.00 0.00 0.00 0.00 0.02
0.18 0.12 0.04 0.01 0.02 0.02 0.04 0.02 0.01 0.00 0.00 0.00 0.00 0.00 0.00 0.00 0.00 0.01 0.01 0.01 0.00 0.00 0.01 0.01 0.01 0.01 0.00 0.00 0.02 0.07 0.07 0.09 0.06 0.02 0.01 0.03 0.00 0.01 0.00 0.00 0.00 0.00 0.00
0.03 0.03 0.04 0.04 0.04 0.01 0.00 0.00 0.00 0.00 0.00 0.00 0.00 0.00 0.00 0.00 0.00 0.00 0.01 0.01 0.01 0.02 0.01 0.01 0.01 0.01 0.01 0.01 0.01 0.04 0.06 0.14 0.13 0.11 0.05 0.13 0.04 0.06 0.09 0.00 0.00 0.00 0.01

GFSMA_prec_precacc_033.txt.gz
Total_Precipitation_Accumulation
0.04 0.00 0.00 0.00 0.00 0.00 0.00 0.00 0.00 0.00 0.00 0.00 0.00 0.00 0.00 0.00 0.00 0.00 0.00 0.00 0.00 0.00 0.02 0.03 0.01 0.00 0.00 0.00 0.00 0.00 0.00 0.00 0.00 0.00 0.00 0.00 0.00 0.00 0.01 0.01 0.02 0.08 0.17
0.10 0.04 0.01 0.00 0.00 0.00 0.00 0.00 0.00 0.00 0.00 0.00 0.00 0.00 0.00 0.00 0.00 0.00 0.00 0.00 0.00 0.00 0.00 0.00 0.00 0.00 0.00 0.00 0.00 0.00 0.00 0.00 0.01 0.00 0.00 0.00 0.00 0.00 0.00 0.01 0.00 0.02 0.12
0.10 0.01 0.00 0.00 0.00 0.00 0.00 0.00 0.00 0.00 0.00 0.00 0.00 0.00 0.00 0.00 0.00 0.00 0.00 0.00 0.00 0.00 0.00 0.00 0.00 0.00 0.00 0.00 0.00 0.00 0.00 0.00 0.00 0.01 0.01 0.01 0.01 0.00 0.00 0.00 0.01 0.00 0.01
0.01 0.00 0.00 0.00 0.00 0.00 0.00 0.00 0.00 0.00 0.00 0.00 0.00 0.00 0.00 0.00 0.00 0.00 0.00 0.00 0.00 0.00 0.00 0.00 0.00 0.00 0.00 0.00 0.00 0.00 0.00 0.00 0.00 0.00 0.01 0.01 0.01 0.01 0.00 0.00 0.00 0.01 0.00
0.00 0.00 0.00 0.00 0.00 0.00 0.00 0.00 0.00 0.00 0.00 0.00 0.00 0.00 0.00 0.00 0.00 0.00 0.00 0.00 0.00 0.00 0.00 0.00 0.00 0.00 0.00 0.00 0.00 0.00 0.00 0.00 0.00 0.00 0.00 0.00 0.01 0.02 0.01 0.01 0.00 0.01 0.01
0.00 0.00 0.00 0.00 0.00 0.00 0.00 0.00 0.00 0.00 0.00 0.00 0.00 0.00 0.00 0.00 0.00 0.00 0.00 0.00 0.00 0.00 0.00 0.00 0.00 0.00 0.00 0.00 0.00 0.00 0.00 0.00 0.00 0.00 0.00 0.00 0.00 0.01 0.01 0.02 0.01 0.01 0.01
0.00 0.00 0.00 0.00 0.00 0.00 0.00 0.00 0.00 0.00 0.00 0.00 0.00 0.00 0.00 0.00 0.00 0.00 0.00 0.00 0.00 0.00 0.00 0.00 0.00 0.00 0.00 0.00 0.00 0.00 0.00 0.00 0.00 0.00 0.00 0.00 0.01 0.00 0.01 0.01 0.01 0.01 0.01
0.00 0.00 0.00 0.00 0.00 0.00 0.00 0.00 0.00 0.00 0.00 0.00 0.00 0.00 0.00 0.00 0.00 0.00 0.00 0.00 0.00 0.00 0.00 0.00 0.00 0.00 0.00 0.00 0.00 0.00 0.00 0.00 0.00 0.00 0.00 0.00 0.00 0.00 0.01 0.02 0.01 0.01 0.01
0.00 0.00 0.00 0.00 0.00 0.00 0.00 0.00 0.00 0.00 0.00 0.00 0.00 0.00 0.00 0.00 0.00 0.00 0.00 0.00 0.00 0.00 0.00 0.00 0.00 0.00 0.00 0.00 0.00 0.00 0.00 0.00 0.00 0.00 0.00 0.00 0.00 0.00 0.01 0.02 0.02 0.02 0.02
0.00 0.00 0.00 0.00 0.00 0.00 0.00 0.00 0.00 0.00 0.00 0.00 0.00 0.00 0.00 0.00 0.00 0.00 0.00 0.00 0.00 0.00 0.00 0.00 0.00 0.00 0.00 0.00 0.00 0.00 0.00 0.00 0.00 0.00 0.00 0.00 0.00 0.00 0.02 0.02 0.03 0.03 0.03
0.00 0.00 0.00 0.00 0.00 0.00 0.00 0.00 0.00 0.01 0.00 0.00 0.00 0.00 0.00 0.00 0.00 0.00 0.00 0.00 0.00 0.00 0.00 0.00 0.00 0.00 0.00 0.00 0.00 0.00 0.00 0.00 0.00 0.00 0.00 0.00 0.00 0.00 0.01 0.03 0.04 0.04 0.04
0.02 0.02 0.01 0.00 0.00 0.00 0.00 0.01 0.01 0.00 0.00 0.01 0.00 0.00 0.00 0.00 0.00 0.00 0.00 0.00 0.00 0.00 0.00 0.00 0.00 0.00 0.00 0.00 0.00 0.00 0.00 0.00 0.00 0.00 0.00 0.01 0.01 0.01 0.01 0.01 0.03 0.05 0.05
0.04 0.04 0.03 0.03 0.03 0.03 0.04 0.02 0.02 0.03 0.03 0.01 0.00 0.00 0.00 0.00 0.00 0.00 0.00 0.00 0.00 0.00 0.00 0.00 0.00 0.00 0.00 0.00 0.00 0.00 0.00 0.00 0.00 0.00 0.01 0.02 0.02 0.02 0.03 0.03 0.05 0.09 0.10
0.17 0.16 0.10 0.07 0.04 0.02 0.02 0.04 0.06 0.05 0.03 0.01 0.00 0.00 0.00 0.00 0.00 0.00 0.00 0.00 0.00 0.00 0.00 0.00 0.00 0.00 0.00 0.00 0.00 0.00 0.00 0.00 0.00 0.01 0.01 0.01 0.02 0.04 0.05 0.04 0.03 0.04 0.07
0.03 0.02 0.02 0.01 0.02 0.04 0.09 0.12 0.09 0.04 0.02 0.01 0.00 0.00 0.00 0.00 0.00 0.00 0.00 0.00 0.00 0.00 0.00 0.00 0.00 0.00 0.00 0.00 0.00 0.00 0.01 0.01 0.02 0.03 0.02 0.01 0.01 0.02 0.05 0.07 0.03 0.01 0.02
0.01 0.00 0.00 0.03 0.10 0.15 0.15 0.10 0.04 0.01 0.00 0.00 0.00 0.00 0.00 0.00 0.00 0.00 0.00 0.00 0.00 0.00 0.00 0.00 0.00 0.00 0.00 0.00 0.00 0.00 0.01 0.01 0.01 0.02 0.01 0.01 0.00 0.00 0.03 0.06 0.05 0.02 0.02
0.03 0.05 0.10 0.12 0.10 0.05 0.02 0.01 0.00 0.00 0.00 0.00 0.01 0.01 0.00 0.00 0.00 0.00 0.00 0.00 0.00 0.00 0.00 0.00 0.00 0.00 0.00 0.00 0.00 0.00 0.00 0.01 0.02 0.01 0.01 0.01 0.01 0.00 0.01 0.02 0.03 0.03 0.02
0.04 0.03 0.01 0.01 0.00 0.00 0.01 0.00 0.01 0.00 0.01 0.05 0.05 0.01 0.00 0.00 0.00 0.00 0.00 0.00 0.00 0.00 0.00 0.00 0.00 0.00 0.00 0.00 0.00 0.01 0.01 0.01 0.03 0.04 0.04 0.03 0.02 0.02 0.01 0.01 0.01 0.01 0.03
0.02 0.01 0.01 0.02 0.02 0.01 0.01 0.01 0.01 0.05 0.08 0.04 0.01 0.00 0.00 0.00 0.00 0.00 0.00 0.00 0.00 0.01 0.01 0.03 0.01 0.00 0.00 0.00 0.00 0.00 0.01 0.02 0.03 0.02 0.04 0.02 0.02 0.01 0.00 0.00 0.01 0.01 0.01
0.00 0.00 0.00 0.01 0.01 0.00 0.01 0.06 0.09 0.07 0.06 0.04 0.01 0.00 0.00 0.00 0.00 0.00 0.01 0.01 0.02 0.02 0.01 0.01 0.01 0.01 0.00 0.00 0.01 0.03 0.05 0.04 0.03 0.03 0.05 0.05 0.03 0.02 0.01 0.01 0.03 0.01 0.02
0.00 0.00 0.00 0.00 0.02 0.06 0.11 0.11 0.12 0.12 0.03 0.01 0.00 0.00 0.00 0.00 0.00 0.00 0.01 0.01 0.02 0.02 0.02 0.02 0.02 0.02 0.01 0.03 0.05 0.05 0.04 0.03 0.04 0.06 0.05 0.06 0.11 0.09 0.02 0.04 0.09 0.15 0.05
0.00 0.00 0.02 0.05 0.09 0.13 0.13 0.12 0.05 0.01 0.00 0.00 0.00 0.00 0.00 0.00 0.00 0.00 0.00 0.00 0.01 0.02 0.05 0.05 0.03 0.03 0.02 0.03 0.08 0.13 0.10 0.06 0.04 0.07 0.07 0.04 0.04 0.05 0.11 0.14 0.14 0.24 0.23
0.01 0.03 0.07 0.13 0.15 0.12 0.06 0.02 0.01 0.00 0.01 0.00 0.00 0.00 0.00 0.00 0.00 0.00 0.00 0.00 0.01 0.01 0.03 0.05 0.06 0.05 0.06 0.06 0.07 0.09 0.10 0.09 0.06 0.05 0.06 0.01 0.01 0.02 0.02 0.05 0.06 0.10 0.20
0.11 0.15 0.17 0.13 0.06 0.01 0.02 0.04 0.03 0.01 0.01 0.00 0.00 0.00 0.00 0.00 0.00 0.00 0.01 0.02 0.01 0.00 0.00 0.01 0.03 0.03 0.03 0.04 0.05 0.06 0.07 0.06 0.02 0.00 0.00 0.01 0.00 0.01 0.00 0.00 0.00 0.00 0.02
0.18 0.12 0.04 0.01 0.02 0.02 0.04 0.03 0.02 0.00 0.00 0.00 0.00 0.00 0.00 0.00 0.00 0.01 0.01 0.01 0.00 0.00 0.01 0.01 0.01 0.01 0.00 0.00 0.02 0.07 0.07 0.09 0.06 0.02 0.01 0.03 0.00 0.01 0.00 0.00 0.00 0.00 0.00
0.03 0.03 0.04 0.04 0.05 0.02 0.01 0.00 0.00 0.00 0.00 0.00 0.00 0.00 0.00 0.00 0.00 0.00 0.01 0.01 0.01 0.02 0.02 0.01 0.01 0.01 0.01 0.01 0.01 0.04 0.06 0.14 0.13 0.11 0.05 0.13 0.04 0.06 0.09 0.00 0.00 0.00 0.01

GFSMA_prec_precacc_036.txt.gz
Total_Precipitation_Accumulation
0.04 0.00 0.00 0.00 0.00 0.00 0.00 0.00 0.00 0.00 0.00 0.00 0.00 0.00 0.00 0.00 0.00 0.00 0.00 0.00 0.00 0.00 0.03 0.04 0.01 0.00 0.00 0.00 0.00 0.00 0.00 0.00 0.00 0.00 0.00 0.00 0.00 0.00 0.01 0.01 0.02 0.08 0.17
0.10 0.04 0.01 0.00 0.00 0.00 0.00 0.00 0.00 0.00 0.00 0.00 0.00 0.00 0.00 0.00 0.00 0.00 0.00 0.00 0.00 0.00 0.00 0.01 0.00 0.00 0.00 0.00 0.00 0.00 0.00 0.00 0.01 0.00 0.00 0.00 0.00 0.00 0.00 0.01 0.00 0.02 0.12
0.10 0.01 0.00 0.00 0.00 0.00 0.00 0.00 0.00 0.00 0.00 0.00 0.00 0.00 0.00 0.00 0.00 0.00 0.00 0.00 0.00 0.00 0.00 0.00 0.00 0.00 0.00 0.00 0.00 0.00 0.00 0.00 0.00 0.01 0.01 0.01 0.01 0.00 0.00 0.00 0.01 0.00 0.01
0.01 0.00 0.00 0.00 0.00 0.00 0.00 0.00 0.00 0.00 0.00 0.00 0.00 0.00 0.00 0.00 0.00 0.00 0.00 0.00 0.00 0.00 0.00 0.00 0.00 0.00 0.00 0.00 0.00 0.00 0.00 0.00 0.00 0.00 0.01 0.01 0.01 0.01 0.00 0.00 0.00 0.01 0.00
0.00 0.00 0.00 0.00 0.00 0.00 0.00 0.00 0.00 0.00 0.00 0.00 0.00 0.00 0.00 0.00 0.00 0.00 0.00 0.00 0.00 0.00 0.00 0.00 0.00 0.00 0.00 0.00 0.00 0.00 0.00 0.00 0.00 0.00 0.00 0.00 0.01 0.02 0.01 0.01 0.00 0.01 0.01
0.00 0.00 0.00 0.00 0.00 0.00 0.00 0.00 0.00 0.00 0.00 0.00 0.00 0.00 0.00 0.00 0.00 0.00 0.00 0.00 0.00 0.00 0.00 0.00 0.00 0.00 0.00 0.00 0.00 0.00 0.00 0.00 0.00 0.00 0.00 0.00 0.00 0.01 0.01 0.02 0.01 0.01 0.01
0.02 0.00 0.00 0.00 0.00 0.00 0.00 0.00 0.00 0.00 0.00 0.00 0.00 0.00 0.00 0.00 0.00 0.00 0.00 0.00 0.00 0.00 0.00 0.00 0.00 0.00 0.00 0.00 0.00 0.00 0.00 0.00 0.00 0.00 0.00 0.00 0.01 0.00 0.01 0.01 0.01 0.01 0.01
0.00 0.00 0.00 0.00 0.00 0.00 0.00 0.00 0.00 0.00 0.00 0.00 0.00 0.00 0.00 0.00 0.00 0.00 0.00 0.00 0.00 0.00 0.00 0.00 0.00 0.00 0.00 0.00 0.00 0.00 0.00 0.00 0.00 0.00 0.00 0.00 0.00 0.00 0.01 0.02 0.01 0.01 0.01
0.01 0.00 0.00 0.00 0.00 0.00 0.00 0.00 0.00 0.00 0.00 0.00 0.00 0.00 0.00 0.00 0.00 0.00 0.00 0.00 0.00 0.00 0.00 0.00 0.00 0.00 0.00 0.00 0.00 0.00 0.00 0.00 0.00 0.00 0.00 0.00 0.00 0.00 0.01 0.02 0.02 0.02 0.02
0.01 0.03 0.00 0.00 0.00 0.00 0.00 0.00 0.00 0.00 0.00 0.00 0.00 0.00 0.00 0.00 0.00 0.00 0.00 0.00 0.00 0.00 0.00 0.00 0.00 0.00 0.00 0.00 0.00 0.00 0.00 0.00 0.00 0.00 0.00 0.00 0.00 0.00 0.02 0.02 0.03 0.03 0.03
0.00 0.03 0.00 0.00 0.00 0.00 0.00 0.00 0.01 0.01 0.00 0.00 0.00 0.01 0.01 0.00 0.00 0.00 0.00 0.00 0.00 0.00 0.00 0.00 0.00 0.00 0.00 0.00 0.00 0.00 0.00 0.00 0.00 0.00 0.00 0.00 0.00 0.00 0.01 0.03 0.04 0.04 0.04
0.03 0.05 0.03 0.01 0.01 0.03 0.08 0.10 0.07 0.01 0.01 0.02 0.02 0.02 0.03 0.02 0.00 0.00 0.00 0.00 0.00 0.00 0.00 0.00 0.00 0.00 0.00 0.00 0.00 0.00 0.00 0.00 0.00 0.00 0.00 0.01 0.01 0.01 0.01 0.01 0.03 0.05 0.05
0.05 0.05 0.04 0.06 0.11 0.15 0.12 0.07 0.03 0.04 0.04 0.03 0.06 0.08 0.04 0.00 0.00 0.00 0.00 0.00 0.00 0.00 0.00 0.00 0.00 0.00 0.00 0.00 0.00 0.00 0.00 0.00 0.00 0.00 0.01 0.02 0.02 0.02 0.03 0.03 0.05 0.09 0.10
0.18 0.22 0.20 0.15 0.08 0.03 0.02 0.04 0.06 0.07 0.08 0.10 0.08 0.03 0.00 0.00 0.00 0.00 0.00 0.00 0.00 0.00 0.00 0.00 0.00 0.00 0.00 0.00 0.00 0.00 0.00 0.00 0.00 0.01 0.01 0.01 0.02 0.04 0.05 0.04 0.03 0.04 0.07
0.03 0.02 0.02 0.01 0.02 0.04 0.09 0.12 0.12 0.10 0.08 0.04 0.02 0.00 0.00 0.00 0.00 0.00 0.00 0.00 0.00 0.00 0.00 0.00 0.00 0.00 0.00 0.00 0.00 0.00 0.01 0.01 0.02 0.03 0.02 0.01 0.01 0.02 0.05 0.07 0.03 0.01 0.02
0.03 0.02 0.01 0.03 0.10 0.15 0.15 0.12 0.06 0.03 0.02 0.01 0.00 0.00 0.00 0.00 0.00 0.00 0.00 0.00 0.00 0.00 0.00 0.00 0.00 0.00 0.00 0.00 0.00 0.00 0.01 0.01 0.01 0.02 0.01 0.01 0.00 0.00 0.03 0.06 0.05 0.02 0.02
0.07 0.06 0.10 0.12 0.10 0.05 0.03 0.02 0.01 0.02 0.02 0.01 0.02 0.02 0.01 0.00 0.00 0.00 0.00 0.00 0.00 0.00 0.00 0.00 0.00 0.00 0.00 0.00 0.00 0.00 0.00 0.01 0.02 0.01 0.01 0.01 0.01 0.00 0.01 0.02 0.03 0.03 0.02
0.07 0.03 0.01 0.01 0.00 0.01 0.01 0.01 0.02 0.03 0.04 0.07 0.05 0.02 0.00 0.00 0.00 0.00 0.00 0.00 0.00 0.00 0.00 0.00 0.00 0.00 0.00 0.00 0.00 0.01 0.01 0.01 0.03 0.04 0.04 0.03 0.02 0.02 0.01 0.01 0.01 0.01 0.03
0.02 0.01 0.01 0.02 0.03 0.02 0.02 0.02 0.03 0.08 0.10 0.05 0.03 0.02 0.00 0.00 0.00 0.00 0.00 0.00 0.00 0.01 0.01 0.04 0.01 0.00 0.00 0.00 0.00 0.00 0.01 0.02 0.03 0.02 0.04 0.02 0.02 0.01 0.00 0.00 0.01 0.01 0.01
0.00 0.00 0.01 0.01 0.01 0.01 0.02 0.06 0.10 0.08 0.08 0.07 0.03 0.00 0.00 0.00 0.00 0.00 0.01 0.01 0.02 0.02 0.02 0.02 0.01 0.01 0.00 0.00 0.01 0.03 0.05 0.04 0.03 0.03 0.05 0.05 0.03 0.02 0.01 0.01 0.03 0.01 0.02
0.00 0.00 0.00 0.00 0.02 0.06 0.11 0.12 0.12 0.12 0.04 0.01 0.00 0.00 0.00 0.00 0.00 0.00 0.01 0.01 0.02 0.03 0.03 0.03 0.02 0.02 0.01 0.03 0.05 0.05 0.04 0.03 0.04 0.06 0.05 0.06 0.11 0.09 0.02 0.04 0.09 0.15 0.05
0.00 0.00 0.02 0.05 0.09 0.13 0.13 0.12 0.06 0.01 0.00 0.00 0.00 0.00 0.00 0.00 0.00 0.00 0.00 0.00 0.01 0.02 0.05 0.05 0.04 0.04 0.02 0.03 0.08 0.13 0.10 0.06 0.04 0.07 0.07 0.04 0.04 0.05 0.11 0.14 0.14 0.24 0.23
0.01 0.03 0.07 0.13 0.15 0.12 0.06 0.02 0.01 0.00 0.01 0.00 0.00 0.00 0.00 0.00 0.00 0.00 0.00 0.00 0.01 0.01 0.03 0.05 0.06 0.05 0.06 0.06 0.07 0.10 0.10 0.09 0.06 0.05 0.06 0.01 0.01 0.02 0.02 0.05 0.06 0.10 0.20
0.11 0.15 0.17 0.13 0.06 0.01 0.02 0.04 0.03 0.01 0.01 0.00 0.00 0.00 0.00 0.00 0.00 0.00 0.01 0.02 0.01 0.00 0.00 0.01 0.03 0.03 0.03 0.04 0.07 0.07 0.07 0.06 0.02 0.00 0.00 0.01 0.00 0.01 0.00 0.00 0.00 0.00 0.02
0.18 0.12 0.04 0.01 0.02 0.02 0.04 0.03 0.02 0.00 0.00 0.00 0.00 0.00 0.00 0.00 0.00 0.01 0.01 0.01 0.00 0.00 0.01 0.01 0.01 0.01 0.00 0.00 0.02 0.08 0.07 0.09 0.06 0.02 0.01 0.03 0.00 0.01 0.00 0.00 0.00 0.00 0.00
0.03 0.03 0.04 0.04 0.05 0.02 0.01 0.00 0.00 0.00 0.00 0.00 0.00 0.00 0.00 0.00 0.00 0.00 0.01 0.01 0.02 0.02 0.02 0.02 0.02 0.01 0.01 0.02 0.01 0.05 0.06 0.14 0.13 0.11 0.05 0.13 0.04 0.06 0.09 0.00 0.00 0.00 0.01

GFSMA_prec_precacc_042.txt.gz
Total_Precipitation_Accumulation
0.04 0.00 0.00 0.00 0.00 0.00 0.00 0.00 0.00 0.00 0.00 0.00 0.00 0.00 0.00 0.00 0.00 0.00 0.00 0.00 0.00 0.01 0.04 0.05 0.02 0.00 0.00 0.00 0.00 0.00 0.00 0.00 0.00 0.00 0.00 0.00 0.00 0.00 0.01 0.01 0.02 0.08 0.17
0.10 0.04 0.03 0.00 0.00 0.00 0.00 0.00 0.00 0.00 0.00 0.00 0.00 0.00 0.00 0.00 0.00 0.00 0.00 0.00 0.00 0.00 0.01 0.02 0.01 0.00 0.00 0.00 0.00 0.00 0.00 0.00 0.01 0.00 0.00 0.00 0.00 0.00 0.00 0.01 0.00 0.02 0.12
0.11 0.03 0.04 0.01 0.00 0.00 0.00 0.00 0.00 0.00 0.00 0.00 0.00 0.00 0.00 0.00 0.00 0.00 0.00 0.00 0.00 0.00 0.00 0.00 0.00 0.00 0.00 0.00 0.00 0.00 0.00 0.00 0.00 0.01 0.01 0.01 0.01 0.00 0.00 0.00 0.01 0.00 0.01
0.01 0.00 0.01 0.00 0.00 0.00 0.00 0.00 0.00 0.00 0.00 0.00 0.00 0.00 0.00 0.00 0.00 0.00 0.00 0.00 0.00 0.00 0.00 0.00 0.00 0.00 0.00 0.00 0.00 0.00 0.00 0.00 0.00 0.00 0.01 0.01 0.01 0.01 0.00 0.00 0.00 0.01 0.00
0.00 0.00 0.00 0.00 0.00 0.00 0.00 0.00 0.00 0.00 0.00 0.00 0.00 0.00 0.00 0.00 0.00 0.00 0.00 0.00 0.00 0.00 0.00 0.00 0.00 0.00 0.00 0.00 0.00 0.00 0.00 0.00 0.00 0.00 0.00 0.00 0.01 0.02 0.01 0.01 0.00 0.01 0.01
0.03 0.02 0.01 0.01 0.00 0.00 0.00 0.00 0.00 0.00 0.00 0.00 0.00 0.00 0.00 0.00 0.00 0.00 0.00 0.00 0.00 0.00 0.00 0.00 0.00 0.00 0.00 0.00 0.00 0.00 0.00 0.00 0.00 0.00 0.00 0.00 0.00 0.01 0.01 0.02 0.01 0.01 0.01
0.10 0.04 0.01 0.00 0.00 0.00 0.00 0.00 0.00 0.00 0.00 0.00 0.00 0.00 0.00 0.00 0.00 0.00 0.00 0.00 0.00 0.00 0.00 0.00 0.00 0.00 0.00 0.00 0.00 0.00 0.00 0.00 0.00 0.00 0.00 0.00 0.01 0.00 0.01 0.01 0.01 0.01 0.01
0.06 0.04 0.01 0.00 0.00 0.00 0.00 0.00 0.00 0.00 0.00 0.00 0.00 0.00 0.00 0.00 0.00 0.00 0.00 0.00 0.00 0.00 0.00 0.00 0.00 0.00 0.00 0.00 0.00 0.00 0.00 0.00 0.00 0.00 0.00 0.00 0.00 0.00 0.01 0.02 0.01 0.01 0.01
0.04 0.06 0.02 0.00 0.00 0.00 0.00 0.00 0.00 0.00 0.00 0.00 0.00 0.00 0.00 0.00 0.00 0.00 0.00 0.00 0.00 0.00 0.00 0.00 0.00 0.00 0.00 0.00 0.00 0.00 0.00 0.00 0.00 0.00 0.00 0.00 0.00 0.00 0.01 0.02 0.02 0.02 0.02
0.06 0.19 0.07 0.02 0.00 0.00 0.00 0.00 0.00 0.00 0.00 0.00 0.01 0.00 0.00 0.00 0.00 0.00 0.00 0.00 0.00 0.00 0.00 0.00 0.00 0.00 0.00 0.00 0.00 0.00 0.00 0.00 0.00 0.00 0.00 0.00 0.00 0.00 0.02 0.02 0.03 0.03 0.03
0.03 0.11 0.09 0.05 0.01 0.03 0.04 0.03 0.02 0.03 0.08 0.11 0.06 0.02 0.01 0.01 0.00 0.00 0.00 0.00 0.00 0.00 0.00 0.00 0.00 0.00 0.00 0.00 0.00 0.00 0.00 0.00 0.00 0.00 0.00 0.00 0.00 0.00 0.01 0.03 0.04 0.04 0.04
0.17 0.21 0.19 0.14 0.09 0.10 0.16 0.17 0.16 0.10 0.06 0.05 0.03 0.02 0.04 0.06 0.04 0.01 0.00 0.00 0.00 0.00 0.00 0.00 0.00 0.00 0.00 0.00 0.00 0.00 0.00 0.00 0.00 0.00 0.00 0.01 0.01 0.01 0.01 0.01 0.03 0.05 0.05
0.30 0.28 0.26 0.22 0.18 0.24 0.22 0.16 0.08 0.05 0.05 0.04 0.07 0.12 0.11 0.06 0.03 0.01 0.00 0.00 0.00 0.00 0.00 0.00 0.00 0.00 0.00 0.00 0.00 0.00 0.00 0.00 0.00 0.00 0.01 0.02 0.02 0.02 0.03 0.03 0.05 0.09 0.10
0.31 0.43 0.38 0.35 0.20 0.12 0.12 0.10 0.08 0.07 0.08 0.10 0.10 0.07 0.05 0.03 0.01 0.00 0.00 0.00 0.00 0.00 0.00 0.00 0.00 0.00 0.00 0.00 0.00 0.00 0.00 0.00 0.00 0.01 0.01 0.01 0.02 0.04 0.05 0.04 0.03 0.04 0.07
0.14 0.21 0.25 0.20 0.15 0.17 0.19 0.18 0.15 0.11 0.08 0.05 0.03 0.02 0.01 0.01 0.00 0.00 0.00 0.00 0.00 0.00 0.00 0.00 0.00 0.00 0.00 0.00 0.00 0.00 0.01 0.01 0.02 0.03 0.02 0.01 0.01 0.02 0.05 0.07 0.03 0.01 0.02
0.33 0.36 0.31 0.25 0.26 0.27 0.24 0.17 0.08 0.04 0.04 0.03 0.02 0.01 0.01 0.02 0.01 0.01 0.01 0.01 0.00 0.00 0.00 0.00 0.00 0.00 0.00 0.00 0.00 0.00 0.01 0.01 0.01 0.02 0.01 0.01 0.00 0.00 0.03 0.06 0.05 0.02 0.02
0.45 0.37 0.30 0.25 0.16 0.10 0.05 0.02 0.02 0.04 0.04 0.03 0.03 0.04 0.03 0.02 0.01 0.02 0.02 0.01 0.00 0.00 0.00 0.00 0.00 0.00 0.00 0.00 0.00 0.00 0.00 0.01 0.02 0.01 0.01 0.01 0.01 0.00 0.01 0.02 0.03 0.03 0.02
0.63 0.18 0.10 0.08 0.05 0.04 0.03 0.01 0.03 0.04 0.05 0.09 0.08 0.04 0.02 0.01 0.01 0.01 0.01 0.00 0.00 0.00 0.00 0.00 0.00 0.00 0.00 0.00 0.00 0.01 0.01 0.01 0.03 0.04 0.04 0.03 0.02 0.02 0.01 0.01 0.01 0.01 0.03
0.26 0.04 0.03 0.06 0.05 0.04 0.03 0.02 0.03 0.09 0.12 0.07 0.05 0.04 0.03 0.02 0.01 0.00 0.00 0.00 0.00 0.01 0.01 0.04 0.01 0.00 0.00 0.00 0.00 0.00 0.01 0.02 0.03 0.03 0.04 0.03 0.02 0.01 0.00 0.00 0.01 0.01 0.01
0.10 0.05 0.04 0.04 0.02 0.02 0.02 0.07 0.10 0.08 0.09 0.09 0.04 0.01 0.00 0.00 0.00 0.00 0.01 0.01 0.02 0.02 0.02 0.02 0.01 0.01 0.00 0.00 0.02 0.04 0.06 0.05 0.04 0.04 0.06 0.06 0.03 0.02 0.01 0.01 0.03 0.01 0.02
0.06 0.04 0.03 0.02 0.02 0.06 0.12 0.13 0.13 0.12 0.04 0.01 0.00 0.00 0.00 0.00 0.00 0.00 0.01 0.01 0.02 0.03 0.03 0.03 0.03 0.02 0.01 0.03 0.05 0.05 0.06 0.04 0.04 0.06 0.05 0.06 0.12 0.09 0.02 0.04 0.09 0.15 0.05
0.02 0.01 0.03 0.05 0.10 0.14 0.15 0.13 0.06 0.01 0.00 0.00 0.00 0.00 0.00 0.00 0.00 0.00 0.00 0.00 0.01 0.03 0.05 0.05 0.04 0.04 0.02 0.04 0.09 0.14 0.13 0.09 0.06 0.07 0.08 0.05 0.04 0.06 0.12 0.15 0.15 0.24 0.23
0.01 0.03 0.07 0.13 0.15 0.13 0.06 0.02 0.01 0.00 0.01 0.00 0.00 0.00 0.00 0.00 0.00 0.00 0.00 0.00 0.01 0.01 0.03 0.05 0.06 0.05 0.06 0.06 0.09 0.13 0.13 0.13 0.08 0.06 0.07 0.02 0.02 0.03 0.03 0.05 0.07 0.10 0.20
0.11 0.15 0.17 0.13 0.06 0.01 0.02 0.04 0.03 0.01 0.01 0.00 0.00 0.00 0.00 0.00 0.00 0.00 0.01 0.02 0.01 0.00 0.00 0.01 0.03 0.03 0.03 0.05 0.08 0.10 0.11 0.09 0.03 0.01 0.01 0.03 0.00 0.01 0.01 0.01 0.00 0.00 0.02
0.18 0.12 0.04 0.01 0.02 0.02 0.04 0.03 0.02 0.00 0.00 0.00 0.00 0.00 0.00 0.00 0.00 0.01 0.01 0.01 0.00 0.00 0.01 0.01 0.01 0.01 0.00 0.00 0.03 0.10 0.10 0.14 0.11 0.03 0.02 0.06 0.03 0.03 0.02 0.00 0.00 0.00 0.00
0.03 0.03 0.04 0.04 0.05 0.02 0.01 0.00 0.00 0.00 0.00 0.00 0.00 0.00 0.00 0.00 0.00 0.00 0.01 0.01 0.02 0.02 0.02 0.02 0.02 0.01 0.01 0.02 0.02 0.06 0.08 0.20 0.18 0.14 0.06 0.14 0.05 0.09 0.13 0.00 0.00 0.00 0.01

GFSMA_prec_precacc_045.txt.gz
Total_Precipitation_Accumulation
0.04 0.00 0.00 0.00 0.00 0.00 0.00 0.00 0.00 0.00 0.00 0.00 0.00 0.00 0.00 0.00 0.00 0.00 0.00 0.00 0.00 0.01 0.04 0.05 0.02 0.00 0.00 0.00 0.00 0.00 0.00 0.00 0.00 0.00 0.00 0.00 0.00 0.00 0.01 0.01 0.02 0.08 0.17
0.10 0.04 0.03 0.00 0.00 0.00 0.00 0.00 0.00 0.00 0.00 0.00 0.00 0.00 0.00 0.00 0.00 0.00 0.00 0.00 0.00 0.00 0.01 0.02 0.01 0.00 0.00 0.00 0.00 0.00 0.00 0.00 0.01 0.00 0.00 0.00 0.00 0.00 0.00 0.01 0.00 0.02 0.12
0.11 0.03 0.04 0.01 0.00 0.00 0.00 0.00 0.00 0.00 0.00 0.00 0.00 0.00 0.00 0.00 0.00 0.00 0.00 0.00 0.00 0.00 0.00 0.00 0.00 0.00 0.00 0.00 0.00 0.00 0.00 0.00 0.00 0.01 0.01 0.01 0.01 0.00 0.00 0.00 0.01 0.00 0.01
0.01 0.00 0.01 0.00 0.00 0.00 0.00 0.00 0.00 0.00 0.00 0.00 0.00 0.00 0.00 0.00 0.00 0.00 0.00 0.00 0.00 0.00 0.00 0.00 0.00 0.00 0.00 0.00 0.00 0.00 0.00 0.00 0.00 0.00 0.01 0.01 0.01 0.01 0.00 0.00 0.00 0.01 0.00
0.00 0.00 0.00 0.00 0.00 0.00 0.00 0.00 0.00 0.00 0.00 0.00 0.00 0.00 0.00 0.00 0.00 0.00 0.00 0.00 0.00 0.00 0.00 0.00 0.00 0.00 0.00 0.00 0.00 0.00 0.00 0.00 0.00 0.00 0.00 0.00 0.01 0.02 0.01 0.01 0.00 0.01 0.01
0.03 0.02 0.01 0.01 0.00 0.00 0.00 0.00 0.00 0.00 0.00 0.00 0.00 0.00 0.00 0.00 0.00 0.00 0.00 0.00 0.00 0.00 0.00 0.00 0.00 0.00 0.00 0.00 0.00 0.00 0.00 0.00 0.00 0.00 0.00 0.00 0.00 0.01 0.01 0.02 0.01 0.01 0.01
0.10 0.04 0.01 0.00 0.00 0.00 0.00 0.00 0.00 0.00 0.00 0.00 0.00 0.00 0.00 0.00 0.00 0.00 0.00 0.00 0.00 0.00 0.00 0.00 0.00 0.00 0.00 0.00 0.00 0.00 0.00 0.00 0.00 0.00 0.00 0.00 0.01 0.00 0.01 0.01 0.01 0.01 0.01
0.06 0.04 0.01 0.00 0.00 0.00 0.00 0.00 0.00 0.00 0.00 0.00 0.00 0.00 0.00 0.00 0.00 0.00 0.00 0.00 0.00 0.00 0.00 0.00 0.00 0.00 0.00 0.00 0.00 0.00 0.00 0.00 0.00 0.00 0.00 0.00 0.00 0.00 0.01 0.02 0.01 0.01 0.01
0.04 0.06 0.02 0.00 0.00 0.00 0.00 0.00 0.00 0.00 0.00 0.00 0.00 0.00 0.00 0.00 0.00 0.00 0.00 0.00 0.00 0.00 0.00 0.00 0.00 0.00 0.00 0.00 0.00 0.00 0.00 0.00 0.00 0.00 0.00 0.00 0.00 0.00 0.01 0.02 0.02 0.02 0.02
0.06 0.19 0.07 0.02 0.00 0.00 0.00 0.00 0.00 0.01 0.01 0.00 0.01 0.01 0.00 0.00 0.00 0.00 0.00 0.00 0.00 0.00 0.00 0.00 0.00 0.00 0.00 0.00 0.00 0.00 0.00 0.00 0.00 0.00 0.00 0.00 0.00 0.00 0.02 0.02 0.03 0.03 0.03
0.03 0.11 0.09 0.06 0.02 0.05 0.07 0.08 0.07 0.08 0.10 0.12 0.06 0.02 0.01 0.01 0.00 0.00 0.00 0.00 0.00 0.00 0.00 0.00 0.00 0.00 0.00 0.00 0.00 0.00 0.00 0.00 0.00 0.00 0.00 0.00 0.00 0.00 0.01 0.03 0.04 0.04 0.04
0.17 0.21 0.19 0.16 0.13 0.13 0.22 0.25 0.22 0.14 0.10 0.06 0.04 0.02 0.04 0.06 0.04 0.01 0.00 0.00 0.00 0.00 0.00 0.00 0.00 0.00 0.00 0.00 0.00 0.00 0.00 0.00 0.00 0.00 0.00 0.01 0.01 0.01 0.01 0.01 0.03 0.05 0.05
0.30 0.28 0.26 0.25 0.22 0.31 0.33 0.26 0.17 0.12 0.09 0.06 0.07 0.12 0.11 0.06 0.03 0.01 0.00 0.00 0.00 0.00 0.00 0.00 0.00 0.00 0.00 0.00 0.00 0.00 0.00 0.00 0.00 0.00 0.01 0.02 0.02 0.02 0.03 0.03 0.05 0.09 0.10
0.31 0.43 0.39 0.42 0.33 0.24 0.26 0.25 0.21 0.17 0.15 0.13 0.11 0.07 0.05 0.03 0.01 0.00 0.00 0.00 0.00 0.00 0.00 0.00 0.00 0.00 0.00 0.00 0.00 0.00 0.00 0.00 0.00 0.01 0.01 0.01 0.02 0.04 0.05 0.04 0.03 0.04 0.07
0.16 0.22 0.30 0.28 0.27 0.37 0.40 0.36 0.24 0.16 0.12 0.06 0.04 0.03 0.02 0.01 0.02 0.01 0.00 0.00 0.00 0.00 0.00 0.00 0.00 0.00 0.00 0.00 0.00 0.00 0.01 0.01 0.02 0.03 0.02 0.01 0.01 0.02 0.05 0.07 0.03 0.01 0.02
0.38 0.45 0.45 0.46 0.49 0.47 0.35 0.24 0.13 0.07 0.05 0.03 0.03 0.03 0.03 0.04 0.02 0.01 0.01 0.01 0.01 0.00 0.00 0.00 0.00 0.00 0.00 0.00 0.00 0.00 0.01 0.01 0.01 0.02 0.01 0.01 0.00 0.00 0.03 0.06 0.05 0.02 0.02
0.55 0.57 0.56 0.46 0.31 0.18 0.09 0.03 0.03 0.04 0.05 0.05 0.05 0.07 0.06 0.04 0.03 0.02 0.02 0.01 0.00 0.00 0.00 0.00 0.00 0.00 0.00 0.00 0.00 0.00 0.00 0.01 0.02 0.01 0.01 0.01 0.01 0.00 0.01 0.02 0.03 0.03 0.02
1.11 0.81 0.59 0.30 0.09 0.06 0.03 0.02 0.04 0.05 0.07 0.12 0.12 0.09 0.06 0.04 0.01 0.01 0.01 0.01 0.00 0.00 0.00 0.00 0.00 0.00 0.00 0.00 0.00 0.01 0.01 0.01 0.03 0.04 0.04 0.03 0.02 0.02 0.02 0.01 0.02 0.01 0.03
0.46 0.25 0.13 0.10 0.08 0.06 0.04 0.04 0.05 0.10 0.14 0.10 0.08 0.07 0.04 0.02 0.01 0.01 0.00 0.00 0.00 0.01 0.01 0.04 0.01 0.00 0.00 0.00 0.00 0.00 0.01 0.02 0.03 0.03 0.04 0.03 0.03 0.02 0.01 0.01 0.01 0.02 0.01
0.12 0.07 0.06 0.08 0.06 0.05 0.05 0.09 0.12 0.10 0.10 0.10 0.05 0.01 0.00 0.00 0.00 0.00 0.01 0.01 0.02 0.02 0.02 0.02 0.01 0.01 0.00 0.00 0.02 0.04 0.06 0.05 0.04 0.04 0.06 0.06 0.04 0.02 0.01 0.01 0.04 0.02 0.02
0.16 0.10 0.09 0.07 0.07 0.09 0.15 0.14 0.13 0.13 0.05 0.01 0.00 0.00 0.00 0.01 0.01 0.01 0.01 0.01 0.02 0.03 0.03 0.03 0.03 0.02 0.01 0.03 0.05 0.05 0.06 0.04 0.04 0.06 0.05 0.06 0.12 0.09 0.03 0.05 0.10 0.16 0.06
0.08 0.08 0.10 0.12 0.15 0.17 0.19 0.14 0.06 0.01 0.00 0.00 0.00 0.00 0.00 0.01 0.00 0.00 0.00 0.00 0.01 0.03 0.05 0.05 0.04 0.04 0.02 0.04 0.09 0.14 0.13 0.09 0.07 0.07 0.08 0.05 0.04 0.06 0.12 0.15 0.15 0.25 0.24
0.04 0.06 0.11 0.16 0.17 0.14 0.08 0.03 0.01 0.00 0.01 0.00 0.00 0.00 0.00 0.00 0.00 0.00 0.00 0.00 0.01 0.01 0.03 0.05 0.06 0.05 0.06 0.06 0.09 0.13 0.13 0.13 0.08 0.06 0.07 0.03 0.02 0.03 0.03 0.05 0.07 0.11 0.21
0.11 0.16 0.17 0.14 0.06 0.02 0.04 0.05 0.04 0.01 0.01 0.00 0.00 0.00 0.00 0.00 0.00 0.00 0.01 0.02 0.01 0.00 0.00 0.01 0.03 0.03 0.03 0.05 0.08 0.10 0.11 0.09 0.03 0.01 0.01 0.03 0.00 0.01 0.01 0.01 0.01 0.01 0.03
0.18 0.12 0.04 0.01 0.02 0.02 0.05 0.03 0.02 0.00 0.00 0.00 0.00 0.00 0.00 0.00 0.00 0.01 0.01 0.01 0.00 0.00 0.01 0.01 0.01 0.01 0.00 0.00 0.03 0.10 0.10 0.15 0.11 0.03 0.02 0.06 0.03 0.03 0.03 0.02 0.01 0.02 0.02
0.03 0.03 0.04 0.04 0.05 0.02 0.01 0.00 0.00 0.00 0.00 0.00 0.00 0.00 0.00 0.00 0.00 0.00 0.01 0.01 0.02 0.02 0.02 0.02 0.02 0.01 0.01 0.02 0.02 0.06 0.09 0.22 0.20 0.16 0.06 0.15 0.05 0.10 0.18 0.04 0.03 0.06 0.07

GFSMA_prec_precacc_048.txt.gz
Total_Precipitation_Accumulation
0.04 0.00 0.00 0.00 0.00 0.00 0.00 0.00 0.00 0.00 0.00 0.00 0.00 0.00 0.00 0.00 0.00 0.00 0.00 0.00 0.00 0.01 0.05 0.05 0.02 0.00 0.00 0.00 0.00 0.00 0.00 0.00 0.00 0.00 0.00 0.00 0.00 0.00 0.01 0.01 0.02 0.08 0.17
0.10 0.04 0.03 0.00 0.00 0.00 0.00 0.00 0.00 0.00 0.00 0.00 0.00 0.00 0.00 0.00 0.00 0.00 0.00 0.00 0.00 0.00 0.02 0.02 0.01 0.00 0.00 0.00 0.00 0.00 0.00 0.00 0.01 0.00 0.00 0.00 0.00 0.00 0.00 0.01 0.00 0.02 0.12
0.11 0.03 0.04 0.01 0.00 0.00 0.00 0.00 0.00 0.00 0.00 0.00 0.00 0.00 0.00 0.00 0.00 0.00 0.00 0.00 0.00 0.00 0.00 0.00 0.00 0.00 0.00 0.00 0.00 0.00 0.00 0.00 0.00 0.01 0.01 0.01 0.01 0.00 0.00 0.00 0.01 0.00 0.01
0.01 0.00 0.01 0.00 0.00 0.00 0.00 0.00 0.00 0.00 0.00 0.00 0.00 0.00 0.00 0.00 0.00 0.00 0.00 0.00 0.00 0.00 0.00 0.00 0.00 0.00 0.00 0.00 0.00 0.00 0.00 0.00 0.00 0.00 0.01 0.01 0.01 0.01 0.00 0.00 0.00 0.01 0.00
0.00 0.00 0.00 0.00 0.00 0.00 0.00 0.00 0.00 0.00 0.00 0.00 0.00 0.00 0.00 0.00 0.00 0.00 0.00 0.00 0.00 0.00 0.00 0.00 0.00 0.00 0.00 0.00 0.00 0.00 0.00 0.00 0.00 0.00 0.00 0.00 0.01 0.02 0.01 0.01 0.00 0.01 0.01
0.04 0.03 0.01 0.01 0.00 0.00 0.00 0.00 0.00 0.00 0.00 0.00 0.00 0.00 0.00 0.00 0.00 0.00 0.00 0.00 0.00 0.00 0.00 0.00 0.00 0.00 0.00 0.00 0.00 0.00 0.00 0.00 0.00 0.00 0.00 0.00 0.00 0.01 0.01 0.02 0.01 0.01 0.01
0.12 0.06 0.02 0.02 0.01 0.00 0.00 0.00 0.00 0.00 0.00 0.00 0.00 0.00 0.00 0.00 0.00 0.00 0.00 0.00 0.00 0.00 0.00 0.00 0.00 0.00 0.00 0.00 0.00 0.00 0.00 0.00 0.00 0.00 0.00 0.00 0.01 0.00 0.01 0.01 0.01 0.01 0.01
0.07 0.07 0.04 0.01 0.01 0.01 0.00 0.00 0.00 0.00 0.00 0.00 0.00 0.00 0.00 0.00 0.00 0.00 0.00 0.00 0.00 0.00 0.00 0.00 0.00 0.00 0.00 0.00 0.00 0.00 0.00 0.00 0.00 0.00 0.00 0.00 0.00 0.00 0.01 0.02 0.01 0.01 0.01
0.04 0.06 0.03 0.00 0.00 0.00 0.00 0.00 0.00 0.00 0.00 0.00 0.00 0.00 0.00 0.00 0.00 0.00 0.00 0.00 0.00 0.00 0.00 0.00 0.00 0.00 0.00 0.00 0.00 0.00 0.00 0.00 0.00 0.00 0.00 0.00 0.00 0.00 0.01 0.02 0.02 0.02 0.02
0.06 0.19 0.07 0.02 0.00 0.00 0.00 0.01 0.00 0.01 0.01 0.00 0.01 0.01 0.00 0.00 0.00 0.00 0.00 0.00 0.00 0.00 0.00 0.00 0.00 0.00 0.00 0.00 0.00 0.00 0.00 0.00 0.00 0.00 0.00 0.00 0.00 0.00 0.02 0.02 0.03 0.03 0.03
0.03 0.11 0.09 0.06 0.02 0.05 0.08 0.09 0.08 0.10 0.12 0.14 0.09 0.03 0.01 0.01 0.00 0.00 0.00 0.00 0.00 0.00 0.00 0.00 0.00 0.00 0.00 0.00 0.00 0.00 0.00 0.00 0.00 0.00 0.00 0.00 0.00 0.00 0.01 0.03 0.04 0.04 0.04
0.17 0.21 0.19 0.16 0.13 0.14 0.23 0.27 0.26 0.19 0.15 0.09 0.07 0.05 0.05 0.06 0.04 0.01 0.00 0.00 0.00 0.00 0.00 0.00 0.00 0.00 0.00 0.00 0.00 0.00 0.00 0.00 0.00 0.00 0.00 0.01 0.01 0.01 0.01 0.01 0.03 0.05 0.05
0.30 0.28 0.26 0.25 0.22 0.31 0.36 0.30 0.22 0.18 0.16 0.11 0.12 0.15 0.14 0.07 0.04 0.02 0.01 0.00 0.00 0.00 0.00 0.00 0.00 0.00 0.00 0.00 0.00 0.00 0.00 0.00 0.00 0.00 0.01 0.02 0.02 0.02 0.03 0.03 0.05 0.09 0.10
0.31 0.43 0.39 0.42 0.33 0.25 0.27 0.29 0.28 0.28 0.28 0.26 0.22 0.13 0.07 0.04 0.02 0.01 0.01 0.00 0.00 0.00 0.00 0.00 0.00 0.00 0.00 0.00 0.00 0.00 0.00 0.00 0.00 0.01 0.01 0.01 0.02 0.04 0.05 0.04 0.03 0.04 0.07
0.16 0.22 0.30 0.28 0.27 0.40 0.52 0.55 0.50 0.40 0.34 0.25 0.14 0.05 0.03 0.02 0.03 0.02 0.01 0.00 0.01 0.00 0.00 0.00 0.00 0.00 0.00 0.00 0.00 0.00 0.01 0.01 0.02 0.03 0.02 0.01 0.01 0.02 0.05 0.07 0.03 0.01 0.02
0.38 0.46 0.46 0.48 0.52 0.55 0.57 0.51 0.38 0.27 0.20 0.13 0.06 0.05 0.05 0.06 0.04 0.04 0.04 0.03 0.02 0.01 0.00 0.00 0.00 0.00 0.00 0.00 0.00 0.00 0.01 0.01 0.01 0.02 0.01 0.01 0.00 0.00 0.03 0.06 0.05 0.02 0.02
0.55 0.58 0.60 0.52 0.39 0.30 0.32 0.30 0.17 0.14 0.12 0.08 0.07 0.09 0.08 0.08 0.08 0.07 0.06 0.04 0.02 0.01 0.01 0.00 0.00 0.00 0.00 0.00 0.00 0.00 0.00 0.01 0.02 0.01 0.01 0.01 0.01 0.00 0.01 0.02 0.03 0.03 0.02
1.15 0.90 0.68 0.45 0.30 0.18 0.12 0.10 0.06 0.07 0.11 0.13 0.12 0.10 0.09 0.08 0.08 0.07 0.05 0.03 0.02 0.00 0.00 0.01 0.00 0.00 0.00 0.00 0.00 0.01 0.01 0.01 0.03 0.04 0.04 0.03 0.02 0.02 0.02 0.01 0.02 0.02 0.04
0.49 0.30 0.20 0.15 0.11 0.07 0.05 0.04 0.05 0.11 0.14 0.10 0.10 0.10 0.09 0.08 0.06 0.03 0.02 0.01 0.00 0.01 0.01 0.04 0.01 0.00 0.00 0.00 0.00 0.00 0.01 0.02 0.03 0.03 0.04 0.03 0.03 0.02 0.01 0.01 0.02 0.02 0.02
0.17 0.16 0.14 0.15 0.10 0.05 0.05 0.10 0.12 0.11 0.12 0.12 0.08 0.04 0.03 0.01 0.01 0.01 0.01 0.01 0.02 0.02 0.02 0.02 0.01 0.01 0.00 0.00 0.02 0.04 0.06 0.05 0.04 0.04 0.06 0.06 0.04 0.02 0.01 0.01 0.04 0.02 0.02
0.24 0.19 0.18 0.09 0.10 0.14 0.18 0.17 0.15 0.14 0.07 0.03 0.01 0.01 0.01 0.01 0.02 0.01 0.01 0.01 0.02 0.03 0.03 0.03 0.03 0.02 0.01 0.03 0.05 0.05 0.06 0.04 0.04 0.06 0.05 0.06 0.12 0.09 0.03 0.05 0.10 0.16 0.06
0.11 0.14 0.16 0.16 0.18 0.22 0.26 0.19 0.08 0.02 0.01 0.01 0.01 0.00 0.00 0.02 0.00 0.00 0.00 0.00 0.01 0.03 0.05 0.05 0.04 0.04 0.02 0.04 0.09 0.14 0.13 0.09 0.07 0.07 0.08 0.05 0.04 0.06 0.12 0.15 0.15 0.25 0.24
0.09 0.10 0.16 0.23 0.25 0.21 0.15 0.06 0.04 0.01 0.01 0.01 0.00 0.00 0.00 0.01 0.01 0.00 0.00 0.00 0.01 0.01 0.03 0.05 0.06 0.05 0.06 0.06 0.09 0.13 0.13 0.13 0.08 0.06 0.07 0.03 0.02 0.03 0.03 0.05 0.07 0.11 0.21
0.17 0.21 0.22 0.19 0.11 0.05 0.08 0.07 0.05 0.01 0.01 0.00 0.00 0.01 0.01 0.01 0.01 0.00 0.01 0.02 0.01 0.00 0.00 0.01 0.03 0.03 0.03 0.05 0.08 0.10 0.11 0.09 0.03 0.01 0.01 0.03 0.00 0.01 0.01 0.01 0.01 0.01 0.03
0.24 0.16 0.09 0.05 0.05 0.04 0.08 0.05 0.03 0.00 0.00 0.01 0.01 0.01 0.01 0.01 0.01 0.01 0.01 0.01 0.00 0.00 0.01 0.01 0.01 0.01 0.00 0.00 0.03 0.10 0.10 0.15 0.11 0.03 0.02 0.06 0.03 0.03 0.03 0.02 0.01 0.02 0.02
0.06 0.05 0.05 0.05 0.06 0.03 0.04 0.02 0.01 0.00 0.01 0.01 0.01 0.01 0.01 0.00 0.00 0.00 0.01 0.01 0.02 0.02 0.02 0.02 0.02 0.01 0.01 0.02 0.02 0.06 0.09 0.22 0.20 0.16 0.06 0.15 0.05 0.11 0.19 0.04 0.03 0.06 0.09

GFSMA_prec_precacc_051.txt.gz
Total_Precipitation_Accumulation
0.04 0.00 0.00 0.00 0.00 0.00 0.00 0.00 0.00 0.00 0.00 0.00 0.00 0.00 0.00 0.00 0.00 0.00 0.00 0.00 0.00 0.01 0.05 0.05 0.02 0.00 0.00 0.00 0.00 0.00 0.00 0.00 0.00 0.00 0.00 0.00 0.00 0.00 0.01 0.01 0.02 0.08 0.17
0.10 0.04 0.03 0.00 0.00 0.00 0.00 0.00 0.00 0.00 0.00 0.00 0.00 0.00 0.00 0.00 0.00 0.00 0.00 0.00 0.00 0.00 0.02 0.02 0.01 0.00 0.00 0.00 0.00 0.00 0.00 0.00 0.01 0.00 0.00 0.00 0.00 0.00 0.00 0.01 0.00 0.02 0.12
0.11 0.03 0.04 0.01 0.00 0.00 0.00 0.00 0.00 0.00 0.00 0.00 0.00 0.00 0.00 0.00 0.00 0.00 0.00 0.00 0.00 0.00 0.00 0.00 0.00 0.00 0.00 0.00 0.00 0.00 0.00 0.00 0.00 0.01 0.01 0.01 0.01 0.00 0.00 0.00 0.01 0.00 0.01
0.01 0.00 0.01 0.00 0.00 0.00 0.00 0.00 0.00 0.00 0.00 0.00 0.00 0.00 0.00 0.00 0.00 0.00 0.00 0.00 0.00 0.00 0.00 0.00 0.00 0.00 0.00 0.00 0.00 0.00 0.00 0.00 0.00 0.00 0.01 0.01 0.01 0.01 0.00 0.00 0.00 0.01 0.00
0.00 0.00 0.00 0.00 0.00 0.00 0.00 0.00 0.00 0.00 0.00 0.00 0.00 0.00 0.00 0.00 0.00 0.00 0.00 0.00 0.00 0.00 0.00 0.00 0.00 0.00 0.00 0.00 0.00 0.00 0.00 0.00 0.00 0.00 0.00 0.00 0.01 0.02 0.01 0.01 0.00 0.01 0.01
0.04 0.03 0.01 0.01 0.00 0.00 0.00 0.00 0.00 0.00 0.00 0.00 0.00 0.00 0.00 0.00 0.00 0.00 0.00 0.00 0.00 0.00 0.00 0.00 0.00 0.00 0.00 0.00 0.00 0.00 0.00 0.00 0.00 0.00 0.00 0.00 0.00 0.01 0.01 0.02 0.01 0.01 0.01
0.12 0.06 0.02 0.02 0.01 0.01 0.00 0.00 0.00 0.00 0.00 0.00 0.00 0.00 0.00 0.00 0.00 0.00 0.00 0.00 0.00 0.00 0.00 0.00 0.00 0.00 0.00 0.00 0.00 0.00 0.00 0.00 0.00 0.00 0.00 0.00 0.01 0.00 0.01 0.01 0.01 0.01 0.01
0.07 0.07 0.05 0.04 0.03 0.02 0.00 0.00 0.00 0.00 0.00 0.00 0.00 0.00 0.00 0.00 0.00 0.00 0.00 0.00 0.00 0.00 0.00 0.00 0.00 0.00 0.00 0.00 0.00 0.00 0.00 0.00 0.00 0.00 0.00 0.00 0.00 0.00 0.01 0.02 0.01 0.01 0.01
0.05 0.06 0.04 0.03 0.04 0.03 0.01 0.00 0.00 0.00 0.00 0.00 0.00 0.00 0.00 0.00 0.00 0.00 0.00 0.00 0.00 0.00 0.00 0.00 0.00 0.00 0.00 0.00 0.00 0.00 0.00 0.00 0.00 0.00 0.00 0.00 0.00 0.00 0.01 0.02 0.02 0.02 0.02
0.07 0.19 0.07 0.02 0.01 0.01 0.01 0.03 0.01 0.01 0.01 0.00 0.01 0.01 0.00 0.00 0.00 0.00 0.00 0.00 0.00 0.00 0.00 0.00 0.00 0.00 0.00 0.00 0.00 0.00 0.00 0.00 0.00 0.00 0.00 0.00 0.00 0.00 0.02 0.02 0.03 0.03 0.03
0.03 0.11 0.09 0.06 0.02 0.05 0.08 0.11 0.11 0.12 0.13 0.15 0.09 0.04 0.02 0.01 0.01 0.01 0.01 0.00 0.00 0.00 0.00 0.00 0.00 0.00 0.00 0.00 0.00 0.00 0.00 0.00 0.00 0.00 0.00 0.00 0.00 0.00 0.02 0.04 0.04 0.04 0.04
0.17 0.21 0.19 0.16 0.13 0.14 0.23 0.27 0.29 0.21 0.17 0.12 0.09 0.06 0.06 0.08 0.04 0.02 0.01 0.01 0.00 0.00 0.00 0.00 0.00 0.00 0.00 0.00 0.00 0.00 0.00 0.00 0.00 0.00 0.00 0.01 0.01 0.01 0.01 0.03 0.05 0.06 0.05
0.30 0.28 0.26 0.25 0.22 0.31 0.36 0.30 0.23 0.19 0.19 0.14 0.15 0.21 0.18 0.10 0.06 0.04 0.02 0.01 0.01 0.00 0.00 0.00 0.00 0.00 0.00 0.00 0.00 0.00 0.00 0.00 0.00 0.00 0.01 0.02 0.02 0.02 0.03 0.03 0.06 0.10 0.12
0.31 0.43 0.39 0.42 0.33 0.25 0.27 0.29 0.28 0.28 0.29 0.29 0.30 0.26 0.24 0.18 0.13 0.10 0.04 0.02 0.02 0.01 0.00 0.00 0.00 0.00 0.00 0.00 0.00 0.00 0.00 0.00 0.00 0.01 0.01 0.01 0.02 0.04 0.05 0.04 0.04 0.05 0.08
0.16 0.22 0.30 0.28 0.27 0.40 0.52 0.55 0.50 0.40 0.36 0.29 0.23 0.18 0.13 0.10 0.09 0.06 0.03 0.02 0.04 0.05 0.03 0.01 0.00 0.00 0.00 0.00 0.00 0.00 0.01 0.01 0.02 0.03 0.02 0.01 0.01 0.02 0.05 0.07 0.03 0.02 0.03
0.38 0.46 0.46 0.48 0.52 0.55 0.57 0.51 0.40 0.30 0.25 0.19 0.15 0.13 0.11 0.10 0.08 0.07 0.07 0.06 0.04 0.04 0.03 0.00 0.00 0.00 0.00 0.00 0.00 0.00 0.01 0.01 0.01 0.02 0.01 0.01 0.00 0.00 0.03 0.06 0.05 0.02 0.02
0.55 0.58 0.60 0.52 0.39 0.30 0.33 0.38 0.42 0.47 0.46 0.39 0.34 0.27 0.18 0.16 0.13 0.11 0.09 0.06 0.04 0.02 0.02 0.01 0.00 0.00 0.00 0.00 0.00 0.00 0.00 0.01 0.02 0.01 0.01 0.01 0.01 0.00 0.01 0.02 0.03 0.03 0.02
1.15 0.90 0.68 0.45 0.30 0.19 0.13 0.13 0.19 0.21 0.24 0.27 0.24 0.19 0.15 0.14 0.11 0.09 0.07 0.05 0.03 0.02 0.01 0.02 0.01 0.00 0.00 0.00 0.00 0.01 0.01 0.01 0.03 0.04 0.04 0.03 0.02 0.02 0.02 0.01 0.02 0.02 0.04
0.49 0.30 0.20 0.15 0.11 0.07 0.05 0.05 0.09 0.20 0.27 0.17 0.12 0.12 0.10 0.10 0.08 0.04 0.03 0.02 0.02 0.02 0.02 0.04 0.01 0.00 0.00 0.00 0.00 0.00 0.01 0.02 0.03 0.03 0.04 0.03 0.03 0.02 0.01 0.01 0.02 0.02 0.02
0.17 0.16 0.15 0.16 0.12 0.06 0.05 0.10 0.12 0.11 0.12 0.12 0.08 0.04 0.04 0.03 0.02 0.03 0.04 0.04 0.03 0.03 0.02 0.02 0.01 0.01 0.00 0.00 0.02 0.04 0.06 0.05 0.04 0.04 0.06 0.06 0.04 0.02 0.01 0.01 0.04 0.02 0.02
0.25 0.21 0.21 0.12 0.12 0.16 0.19 0.20 0.16 0.15 0.08 0.04 0.02 0.02 0.03 0.05 0.06 0.03 0.02 0.01 0.02 0.03 0.03 0.03 0.03 0.02 0.01 0.03 0.05 0.05 0.06 0.04 0.04 0.06 0.05 0.06 0.12 0.09 0.03 0.05 0.10 0.16 0.06
0.13 0.18 0.22 0.24 0.25 0.27 0.35 0.30 0.16 0.06 0.03 0.03 0.03 0.02 0.04 0.06 0.02 0.02 0.01 0.01 0.01 0.03 0.05 0.05 0.04 0.04 0.02 0.04 0.09 0.14 0.13 0.09 0.07 0.07 0.08 0.05 0.04 0.06 0.12 0.15 0.15 0.25 0.24
0.10 0.13 0.18 0.28 0.32 0.29 0.29 0.15 0.13 0.06 0.07 0.06 0.03 0.02 0.01 0.01 0.02 0.00 0.01 0.01 0.01 0.01 0.03 0.05 0.06 0.05 0.06 0.06 0.09 0.13 0.13 0.13 0.08 0.06 0.07 0.03 0.02 0.03 0.03 0.05 0.07 0.11 0.21
0.20 0.23 0.25 0.23 0.14 0.10 0.17 0.14 0.10 0.03 0.03 0.02 0.02 0.02 0.01 0.01 0.01 0.01 0.02 0.02 0.01 0.01 0.01 0.01 0.03 0.03 0.03 0.05 0.08 0.10 0.11 0.09 0.03 0.01 0.01 0.03 0.00 0.01 0.01 0.01 0.01 0.01 0.03
0.27 0.22 0.13 0.09 0.08 0.09 0.15 0.08 0.06 0.01 0.01 0.02 0.01 0.01 0.01 0.01 0.03 0.03 0.02 0.01 0.00 0.00 0.01 0.01 0.01 0.01 0.00 0.00 0.03 0.10 0.10 0.15 0.11 0.03 0.02 0.06 0.03 0.03 0.03 0.02 0.01 0.02 0.02
0.09 0.08 0.09 0.08 0.11 0.06 0.09 0.05 0.03 0.00 0.01 0.01 0.01 0.02 0.03 0.02 0.02 0.01 0.01 0.01 0.02 0.02 0.02 0.02 0.02 0.01 0.01 0.02 0.02 0.06 0.09 0.22 0.20 0.16 0.06 0.15 0.05 0.11 0.20 0.04 0.03 0.06 0.09

GFSMA_prec_precacc_057.txt.gz
Total_Precipitation_Accumulation
0.05 0.01 0.01 0.01 0.00 0.00 0.00 0.00 0.00 0.00 0.00 0.00 0.00 0.00 0.00 0.00 0.00 0.00 0.00 0.00 0.00 0.01 0.05 0.05 0.02 0.00 0.00 0.00 0.00 0.00 0.00 0.00 0.00 0.00 0.00 0.00 0.00 0.00 0.01 0.01 0.02 0.08 0.17
0.12 0.05 0.04 0.01 0.00 0.00 0.00 0.00 0.00 0.00 0.00 0.00 0.00 0.00 0.00 0.00 0.00 0.00 0.00 0.00 0.00 0.01 0.02 0.02 0.01 0.00 0.00 0.00 0.00 0.00 0.00 0.00 0.01 0.00 0.00 0.00 0.00 0.00 0.00 0.01 0.00 0.02 0.12
0.11 0.03 0.04 0.01 0.00 0.00 0.00 0.00 0.00 0.00 0.00 0.00 0.00 0.00 0.00 0.00 0.00 0.00 0.00 0.00 0.00 0.00 0.01 0.01 0.00 0.00 0.00 0.00 0.00 0.00 0.00 0.00 0.00 0.01 0.01 0.01 0.01 0.00 0.00 0.00 0.01 0.00 0.01
0.01 0.00 0.01 0.00 0.00 0.00 0.00 0.00 0.00 0.00 0.00 0.00 0.00 0.00 0.00 0.00 0.00 0.00 0.00 0.00 0.00 0.00 0.00 0.01 0.00 0.00 0.00 0.00 0.00 0.00 0.00 0.00 0.00 0.00 0.01 0.01 0.01 0.01 0.00 0.00 0.00 0.01 0.00
0.00 0.00 0.00 0.00 0.00 0.00 0.00 0.00 0.00 0.00 0.00 0.00 0.00 0.00 0.00 0.00 0.00 0.00 0.00 0.00 0.00 0.00 0.00 0.00 0.00 0.00 0.00 0.00 0.00 0.00 0.00 0.00 0.00 0.00 0.00 0.00 0.01 0.02 0.01 0.01 0.00 0.01 0.01
0.04 0.03 0.01 0.01 0.00 0.00 0.00 0.00 0.00 0.00 0.00 0.00 0.00 0.00 0.00 0.00 0.00 0.00 0.00 0.00 0.00 0.00 0.00 0.00 0.00 0.00 0.00 0.00 0.00 0.00 0.00 0.00 0.00 0.00 0.00 0.00 0.00 0.01 0.01 0.02 0.01 0.01 0.01
0.12 0.06 0.02 0.02 0.01 0.01 0.01 0.01 0.00 0.00 0.00 0.00 0.00 0.00 0.00 0.00 0.00 0.00 0.00 0.00 0.00 0.00 0.00 0.00 0.01 0.00 0.00 0.00 0.00 0.00 0.00 0.00 0.00 0.00 0.00 0.00 0.01 0.00 0.01 0.01 0.01 0.01 0.01
0.07 0.07 0.05 0.04 0.03 0.02 0.00 0.01 0.00 0.00 0.00 0.00 0.00 0.00 0.00 0.00 0.00 0.00 0.00 0.00 0.00 0.00 0.00 0.00 0.00 0.00 0.00 0.00 0.00 0.00 0.00 0.00 0.00 0.00 0.00 0.00 0.00 0.00 0.01 0.02 0.01 0.01 0.01
0.05 0.06 0.04 0.03 0.04 0.03 0.01 0.00 0.00 0.00 0.00 0.00 0.00 0.00 0.00 0.00 0.00 0.00 0.00 0.00 0.00 0.00 0.00 0.00 0.00 0.00 0.00 0.00 0.00 0.00 0.00 0.00 0.00 0.00 0.00 0.00 0.00 0.00 0.01 0.02 0.02 0.02 0.02
0.09 0.19 0.07 0.02 0.01 0.01 0.01 0.03 0.02 0.02 0.01 0.01 0.01 0.01 0.00 0.00 0.01 0.03 0.01 0.00 0.00 0.00 0.00 0.00 0.00 0.00 0.00 0.00 0.00 0.00 0.00 0.00 0.00 0.00 0.00 0.00 0.00 0.01 0.02 0.03 0.03 0.03 0.03
0.07 0.12 0.09 0.06 0.04 0.06 0.09 0.11 0.11 0.12 0.14 0.19 0.13 0.04 0.02 0.01 0.01 0.03 0.06 0.04 0.01 0.00 0.00 0.00 0.00 0.00 0.00 0.00 0.00 0.00 0.00 0.00 0.00 0.00 0.00 0.00 0.00 0.00 0.03 0.05 0.08 0.06 0.06
0.20 0.24 0.20 0.16 0.17 0.21 0.29 0.34 0.39 0.26 0.19 0.18 0.21 0.12 0.13 0.12 0.07 0.05 0.03 0.04 0.07 0.04 0.02 0.03 0.04 0.03 0.02 0.01 0.00 0.00 0.00 0.00 0.00 0.00 0.00 0.01 0.01 0.01 0.01 0.03 0.07 0.10 0.11
0.30 0.29 0.26 0.25 0.23 0.33 0.40 0.36 0.35 0.30 0.28 0.23 0.23 0.31 0.25 0.13 0.08 0.07 0.07 0.06 0.09 0.07 0.06 0.04 0.03 0.04 0.04 0.04 0.03 0.01 0.00 0.00 0.00 0.00 0.01 0.02 0.02 0.02 0.03 0.03 0.06 0.11 0.13
0.31 0.43 0.39 0.42 0.33 0.25 0.27 0.30 0.30 0.31 0.32 0.32 0.31 0.29 0.27 0.21 0.17 0.19 0.24 0.29 0.28 0.19 0.12 0.07 0.05 0.09 0.09 0.08 0.04 0.01 0.01 0.00 0.00 0.01 0.01 0.01 0.02 0.04 0.05 0.04 0.04 0.05 0.08
0.16 0.22 0.30 0.28 0.27 0.40 0.52 0.56 0.50 0.41 0.37 0.29 0.23 0.18 0.14 0.10 0.12 0.13 0.13 0.14 0.18 0.24 0.16 0.09 0.11 0.10 0.11 0.09 0.06 0.02 0.02 0.01 0.02 0.03 0.02 0.01 0.01 0.02 0.05 0.07 0.03 0.02 0.03
0.38 0.46 0.46 0.48 0.52 0.55 0.57 0.51 0.40 0.30 0.25 0.20 0.15 0.14 0.14 0.15 0.15 0.17 0.16 0.16 0.19 0.29 0.30 0.15 0.09 0.07 0.07 0.10 0.08 0.05 0.01 0.01 0.01 0.02 0.01 0.01 0.00 0.00 0.03 0.06 0.05 0.02 0.02
0.55 0.58 0.60 0.52 0.39 0.30 0.33 0.38 0.42 0.47 0.46 0.39 0.35 0.31 0.25 0.26 0.28 0.26 0.27 0.26 0.24 0.26 0.29 0.16 0.08 0.06 0.08 0.09 0.05 0.02 0.01 0.01 0.02 0.01 0.01 0.01 0.01 0.00 0.01 0.02 0.03 0.03 0.02
1.15 0.90 0.68 0.45 0.30 0.19 0.13 0.13 0.19 0.21 0.24 0.29 0.29 0.30 0.27 0.31 0.37 0.32 0.25 0.18 0.14 0.11 0.12 0.09 0.06 0.05 0.05 0.05 0.02 0.01 0.01 0.01 0.03 0.04 0.04 0.03 0.02 0.02 0.02 0.01 0.02 0.02 0.04
0.49 0.30 0.20 0.15 0.11 0.07 0.05 0.05 0.09 0.20 0.27 0.20 0.18 0.18 0.14 0.13 0.10 0.07 0.07 0.07 0.08 0.09 0.12 0.16 0.10 0.05 0.03 0.01 0.00 0.00 0.01 0.02 0.03 0.03 0.04 0.03 0.03 0.02 0.01 0.01 0.02 0.02 0.02
0.17 0.16 0.15 0.16 0.12 0.06 0.05 0.10 0.12 0.11 0.13 0.13 0.09 0.06 0.07 0.05 0.05 0.06 0.08 0.07 0.07 0.08 0.07 0.09 0.06 0.03 0.02 0.01 0.02 0.04 0.06 0.05 0.04 0.04 0.06 0.06 0.04 0.02 0.01 0.01 0.04 0.02 0.02
0.25 0.21 0.21 0.12 0.12 0.16 0.19 0.20 0.16 0.15 0.08 0.05 0.03 0.03 0.04 0.08 0.09 0.05 0.03 0.02 0.03 0.04 0.05 0.05 0.05 0.03 0.02 0.03 0.06 0.05 0.06 0.04 0.04 0.06 0.05 0.06 0.12 0.09 0.03 0.05 0.10 0.16 0.06
0.13 0.18 0.22 0.24 0.25 0.28 0.37 0.33 0.18 0.08 0.05 0.05 0.04 0.05 0.06 0.11 0.06 0.07 0.05 0.04 0.03 0.04 0.06 0.07 0.07 0.06 0.03 0.04 0.09 0.14 0.13 0.09 0.07 0.07 0.08 0.05 0.04 0.06 0.12 0.15 0.15 0.25 0.24
0.10 0.13 0.18 0.28 0.33 0.31 0.32 0.21 0.19 0.09 0.10 0.11 0.07 0.07 0.06 0.08 0.14 0.04 0.09 0.08 0.06 0.06 0.07 0.07 0.08 0.06 0.06 0.06 0.09 0.13 0.13 0.13 0.08 0.06 0.07 0.03 0.02 0.03 0.03 0.05 0.07 0.11 0.21
0.20 0.24 0.26 0.24 0.16 0.13 0.22 0.20 0.19 0.07 0.06 0.06 0.06 0.06 0.06 0.07 0.11 0.12 0.08 0.08 0.07 0.09 0.10 0.11 0.13 0.07 0.03 0.05 0.08 0.10 0.11 0.09 0.03 0.01 0.01 0.03 0.00 0.01 0.01 0.01 0.01 0.01 0.03
0.27 0.22 0.13 0.11 0.11 0.14 0.26 0.17 0.12 0.04 0.06 0.09 0.06 0.07 0.10 0.07 0.22 0.18 0.11 0.12 0.13 0.11 0.07 0.05 0.03 0.01 0.01 0.01 0.03 0.10 0.10 0.15 0.11 0.03 0.02 0.06 0.03 0.03 0.03 0.02 0.01 0.02 0.02
0.09 0.08 0.10 0.10 0.18 0.10 0.26 0.17 0.11 0.02 0.05 0.06 0.05 0.09 0.17 0.10 0.14 0.08 0.04 0.04 0.05 0.06 0.05 0.04 0.03 0.02 0.01 0.02 0.02 0.07 0.09 0.22 0.20 0.16 0.06 0.15 0.05 0.11 0.20 0.04 0.03 0.06 0.09

GFSMA_prec_precacc_060.txt.gz
Total_Precipitation_Accumulation
0.13 0.10 0.02 0.01 0.00 0.00 0.00 0.00 0.00 0.00 0.00 0.00 0.00 0.00 0.00 0.00 0.00 0.00 0.00 0.00 0.00 0.01 0.05 0.05 0.02 0.00 0.00 0.00 0.00 0.00 0.00 0.00 0.00 0.00 0.00 0.00 0.00 0.00 0.01 0.01 0.02 0.08 0.17
0.17 0.12 0.04 0.02 0.00 0.00 0.00 0.00 0.00 0.00 0.00 0.00 0.00 0.00 0.00 0.00 0.00 0.00 0.00 0.00 0.00 0.01 0.03 0.02 0.01 0.00 0.00 0.00 0.00 0.00 0.00 0.00 0.01 0.00 0.00 0.00 0.00 0.00 0.00 0.01 0.00 0.02 0.12
0.14 0.06 0.04 0.01 0.00 0.00 0.00 0.00 0.00 0.00 0.00 0.00 0.00 0.00 0.00 0.00 0.00 0.00 0.00 0.00 0.00 0.00 0.01 0.01 0.00 0.00 0.00 0.00 0.00 0.00 0.00 0.00 0.00 0.01 0.01 0.01 0.01 0.00 0.00 0.00 0.01 0.00 0.01
0.03 0.03 0.02 0.01 0.00 0.00 0.00 0.00 0.00 0.00 0.00 0.00 0.00 0.00 0.00 0.00 0.00 0.00 0.00 0.00 0.00 0.00 0.00 0.01 0.00 0.00 0.00 0.00 0.00 0.00 0.00 0.00 0.00 0.00 0.01 0.01 0.01 0.01 0.00 0.00 0.00 0.01 0.00
0.01 0.03 0.08 0.05 0.01 0.01 0.00 0.00 0.00 0.00 0.00 0.00 0.00 0.00 0.00 0.00 0.00 0.00 0.00 0.00 0.00 0.00 0.00 0.00 0.00 0.00 0.00 0.00 0.00 0.00 0.00 0.00 0.00 0.00 0.00 0.00 0.01 0.02 0.01 0.01 0.00 0.01 0.01
0.04 0.04 0.01 0.02 0.01 0.00 0.00 0.00 0.00 0.00 0.00 0.00 0.00 0.00 0.00 0.00 0.00 0.00 0.00 0.00 0.00 0.00 0.00 0.00 0.00 0.00 0.00 0.00 0.00 0.00 0.00 0.00 0.00 0.00 0.00 0.00 0.00 0.01 0.01 0.02 0.01 0.01 0.01
0.12 0.06 0.02 0.02 0.01 0.01 0.01 0.01 0.00 0.00 0.00 0.00 0.00 0.00 0.00 0.00 0.00 0.00 0.00 0.00 0.00 0.00 0.00 0.00 0.01 0.00 0.00 0.00 0.00 0.00 0.00 0.00 0.00 0.00 0.00 0.00 0.01 0.00 0.01 0.01 0.01 0.01 0.01
0.07 0.07 0.05 0.04 0.03 0.02 0.00 0.01 0.00 0.00 0.00 0.00 0.00 0.00 0.00 0.00 0.00 0.00 0.00 0.00 0.00 0.00 0.00 0.00 0.00 0.00 0.00 0.00 0.00 0.00 0.00 0.00 0.00 0.00 0.00 0.00 0.00 0.00 0.01 0.02 0.01 0.01 0.01
0.05 0.06 0.04 0.03 0.04 0.03 0.01 0.00 0.00 0.00 0.00 0.00 0.00 0.00 0.00 0.00 0.00 0.00 0.00 0.00 0.00 0.00 0.00 0.00 0.00 0.00 0.00 0.00 0.00 0.00 0.00 0.00 0.00 0.00 0.00 0.00 0.00 0.00 0.01 0.02 0.02 0.02 0.02
0.10 0.19 0.07 0.02 0.01 0.01 0.02 0.04 0.02 0.02 0.02 0.01 0.01 0.01 0.00 0.03 0.09 0.08 0.01 0.00 0.00 0.00 0.00 0.00 0.00 0.00 0.00 0.00 0.00 0.00 0.00 0.00 0.00 0.00 0.00 0.00 0.00 0.01 0.02 0.03 0.03 0.03 0.03
0.08 0.12 0.09 0.06 0.04 0.06 0.09 0.15 0.12 0.13 0.14 0.21 0.14 0.04 0.02 0.01 0.01 0.10 0.10 0.05 0.01 0.00 0.00 0.00 0.00 0.00 0.00 0.00 0.00 0.00 0.00 0.00 0.00 0.00 0.00 0.00 0.00 0.01 0.04 0.07 0.10 0.08 0.08
0.20 0.25 0.20 0.17 0.18 0.22 0.30 0.36 0.40 0.26 0.19 0.19 0.27 0.16 0.16 0.14 0.08 0.06 0.05 0.06 0.10 0.05 0.02 0.03 0.04 0.03 0.02 0.01 0.00 0.00 0.00 0.00 0.00 0.00 0.00 0.01 0.01 0.01 0.01 0.03 0.07 0.10 0.12
0.31 0.30 0.28 0.26 0.24 0.34 0.40 0.36 0.36 0.32 0.33 0.29 0.30 0.34 0.29 0.17 0.10 0.10 0.13 0.08 0.12 0.10 0.06 0.04 0.03 0.04 0.04 0.05 0.04 0.03 0.01 0.00 0.00 0.00 0.01 0.02 0.02 0.02 0.03 0.03 0.06 0.11 0.13
0.31 0.43 0.40 0.42 0.34 0.25 0.28 0.31 0.31 0.31 0.34 0.36 0.37 0.32 0.28 0.22 0.18 0.20 0.26 0.33 0.30 0.20 0.12 0.07 0.05 0.09 0.09 0.08 0.05 0.03 0.03 0.02 0.01 0.01 0.01 0.01 0.02 0.04 0.05 0.04 0.04 0.05 0.08
0.16 0.22 0.30 0.29 0.28 0.41 0.53 0.57 0.52 0.43 0.41 0.30 0.24 0.20 0.16 0.11 0.15 0.15 0.14 0.17 0.20 0.25 0.16 0.09 0.11 0.10 0.11 0.09 0.07 0.05 0.05 0.04 0.04 0.04 0.02 0.01 0.01 0.02 0.05 0.07 0.03 0.02 0.03
0.38 0.46 0.46 0.49 0.55 0.57 0.58 0.52 0.41 0.31 0.28 0.22 0.16 0.15 0.15 0.16 0.16 0.18 0.19 0.18 0.22 0.30 0.30 0.15 0.09 0.07 0.08 0.10 0.10 0.10 0.08 0.06 0.02 0.02 0.02 0.01 0.00 0.00 0.03 0.06 0.05 0.02 0.02
0.55 0.58 0.60 0.52 0.39 0.31 0.33 0.38 0.42 0.47 0.46 0.39 0.35 0.31 0.25 0.28 0.30 0.28 0.28 0.27 0.25 0.26 0.29 0.16 0.08 0.06 0.08 0.09 0.07 0.06 0.04 0.03 0.03 0.02 0.02 0.02 0.01 0.00 0.01 0.02 0.03 0.03 0.02
1.15 0.90 0.68 0.45 0.30 0.19 0.13 0.13 0.19 0.21 0.24 0.29 0.29 0.30 0.27 0.32 0.39 0.34 0.27 0.20 0.14 0.12 0.13 0.09 0.06 0.06 0.05 0.05 0.04 0.03 0.02 0.01 0.03 0.04 0.04 0.03 0.02 0.02 0.02 0.01 0.02 0.02 0.04
0.49 0.30 0.20 0.15 0.11 0.07 0.05 0.05 0.09 0.20 0.27 0.20 0.18 0.18 0.15 0.14 0.12 0.10 0.10 0.09 0.09 0.10 0.12 0.16 0.12 0.07 0.06 0.03 0.03 0.02 0.02 0.02 0.03 0.03 0.04 0.04 0.03 0.02 0.01 0.01 0.02 0.02 0.02
0.17 0.16 0.15 0.16 0.12 0.06 0.05 0.10 0.12 0.11 0.13 0.13 0.09 0.06 0.07 0.07 0.07 0.07 0.10 0.10 0.10 0.09 0.09 0.10 0.09 0.05 0.03 0.02 0.04 0.06 0.07 0.06 0.05 0.04 0.06 0.06 0.04 0.02 0.01 0.01 0.04 0.02 0.02
0.25 0.21 0.21 0.12 0.12 0.16 0.19 0.20 0.16 0.15 0.08 0.05 0.03 0.03 0.04 0.08 0.09 0.06 0.04 0.04 0.05 0.08 0.10 0.08 0.07 0.05 0.04 0.06 0.09 0.11 0.12 0.09 0.08 0.06 0.05 0.06 0.12 0.09 0.03 0.05 0.10 0.16 0.06
0.13 0.18 0.22 0.24 0.25 0.28 0.37 0.33 0.18 0.08 0.05 0.05 0.04 0.05 0.06 0.11 0.06 0.09 0.10 0.10 0.09 0.10 0.12 0.13 0.10 0.07 0.08 0.12 0.20 0.26 0.22 0.16 0.13 0.08 0.08 0.05 0.04 0.06 0.12 0.15 0.15 0.25 0.24
0.10 0.13 0.19 0.28 0.33 0.31 0.32 0.21 0.19 0.09 0.10 0.11 0.08 0.07 0.06 0.09 0.15 0.06 0.15 0.16 0.14 0.17 0.16 0.13 0.15 0.19 0.26 0.26 0.28 0.30 0.22 0.16 0.10 0.06 0.07 0.03 0.02 0.03 0.03 0.05 0.07 0.11 0.21
0.20 0.24 0.26 0.25 0.16 0.13 0.23 0.20 0.19 0.08 0.06 0.06 0.07 0.07 0.07 0.08 0.14 0.16 0.13 0.19 0.21 0.25 0.28 0.30 0.33 0.35 0.31 0.23 0.17 0.15 0.12 0.10 0.03 0.01 0.01 0.03 0.00 0.01 0.01 0.01 0.01 0.01 0.03
0.27 0.22 0.13 0.11 0.11 0.14 0.26 0.17 0.13 0.04 0.07 0.10 0.08 0.11 0.16 0.13 0.37 0.30 0.18 0.21 0.24 0.24 0.25 0.19 0.14 0.10 0.07 0.05 0.05 0.12 0.12 0.16 0.12 0.04 0.02 0.06 0.03 0.03 0.03 0.02 0.01 0.02 0.02
0.09 0.08 0.10 0.10 0.18 0.10 0.27 0.19 0.13 0.03 0.09 0.11 0.11 0.17 0.31 0.17 0.27 0.15 0.09 0.06 0.11 0.13 0.13 0.12 0.09 0.06 0.05 0.04 0.05 0.09 0.11 0.23 0.20 0.16 0.06 0.15 0.05 0.11 0.20 0.04 0.03 0.06 0.09

GFSMA_prec_precacc_063.txt.gz
Total_Precipitation_Accumulation
0.14 0.16 0.03 0.01 0.00 0.00 0.00 0.00 0.00 0.00 0.00 0.00 0.00 0.00 0.00 0.00 0.00 0.00 0.00 0.00 0.00 0.01 0.05 0.05 0.02 0.00 0.00 0.00 0.00 0.00 0.00 0.00 0.00 0.00 0.00 0.00 0.00 0.00 0.01 0.01 0.02 0.08 0.17
0.17 0.14 0.05 0.02 0.00 0.00 0.00 0.00 0.00 0.00 0.00 0.00 0.00 0.00 0.00 0.00 0.00 0.00 0.00 0.00 0.00 0.01 0.03 0.02 0.01 0.00 0.00 0.00 0.00 0.00 0.00 0.00 0.01 0.00 0.00 0.00 0.00 0.00 0.00 0.01 0.00 0.02 0.12
0.14 0.08 0.04 0.01 0.00 0.00 0.00 0.00 0.00 0.00 0.00 0.00 0.00 0.00 0.00 0.00 0.00 0.00 0.00 0.00 0.00 0.00 0.01 0.01 0.00 0.00 0.00 0.00 0.00 0.00 0.00 0.00 0.00 0.01 0.01 0.01 0.01 0.00 0.00 0.00 0.01 0.00 0.01
0.03 0.04 0.03 0.02 0.00 0.00 0.00 0.00 0.00 0.00 0.00 0.00 0.00 0.00 0.00 0.00 0.00 0.00 0.00 0.00 0.00 0.00 0.00 0.01 0.00 0.00 0.00 0.00 0.00 0.00 0.00 0.00 0.00 0.00 0.01 0.01 0.01 0.01 0.00 0.00 0.00 0.01 0.00
0.01 0.05 0.11 0.08 0.02 0.02 0.00 0.00 0.00 0.00 0.00 0.00 0.00 0.00 0.00 0.00 0.00 0.00 0.00 0.00 0.00 0.00 0.00 0.00 0.00 0.00 0.00 0.00 0.00 0.00 0.00 0.00 0.00 0.00 0.00 0.00 0.01 0.02 0.01 0.01 0.00 0.01 0.01
0.04 0.04 0.02 0.05 0.03 0.03 0.00 0.00 0.00 0.00 0.00 0.00 0.00 0.00 0.00 0.00 0.00 0.00 0.00 0.00 0.00 0.00 0.00 0.00 0.00 0.00 0.00 0.00 0.00 0.00 0.00 0.00 0.00 0.00 0.00 0.00 0.00 0.01 0.01 0.02 0.01 0.01 0.01
0.12 0.07 0.02 0.03 0.02 0.04 0.01 0.01 0.00 0.00 0.00 0.00 0.00 0.00 0.00 0.00 0.00 0.00 0.00 0.00 0.00 0.00 0.00 0.00 0.01 0.00 0.00 0.00 0.00 0.00 0.00 0.00 0.00 0.00 0.00 0.00 0.01 0.00 0.01 0.01 0.01 0.01 0.01
0.07 0.07 0.05 0.04 0.04 0.04 0.02 0.01 0.00 0.00 0.00 0.00 0.00 0.00 0.00 0.00 0.00 0.00 0.00 0.00 0.00 0.00 0.00 0.00 0.00 0.00 0.00 0.00 0.00 0.00 0.00 0.00 0.00 0.00 0.00 0.00 0.00 0.00 0.01 0.02 0.01 0.01 0.01
0.05 0.06 0.04 0.03 0.04 0.03 0.01 0.00 0.00 0.00 0.00 0.00 0.00 0.00 0.00 0.00 0.00 0.00 0.00 0.00 0.00 0.00 0.00 0.00 0.00 0.00 0.00 0.00 0.00 0.00 0.00 0.00 0.00 0.00 0.00 0.00 0.00 0.00 0.01 0.02 0.02 0.02 0.02
0.10 0.19 0.07 0.02 0.01 0.01 0.02 0.04 0.02 0.02 0.02 0.01 0.01 0.01 0.00 0.03 0.10 0.09 0.01 0.00 0.00 0.00 0.00 0.00 0.00 0.00 0.00 0.00 0.00 0.00 0.00 0.00 0.00 0.00 0.00 0.00 0.00 0.01 0.02 0.03 0.03 0.03 0.03
0.08 0.12 0.09 0.06 0.04 0.06 0.09 0.16 0.13 0.13 0.14 0.21 0.14 0.04 0.02 0.01 0.02 0.13 0.11 0.05 0.01 0.00 0.00 0.00 0.00 0.00 0.00 0.00 0.00 0.00 0.00 0.00 0.00 0.00 0.00 0.00 0.00 0.01 0.04 0.07 0.10 0.09 0.09
0.21 0.25 0.20 0.17 0.18 0.22 0.30 0.36 0.43 0.27 0.19 0.19 0.29 0.16 0.17 0.14 0.08 0.06 0.05 0.06 0.10 0.05 0.02 0.03 0.04 0.03 0.02 0.01 0.00 0.00 0.00 0.00 0.00 0.00 0.00 0.01 0.01 0.01 0.01 0.04 0.08 0.11 0.14
0.31 0.30 0.28 0.26 0.24 0.34 0.40 0.36 0.38 0.33 0.33 0.29 0.31 0.34 0.31 0.21 0.13 0.10 0.14 0.09 0.12 0.11 0.06 0.04 0.03 0.04 0.04 0.05 0.04 0.03 0.01 0.00 0.00 0.00 0.01 0.02 0.03 0.02 0.03 0.03 0.06 0.11 0.13
0.31 0.43 0.40 0.42 0.34 0.25 0.29 0.31 0.33 0.32 0.34 0.39 0.39 0.33 0.30 0.23 0.18 0.20 0.26 0.33 0.30 0.21 0.14 0.07 0.05 0.09 0.09 0.08 0.05 0.03 0.03 0.02 0.02 0.04 0.06 0.07 0.06 0.07 0.08 0.05 0.04 0.05 0.08
0.16 0.22 0.30 0.29 0.28 0.41 0.53 0.58 0.54 0.44 0.43 0.31 0.25 0.22 0.18 0.11 0.15 0.16 0.15 0.19 0.22 0.25 0.16 0.09 0.11 0.10 0.11 0.09 0.07 0.05 0.05 0.09 0.13 0.11 0.10 0.09 0.05 0.05 0.07 0.08 0.03 0.02 0.03
0.38 0.46 0.46 0.49 0.55 0.57 0.59 0.54 0.43 0.33 0.30 0.22 0.16 0.16 0.17 0.16 0.16 0.21 0.21 0.19 0.24 0.31 0.31 0.15 0.09 0.07 0.08 0.10 0.11 0.10 0.08 0.09 0.06 0.04 0.04 0.02 0.01 0.01 0.04 0.06 0.06 0.02 0.02
0.55 0.58 0.60 0.52 0.39 0.31 0.34 0.39 0.42 0.47 0.46 0.39 0.35 0.31 0.26 0.28 0.30 0.29 0.30 0.29 0.26 0.26 0.29 0.16 0.08 0.06 0.08 0.09 0.07 0.06 0.04 0.03 0.03 0.03 0.02 0.02 0.01 0.01 0.02 0.02 0.03 0.03 0.02
1.15 0.90 0.68 0.45 0.30 0.19 0.13 0.13 0.19 0.21 0.24 0.29 0.29 0.30 0.27 0.32 0.39 0.34 0.27 0.20 0.16 0.14 0.16 0.11 0.07 0.06 0.05 0.05 0.04 0.03 0.02 0.02 0.03 0.05 0.05 0.04 0.02 0.02 0.02 0.01 0.02 0.02 0.04
0.49 0.30 0.20 0.15 0.11 0.07 0.05 0.05 0.09 0.20 0.27 0.20 0.18 0.18 0.15 0.14 0.12 0.10 0.10 0.10 0.10 0.12 0.15 0.19 0.13 0.07 0.06 0.03 0.03 0.02 0.03 0.04 0.03 0.03 0.04 0.04 0.03 0.02 0.01 0.01 0.02 0.02 0.02
0.17 0.16 0.15 0.16 0.12 0.06 0.05 0.10 0.12 0.11 0.13 0.13 0.09 0.06 0.07 0.07 0.07 0.07 0.10 0.10 0.10 0.11 0.11 0.11 0.10 0.07 0.04 0.03 0.05 0.06 0.08 0.06 0.05 0.06 0.11 0.10 0.08 0.06 0.03 0.02 0.04 0.02 0.02
0.25 0.21 0.21 0.12 0.12 0.16 0.19 0.20 0.16 0.15 0.08 0.05 0.03 0.03 0.04 0.08 0.09 0.06 0.04 0.04 0.05 0.09 0.12 0.12 0.12 0.10 0.08 0.08 0.11 0.12 0.13 0.11 0.13 0.16 0.15 0.12 0.15 0.11 0.04 0.05 0.10 0.16 0.06
0.13 0.18 0.22 0.24 0.25 0.28 0.37 0.33 0.18 0.08 0.05 0.05 0.04 0.05 0.06 0.11 0.06 0.09 0.10 0.12 0.10 0.12 0.16 0.16 0.14 0.14 0.12 0.14 0.21 0.28 0.29 0.28 0.26 0.22 0.23 0.15 0.07 0.07 0.12 0.15 0.15 0.25 0.24
0.10 0.13 0.19 0.28 0.33 0.31 0.33 0.22 0.20 0.10 0.10 0.11 0.08 0.07 0.06 0.09 0.15 0.06 0.15 0.18 0.18 0.22 0.21 0.18 0.19 0.24 0.33 0.39 0.46 0.54 0.48 0.40 0.28 0.18 0.16 0.07 0.02 0.03 0.03 0.05 0.07 0.11 0.21
0.20 0.24 0.26 0.25 0.16 0.14 0.24 0.21 0.20 0.08 0.06 0.06 0.07 0.07 0.07 0.08 0.15 0.17 0.14 0.19 0.22 0.29 0.36 0.39 0.44 0.49 0.45 0.35 0.29 0.24 0.20 0.16 0.08 0.05 0.04 0.05 0.01 0.01 0.01 0.01 0.01 0.01 0.03
0.27 0.22 0.15 0.11 0.12 0.14 0.27 0.18 0.13 0.04 0.07 0.11 0.09 0.11 0.16 0.13 0.41 0.34 0.20 0.23 0.29 0.32 0.43 0.37 0.29 0.24 0.18 0.14 0.14 0.23 0.25 0.29 0.20 0.08 0.05 0.08 0.03 0.03 0.03 0.02 0.01 0.02 0.02
0.09 0.09 0.10 0.10 0.19 0.10 0.28 0.21 0.16 0.05 0.11 0.13 0.13 0.18 0.35 0.20 0.33 0.21 0.13 0.09 0.21 0.29 0.27 0.28 0.27 0.25 0.20 0.17 0.17 0.21 0.22 0.32 0.26 0.19 0.07 0.15 0.06 0.11 0.20 0.04 0.03 0.06 0.09

GFSMA_prec_precacc_066.txt.gz
Total_Precipitation_Accumulation
0.14 0.16 0.03 0.01 0.00 0.00 0.00 0.00 0.00 0.00 0.00 0.00 0.00 0.00 0.00 0.00 0.00 0.00 0.00 0.00 0.00 0.01 0.05 0.05 0.02 0.00 0.00 0.00 0.00 0.00 0.00 0.00 0.00 0.00 0.00 0.00 0.00 0.00 0.01 0.01 0.02 0.08 0.17
0.17 0.14 0.05 0.02 0.00 0.00 0.00 0.00 0.00 0.00 0.00 0.00 0.00 0.00 0.00 0.00 0.00 0.00 0.00 0.00 0.00 0.01 0.03 0.02 0.01 0.00 0.00 0.00 0.00 0.00 0.00 0.00 0.01 0.00 0.00 0.00 0.00 0.00 0.00 0.01 0.00 0.02 0.12
0.14 0.08 0.04 0.01 0.00 0.00 0.00 0.00 0.00 0.00 0.00 0.00 0.00 0.00 0.00 0.00 0.00 0.00 0.00 0.00 0.00 0.00 0.01 0.01 0.00 0.00 0.00 0.00 0.00 0.00 0.00 0.00 0.00 0.01 0.01 0.01 0.01 0.00 0.00 0.00 0.01 0.00 0.01
0.03 0.04 0.03 0.02 0.00 0.00 0.00 0.00 0.00 0.00 0.00 0.00 0.00 0.00 0.00 0.00 0.00 0.00 0.00 0.00 0.00 0.00 0.00 0.01 0.00 0.00 0.00 0.00 0.00 0.00 0.00 0.00 0.00 0.00 0.01 0.01 0.01 0.01 0.00 0.00 0.00 0.01 0.00
0.01 0.05 0.11 0.08 0.02 0.02 0.00 0.00 0.00 0.00 0.00 0.00 0.00 0.00 0.00 0.00 0.00 0.00 0.00 0.00 0.00 0.00 0.00 0.00 0.00 0.00 0.00 0.00 0.00 0.00 0.00 0.00 0.00 0.00 0.00 0.00 0.01 0.02 0.01 0.01 0.00 0.01 0.01
0.04 0.04 0.02 0.05 0.03 0.03 0.00 0.00 0.00 0.00 0.00 0.00 0.00 0.00 0.00 0.00 0.00 0.00 0.00 0.00 0.00 0.00 0.00 0.00 0.00 0.00 0.00 0.00 0.00 0.00 0.00 0.00 0.00 0.00 0.00 0.00 0.00 0.01 0.01 0.02 0.01 0.01 0.01
0.12 0.07 0.03 0.03 0.02 0.05 0.01 0.01 0.00 0.00 0.00 0.00 0.00 0.00 0.00 0.00 0.00 0.00 0.00 0.00 0.00 0.00 0.00 0.00 0.01 0.00 0.00 0.00 0.00 0.00 0.00 0.00 0.00 0.00 0.00 0.00 0.01 0.00 0.01 0.01 0.01 0.01 0.01
0.07 0.07 0.05 0.05 0.04 0.05 0.02 0.01 0.00 0.00 0.00 0.00 0.00 0.00 0.00 0.00 0.00 0.00 0.00 0.00 0.00 0.00 0.00 0.00 0.00 0.00 0.00 0.00 0.00 0.00 0.00 0.00 0.00 0.00 0.00 0.00 0.00 0.00 0.01 0.02 0.01 0.01 0.01
0.05 0.06 0.04 0.04 0.04 0.04 0.02 0.01 0.00 0.00 0.00 0.00 0.00 0.00 0.00 0.00 0.00 0.00 0.00 0.00 0.00 0.00 0.00 0.00 0.00 0.00 0.00 0.00 0.00 0.00 0.00 0.00 0.00 0.00 0.00 0.00 0.00 0.00 0.01 0.02 0.02 0.02 0.02
0.10 0.19 0.07 0.03 0.01 0.01 0.04 0.04 0.02 0.02 0.02 0.01 0.01 0.01 0.00 0.03 0.10 0.09 0.01 0.00 0.00 0.00 0.00 0.00 0.00 0.00 0.00 0.00 0.00 0.00 0.00 0.00 0.00 0.00 0.00 0.00 0.00 0.01 0.02 0.03 0.03 0.03 0.03
0.09 0.12 0.09 0.07 0.04 0.07 0.10 0.17 0.13 0.13 0.14 0.21 0.14 0.04 0.02 0.01 0.02 0.13 0.11 0.05 0.01 0.00 0.00 0.00 0.00 0.00 0.00 0.00 0.00 0.00 0.00 0.00 0.00 0.00 0.00 0.00 0.00 0.01 0.04 0.07 0.10 0.09 0.09
0.21 0.25 0.20 0.17 0.19 0.22 0.30 0.37 0.43 0.27 0.19 0.19 0.29 0.16 0.17 0.14 0.08 0.06 0.05 0.06 0.10 0.05 0.02 0.03 0.04 0.03 0.02 0.01 0.00 0.00 0.00 0.00 0.00 0.00 0.00 0.01 0.01 0.02 0.04 0.05 0.10 0.13 0.16
0.31 0.30 0.28 0.26 0.24 0.34 0.41 0.36 0.38 0.33 0.33 0.29 0.31 0.34 0.31 0.21 0.13 0.10 0.14 0.10 0.12 0.11 0.06 0.04 0.03 0.04 0.05 0.05 0.04 0.03 0.01 0.00 0.00 0.00 0.01 0.02 0.05 0.08 0.14 0.18 0.20 0.21 0.19
0.31 0.43 0.40 0.42 0.34 0.25 0.29 0.31 0.33 0.33 0.35 0.40 0.39 0.34 0.30 0.24 0.20 0.20 0.27 0.34 0.31 0.21 0.14 0.07 0.05 0.09 0.09 0.08 0.05 0.03 0.03 0.02 0.02 0.05 0.08 0.10 0.13 0.17 0.19 0.16 0.13 0.10 0.11
0.16 0.22 0.30 0.29 0.28 0.41 0.53 0.58 0.54 0.45 0.43 0.31 0.26 0.24 0.20 0.11 0.16 0.18 0.16 0.19 0.22 0.25 0.16 0.09 0.11 0.10 0.11 0.09 0.07 0.05 0.05 0.09 0.13 0.12 0.12 0.11 0.09 0.10 0.11 0.12 0.06 0.03 0.04
0.38 0.46 0.46 0.49 0.55 0.57 0.59 0.54 0.43 0.34 0.30 0.22 0.17 0.17 0.18 0.16 0.16 0.21 0.21 0.20 0.25 0.31 0.31 0.15 0.09 0.07 0.08 0.10 0.11 0.10 0.08 0.09 0.06 0.04 0.04 0.03 0.02 0.02 0.04 0.06 0.06 0.03 0.05
0.55 0.58 0.60 0.52 0.39 0.31 0.34 0.39 0.42 0.47 0.46 0.39 0.35 0.31 0.26 0.28 0.31 0.29 0.30 0.29 0.26 0.26 0.29 0.16 0.08 0.06 0.08 0.09 0.07 0.06 0.05 0.03 0.03 0.03 0.02 0.02 0.01 0.01 0.02 0.03 0.04 0.05 0.03
1.15 0.90 0.68 0.45 0.30 0.19 0.13 0.13 0.19 0.21 0.24 0.29 0.29 0.30 0.27 0.32 0.39 0.34 0.27 0.20 0.16 0.14 0.16 0.11 0.07 0.06 0.05 0.05 0.05 0.04 0.02 0.02 0.04 0.06 0.05 0.04 0.02 0.02 0.02 0.01 0.02 0.02 0.04
0.49 0.30 0.20 0.15 0.11 0.07 0.05 0.05 0.09 0.20 0.27 0.20 0.18 0.18 0.15 0.14 0.12 0.10 0.10 0.10 0.10 0.12 0.15 0.19 0.14 0.08 0.06 0.03 0.03 0.03 0.04 0.04 0.04 0.03 0.05 0.05 0.05 0.04 0.03 0.04 0.04 0.04 0.02
0.17 0.16 0.15 0.16 0.12 0.06 0.05 0.10 0.12 0.11 0.13 0.13 0.09 0.06 0.07 0.07 0.07 0.07 0.10 0.10 0.10 0.11 0.11 0.11 0.10 0.07 0.04 0.03 0.05 0.07 0.08 0.07 0.07 0.07 0.12 0.13 0.13 0.11 0.07 0.07 0.09 0.08 0.08
0.25 0.21 0.21 0.12 0.12 0.16 0.19 0.20 0.16 0.15 0.08 0.05 0.03 0.03 0.04 0.08 0.09 0.06 0.04 0.04 0.05 0.09 0.12 0.12 0.12 0.10 0.08 0.09 0.11 0.13 0.15 0.12 0.14 0.17 0.17 0.15 0.18 0.18 0.15 0.22 0.27 0.31 0.17
0.13 0.19 0.22 0.24 0.25 0.28 0.37 0.33 0.18 0.08 0.05 0.05 0.04 0.05 0.06 0.11 0.06 0.09 0.10 0.12 0.10 0.12 0.16 0.17 0.15 0.15 0.12 0.14 0.21 0.29 0.32 0.36 0.37 0.34 0.37 0.31 0.24 0.21 0.24 0.25 0.24 0.31 0.26
0.15 0.14 0.20 0.29 0.33 0.31 0.34 0.23 0.20 0.10 0.10 0.11 0.08 0.07 0.06 0.09 0.15 0.06 0.15 0.18 0.18 0.24 0.23 0.20 0.21 0.25 0.34 0.40 0.47 0.56 0.53 0.47 0.39 0.27 0.23 0.17 0.14 0.12 0.11 0.09 0.09 0.11 0.21
0.23 0.26 0.29 0.27 0.19 0.15 0.25 0.24 0.23 0.09 0.06 0.06 0.07 0.07 0.07 0.08 0.15 0.17 0.14 0.20 0.23 0.30 0.38 0.42 0.47 0.56 0.52 0.44 0.37 0.35 0.30 0.29 0.23 0.20 0.17 0.21 0.17 0.15 0.09 0.06 0.03 0.02 0.03
0.29 0.24 0.17 0.16 0.14 0.15 0.31 0.23 0.20 0.10 0.10 0.12 0.09 0.12 0.17 0.14 0.42 0.38 0.24 0.24 0.31 0.34 0.47 0.43 0.34 0.33 0.31 0.26 0.25 0.32 0.38 0.45 0.45 0.32 0.17 0.17 0.11 0.09 0.07 0.05 0.04 0.04 0.03
0.11 0.12 0.12 0.12 0.22 0.13 0.32 0.25 0.22 0.08 0.13 0.15 0.16 0.20 0.40 0.24 0.36 0.25 0.15 0.10 0.23 0.33 0.31 0.37 0.39 0.41 0.42 0.44 0.47 0.47 0.47 0.54 0.45 0.32 0.12 0.18 0.07 0.12 0.20 0.05 0.03 0.06 0.09

GFSMA_prec_precacc_069.txt.gz
Total_Precipitation_Accumulation
0.22 0.21 0.05 0.01 0.00 0.00 0.00 0.00 0.00 0.00 0.00 0.00 0.00 0.00 0.00 0.00 0.00 0.00 0.00 0.00 0.00 0.02 0.05 0.05 0.02 0.00 0.00 0.00 0.00 0.00 0.00 0.00 0.00 0.00 0.00 0.00 0.00 0.00 0.01 0.01 0.02 0.08 0.17
0.21 0.14 0.05 0.02 0.00 0.00 0.00 0.00 0.00 0.00 0.00 0.00 0.00 0.00 0.00 0.00 0.00 0.00 0.00 0.00 0.00 0.01 0.03 0.02 0.01 0.00 0.00 0.00 0.00 0.00 0.00 0.00 0.01 0.00 0.00 0.00 0.00 0.00 0.00 0.01 0.00 0.02 0.12
0.16 0.08 0.04 0.01 0.00 0.00 0.00 0.00 0.00 0.00 0.00 0.00 0.00 0.00 0.00 0.00 0.00 0.00 0.00 0.00 0.00 0.00 0.01 0.01 0.00 0.00 0.00 0.00 0.00 0.00 0.00 0.00 0.00 0.01 0.01 0.01 0.01 0.00 0.00 0.00 0.01 0.00 0.01
0.04 0.04 0.03 0.02 0.00 0.00 0.00 0.00 0.00 0.00 0.00 0.00 0.00 0.00 0.00 0.00 0.00 0.00 0.00 0.00 0.00 0.00 0.00 0.01 0.00 0.00 0.00 0.00 0.00 0.00 0.00 0.00 0.00 0.00 0.01 0.01 0.01 0.01 0.00 0.00 0.00 0.01 0.00
0.02 0.05 0.11 0.08 0.02 0.02 0.00 0.00 0.00 0.00 0.00 0.00 0.00 0.00 0.00 0.00 0.00 0.00 0.00 0.00 0.00 0.00 0.00 0.00 0.00 0.00 0.00 0.00 0.00 0.00 0.00 0.00 0.00 0.00 0.00 0.00 0.01 0.02 0.01 0.01 0.00 0.01 0.01
0.05 0.04 0.02 0.05 0.03 0.03 0.00 0.00 0.00 0.00 0.00 0.00 0.00 0.00 0.00 0.00 0.00 0.00 0.00 0.00 0.00 0.00 0.00 0.00 0.00 0.00 0.00 0.00 0.00 0.00 0.00 0.00 0.00 0.00 0.00 0.00 0.00 0.01 0.01 0.02 0.01 0.01 0.01
0.14 0.07 0.03 0.03 0.02 0.05 0.01 0.01 0.00 0.00 0.00 0.00 0.00 0.00 0.00 0.00 0.00 0.00 0.00 0.00 0.00 0.00 0.00 0.00 0.01 0.00 0.00 0.00 0.00 0.00 0.00 0.00 0.00 0.00 0.00 0.00 0.01 0.00 0.01 0.01 0.01 0.01 0.01
0.10 0.09 0.06 0.05 0.04 0.05 0.02 0.01 0.00 0.00 0.00 0.00 0.00 0.00 0.00 0.00 0.00 0.00 0.00 0.00 0.00 0.00 0.00 0.00 0.00 0.00 0.00 0.00 0.00 0.00 0.00 0.00 0.00 0.00 0.00 0.00 0.00 0.00 0.01 0.02 0.01 0.01 0.01
0.10 0.10 0.05 0.04 0.04 0.04 0.02 0.01 0.00 0.00 0.00 0.00 0.00 0.00 0.00 0.01 0.00 0.00 0.00 0.00 0.00 0.00 0.00 0.00 0.00 0.00 0.00 0.00 0.00 0.00 0.00 0.00 0.00 0.00 0.00 0.00 0.00 0.00 0.01 0.02 0.02 0.02 0.02
0.14 0.24 0.10 0.05 0.01 0.02 0.04 0.05 0.02 0.02 0.02 0.01 0.01 0.01 0.00 0.03 0.10 0.10 0.01 0.00 0.00 0.00 0.00 0.00 0.00 0.00 0.00 0.00 0.00 0.00 0.00 0.00 0.00 0.00 0.00 0.00 0.00 0.01 0.02 0.03 0.03 0.03 0.03
0.15 0.16 0.11 0.09 0.06 0.07 0.11 0.18 0.13 0.13 0.14 0.21 0.14 0.04 0.02 0.01 0.02 0.13 0.11 0.05 0.01 0.00 0.00 0.00 0.00 0.00 0.00 0.00 0.00 0.00 0.00 0.00 0.00 0.00 0.00 0.00 0.00 0.01 0.04 0.07 0.10 0.09 0.09
0.29 0.31 0.23 0.19 0.21 0.23 0.31 0.41 0.46 0.27 0.19 0.19 0.29 0.16 0.17 0.14 0.08 0.06 0.05 0.06 0.10 0.05 0.02 0.03 0.04 0.03 0.02 0.01 0.00 0.00 0.00 0.00 0.00 0.00 0.00 0.01 0.01 0.04 0.10 0.10 0.11 0.14 0.18
0.36 0.35 0.31 0.30 0.27 0.36 0.42 0.40 0.44 0.38 0.34 0.29 0.31 0.34 0.31 0.21 0.13 0.10 0.14 0.10 0.12 0.11 0.06 0.04 0.03 0.04 0.05 0.05 0.04 0.03 0.01 0.00 0.00 0.00 0.01 0.02 0.05 0.08 0.16 0.24 0.30 0.32 0.29
0.31 0.44 0.41 0.45 0.37 0.28 0.32 0.33 0.35 0.38 0.38 0.40 0.39 0.34 0.30 0.24 0.20 0.20 0.27 0.34 0.31 0.21 0.14 0.07 0.05 0.09 0.09 0.08 0.05 0.03 0.03 0.02 0.02 0.05 0.08 0.10 0.13 0.17 0.20 0.18 0.17 0.18 0.22
0.16 0.22 0.30 0.30 0.30 0.43 0.55 0.60 0.55 0.46 0.45 0.31 0.26 0.24 0.20 0.11 0.16 0.18 0.16 0.19 0.23 0.25 0.16 0.09 0.11 0.10 0.11 0.09 0.07 0.05 0.05 0.09 0.13 0.12 0.12 0.11 0.09 0.10 0.11 0.12 0.07 0.05 0.07
0.38 0.46 0.46 0.49 0.55 0.57 0.59 0.55 0.43 0.34 0.31 0.22 0.17 0.17 0.18 0.16 0.16 0.21 0.21 0.20 0.26 0.33 0.31 0.15 0.09 0.07 0.08 0.10 0.11 0.10 0.08 0.09 0.06 0.04 0.04 0.03 0.02 0.02 0.04 0.06 0.06 0.03 0.05
0.55 0.58 0.60 0.52 0.39 0.31 0.34 0.39 0.42 0.47 0.46 0.39 0.35 0.31 0.26 0.28 0.31 0.29 0.30 0.29 0.27 0.27 0.30 0.16 0.08 0.06 0.08 0.09 0.07 0.06 0.05 0.03 0.03 0.03 0.02 0.02 0.02 0.01 0.02 0.03 0.04 0.05 0.03
1.15 0.90 0.68 0.45 0.30 0.19 0.13 0.13 0.19 0.21 0.24 0.29 0.29 0.30 0.27 0.32 0.39 0.34 0.28 0.21 0.16 0.14 0.17 0.11 0.07 0.06 0.05 0.05 0.05 0.04 0.02 0.02 0.04 0.06 0.06 0.05 0.03 0.03 0.02 0.01 0.02 0.02 0.05
0.49 0.30 0.20 0.15 0.11 0.07 0.05 0.05 0.09 0.20 0.27 0.20 0.18 0.18 0.15 0.14 0.12 0.10 0.10 0.10 0.10 0.12 0.15 0.19 0.14 0.08 0.06 0.03 0.03 0.03 0.04 0.04 0.04 0.04 0.05 0.05 0.06 0.06 0.07 0.08 0.08 0.08 0.08
0.17 0.16 0.15 0.16 0.12 0.06 0.05 0.10 0.12 0.11 0.13 0.13 0.09 0.06 0.07 0.07 0.07 0.07 0.10 0.10 0.10 0.11 0.11 0.11 0.10 0.07 0.04 0.03 0.05 0.07 0.08 0.07 0.07 0.08 0.13 0.14 0.14 0.14 0.12 0.12 0.17 0.16 0.17
0.25 0.21 0.21 0.12 0.12 0.16 0.19 0.20 0.16 0.15 0.08 0.05 0.03 0.03 0.04 0.08 0.09 0.06 0.04 0.04 0.05 0.09 0.12 0.12 0.12 0.10 0.08 0.09 0.11 0.13 0.15 0.13 0.14 0.17 0.18 0.16 0.22 0.24 0.23 0.35 0.39 0.44 0.32
0.16 0.20 0.23 0.24 0.25 0.28 0.37 0.33 0.18 0.08 0.05 0.05 0.04 0.05 0.06 0.11 0.06 0.09 0.10 0.12 0.10 0.12 0.16 0.17 0.15 0.15 0.12 0.14 0.21 0.29 0.32 0.36 0.38 0.34 0.38 0.32 0.26 0.25 0.31 0.33 0.37 0.45 0.37
0.20 0.16 0.23 0.32 0.35 0.33 0.35 0.24 0.22 0.10 0.10 0.11 0.08 0.07 0.06 0.09 0.15 0.06 0.15 0.18 0.18 0.24 0.23 0.20 0.22 0.25 0.35 0.41 0.49 0.58 0.54 0.48 0.40 0.29 0.27 0.22 0.20 0.21 0.18 0.21 0.26 0.25 0.28
0.25 0.28 0.31 0.28 0.21 0.17 0.27 0.31 0.36 0.18 0.10 0.08 0.07 0.07 0.07 0.08 0.15 0.17 0.14 0.20 0.23 0.30 0.38 0.42 0.47 0.56 0.53 0.45 0.40 0.42 0.41 0.41 0.36 0.31 0.31 0.37 0.31 0.29 0.22 0.18 0.16 0.12 0.08
0.30 0.26 0.19 0.18 0.17 0.16 0.35 0.32 0.31 0.18 0.15 0.16 0.14 0.14 0.18 0.14 0.43 0.40 0.25 0.25 0.31 0.34 0.48 0.45 0.36 0.36 0.34 0.31 0.30 0.37 0.45 0.53 0.55 0.45 0.36 0.38 0.32 0.31 0.26 0.21 0.15 0.08 0.05
0.11 0.12 0.13 0.13 0.28 0.16 0.39 0.32 0.27 0.12 0.14 0.16 0.18 0.22 0.43 0.27 0.39 0.29 0.18 0.11 0.24 0.34 0.33 0.40 0.43 0.47 0.47 0.51 0.58 0.54 0.54 0.67 0.64 0.55 0.34 0.38 0.25 0.28 0.34 0.13 0.10 0.10 0.11

GFSMA_prec_precacc_072.txt.gz
Total_Precipitation_Accumulation
0.23 0.24 0.13 0.09 0.03 0.00 0.00 0.00 0.00 0.00 0.00 0.00 0.00 0.00 0.00 0.00 0.00 0.00 0.00 0.00 0.01 0.02 0.05 0.05 0.02 0.00 0.00 0.00 0.00 0.00 0.00 0.00 0.00 0.00 0.00 0.00 0.00 0.00 0.01 0.01 0.02 0.08 0.17
0.21 0.15 0.08 0.04 0.01 0.00 0.00 0.00 0.00 0.00 0.00 0.00 0.00 0.00 0.00 0.00 0.00 0.00 0.00 0.00 0.00 0.01 0.03 0.03 0.01 0.00 0.00 0.00 0.00 0.00 0.00 0.00 0.01 0.00 0.00 0.00 0.00 0.00 0.00 0.01 0.00 0.02 0.12
0.17 0.09 0.05 0.03 0.00 0.00 0.00 0.00 0.00 0.00 0.00 0.00 0.00 0.00 0.00 0.00 0.00 0.00 0.00 0.00 0.00 0.00 0.01 0.01 0.00 0.00 0.00 0.00 0.00 0.00 0.00 0.00 0.00 0.01 0.01 0.01 0.01 0.00 0.00 0.00 0.01 0.00 0.01
0.07 0.06 0.06 0.04 0.00 0.00 0.00 0.00 0.00 0.00 0.00 0.00 0.00 0.00 0.00 0.00 0.00 0.00 0.00 0.00 0.00 0.00 0.00 0.01 0.00 0.00 0.00 0.00 0.00 0.00 0.00 0.00 0.00 0.00 0.01 0.01 0.01 0.01 0.00 0.00 0.00 0.01 0.00
0.08 0.09 0.14 0.11 0.02 0.02 0.00 0.00 0.00 0.00 0.00 0.00 0.00 0.00 0.00 0.00 0.00 0.00 0.00 0.00 0.00 0.00 0.00 0.00 0.00 0.00 0.00 0.00 0.00 0.00 0.00 0.00 0.00 0.00 0.00 0.00 0.01 0.02 0.01 0.01 0.00 0.01 0.01
0.18 0.10 0.05 0.05 0.03 0.03 0.00 0.00 0.00 0.00 0.00 0.00 0.00 0.00 0.00 0.00 0.00 0.00 0.00 0.00 0.00 0.00 0.00 0.00 0.00 0.00 0.00 0.00 0.00 0.00 0.00 0.00 0.00 0.00 0.00 0.00 0.00 0.01 0.01 0.02 0.01 0.01 0.01
0.33 0.11 0.04 0.03 0.02 0.05 0.01 0.01 0.00 0.00 0.00 0.00 0.00 0.00 0.00 0.00 0.00 0.00 0.00 0.00 0.00 0.00 0.00 0.00 0.01 0.00 0.00 0.00 0.00 0.00 0.00 0.00 0.00 0.00 0.00 0.00 0.01 0.00 0.01 0.01 0.01 0.01 0.01
0.26 0.16 0.09 0.05 0.04 0.05 0.02 0.01 0.00 0.00 0.00 0.00 0.00 0.00 0.00 0.00 0.00 0.00 0.00 0.00 0.00 0.00 0.00 0.00 0.00 0.00 0.00 0.00 0.00 0.00 0.00 0.00 0.00 0.00 0.00 0.00 0.00 0.00 0.01 0.02 0.01 0.01 0.01
0.15 0.17 0.11 0.06 0.04 0.04 0.02 0.01 0.00 0.00 0.00 0.00 0.00 0.00 0.00 0.01 0.00 0.00 0.00 0.00 0.00 0.00 0.00 0.00 0.00 0.00 0.00 0.00 0.00 0.00 0.00 0.00 0.00 0.00 0.00 0.00 0.00 0.00 0.01 0.02 0.02 0.02 0.02
0.15 0.30 0.17 0.08 0.02 0.02 0.04 0.05 0.02 0.02 0.02 0.01 0.01 0.01 0.00 0.03 0.10 0.10 0.02 0.00 0.00 0.00 0.00 0.00 0.00 0.00 0.00 0.00 0.00 0.00 0.00 0.00 0.00 0.00 0.00 0.00 0.00 0.01 0.02 0.03 0.03 0.03 0.03
0.17 0.19 0.22 0.14 0.07 0.07 0.11 0.18 0.13 0.13 0.14 0.21 0.14 0.04 0.02 0.01 0.02 0.13 0.11 0.05 0.01 0.00 0.00 0.00 0.00 0.00 0.00 0.00 0.00 0.00 0.00 0.00 0.00 0.00 0.00 0.00 0.00 0.01 0.04 0.07 0.10 0.09 0.09
0.38 0.33 0.32 0.29 0.23 0.23 0.31 0.42 0.46 0.28 0.19 0.19 0.29 0.16 0.17 0.14 0.08 0.06 0.05 0.06 0.10 0.05 0.02 0.03 0.04 0.03 0.02 0.01 0.00 0.00 0.00 0.00 0.00 0.00 0.00 0.01 0.01 0.04 0.10 0.11 0.12 0.14 0.19
0.40 0.38 0.34 0.33 0.29 0.37 0.42 0.41 0.46 0.38 0.35 0.30 0.31 0.34 0.31 0.21 0.13 0.10 0.14 0.10 0.12 0.11 0.06 0.04 0.03 0.04 0.05 0.05 0.04 0.03 0.01 0.00 0.00 0.00 0.01 0.02 0.05 0.08 0.16 0.24 0.31 0.35 0.32
0.31 0.45 0.45 0.50 0.42 0.33 0.35 0.37 0.41 0.44 0.44 0.44 0.40 0.34 0.30 0.24 0.20 0.20 0.27 0.34 0.31 0.21 0.14 0.07 0.05 0.09 0.09 0.08 0.05 0.03 0.03 0.02 0.02 0.05 0.08 0.10 0.13 0.17 0.20 0.18 0.17 0.19 0.25
0.16 0.22 0.31 0.34 0.33 0.48 0.62 0.65 0.61 0.52 0.52 0.40 0.33 0.27 0.20 0.12 0.16 0.18 0.16 0.19 0.23 0.25 0.16 0.09 0.11 0.10 0.11 0.09 0.07 0.05 0.05 0.09 0.13 0.12 0.12 0.11 0.09 0.10 0.11 0.12 0.07 0.05 0.07
0.39 0.46 0.46 0.49 0.55 0.59 0.64 0.58 0.45 0.35 0.34 0.27 0.22 0.23 0.21 0.17 0.16 0.21 0.21 0.20 0.26 0.33 0.31 0.15 0.09 0.07 0.08 0.10 0.11 0.10 0.08 0.09 0.06 0.04 0.04 0.03 0.02 0.02 0.04 0.06 0.06 0.03 0.05
0.55 0.58 0.60 0.52 0.39 0.31 0.34 0.41 0.43 0.47 0.46 0.40 0.36 0.33 0.27 0.29 0.31 0.29 0.30 0.29 0.27 0.29 0.31 0.16 0.08 0.06 0.08 0.09 0.07 0.06 0.05 0.03 0.03 0.03 0.02 0.02 0.02 0.01 0.02 0.03 0.04 0.05 0.03
1.15 0.90 0.68 0.45 0.30 0.19 0.13 0.13 0.19 0.21 0.24 0.29 0.29 0.30 0.27 0.32 0.39 0.34 0.28 0.21 0.16 0.15 0.18 0.12 0.07 0.06 0.05 0.05 0.05 0.04 0.02 0.02 0.04 0.06 0.06 0.05 0.03 0.03 0.03 0.02 0.03 0.03 0.05
0.49 0.30 0.20 0.15 0.11 0.07 0.05 0.05 0.09 0.20 0.27 0.20 0.18 0.18 0.15 0.14 0.12 0.10 0.10 0.10 0.10 0.13 0.16 0.20 0.14 0.08 0.06 0.03 0.03 0.03 0.04 0.04 0.04 0.04 0.05 0.05 0.06 0.06 0.07 0.08 0.08 0.08 0.08
0.17 0.16 0.15 0.16 0.12 0.06 0.05 0.10 0.12 0.11 0.13 0.13 0.09 0.06 0.07 0.07 0.07 0.07 0.10 0.10 0.10 0.11 0.11 0.11 0.10 0.07 0.04 0.03 0.05 0.07 0.08 0.07 0.07 0.08 0.13 0.14 0.14 0.14 0.12 0.13 0.18 0.18 0.20
0.26 0.21 0.21 0.12 0.12 0.16 0.19 0.20 0.16 0.15 0.08 0.05 0.03 0.03 0.04 0.08 0.09 0.06 0.04 0.04 0.05 0.09 0.12 0.12 0.12 0.10 0.08 0.09 0.11 0.13 0.15 0.13 0.14 0.17 0.18 0.16 0.22 0.24 0.23 0.36 0.41 0.46 0.36
0.19 0.21 0.23 0.25 0.26 0.29 0.38 0.33 0.18 0.08 0.05 0.05 0.04 0.05 0.06 0.11 0.06 0.09 0.10 0.12 0.10 0.12 0.16 0.17 0.15 0.15 0.12 0.14 0.21 0.29 0.32 0.36 0.38 0.34 0.38 0.32 0.26 0.25 0.31 0.34 0.40 0.49 0.45
0.22 0.19 0.26 0.34 0.36 0.36 0.42 0.30 0.29 0.13 0.11 0.11 0.08 0.07 0.06 0.09 0.15 0.06 0.15 0.18 0.18 0.24 0.23 0.20 0.22 0.25 0.35 0.41 0.49 0.58 0.54 0.48 0.40 0.29 0.28 0.23 0.22 0.22 0.23 0.30 0.38 0.37 0.42
0.26 0.31 0.33 0.31 0.25 0.22 0.37 0.40 0.47 0.26 0.14 0.10 0.08 0.11 0.11 0.10 0.16 0.18 0.14 0.20 0.23 0.30 0.38 0.42 0.47 0.56 0.54 0.46 0.41 0.42 0.42 0.43 0.38 0.35 0.36 0.43 0.37 0.34 0.28 0.25 0.28 0.23 0.23
0.30 0.26 0.19 0.18 0.19 0.19 0.42 0.36 0.34 0.19 0.16 0.18 0.19 0.20 0.27 0.20 0.47 0.44 0.27 0.28 0.33 0.36 0.50 0.48 0.40 0.42 0.39 0.33 0.32 0.39 0.47 0.63 0.72 0.58 0.47 0.48 0.43 0.42 0.39 0.37 0.33 0.23 0.19
0.11 0.12 0.13 0.13 0.29 0.17 0.42 0.33 0.28 0.13 0.15 0.18 0.23 0.32 0.66 0.35 0.41 0.31 0.21 0.15 0.32 0.46 0.39 0.43 0.48 0.55 0.53 0.58 0.68 0.60 0.59 0.81 0.86 0.75 0.50 0.53 0.43 0.47 0.54 0.30 0.23 0.21 0.22

GFSMA_prec_precacc_075.txt.gz
Total_Precipitation_Accumulation
0.27 0.29 0.14 0.11 0.09 0.07 0.01 0.00 0.00 0.00 0.00 0.00 0.00 0.00 0.00 0.00 0.00 0.00 0.00 0.00 0.01 0.02 0.05 0.06 0.02 0.01 0.00 0.00 0.00 0.00 0.00 0.00 0.00 0.00 0.00 0.00 0.00 0.00 0.01 0.01 0.02 0.08 0.17
0.23 0.19 0.09 0.10 0.05 0.04 0.01 0.00 0.00 0.00 0.00 0.00 0.00 0.00 0.00 0.00 0.00 0.00 0.00 0.00 0.00 0.02 0.03 0.03 0.01 0.01 0.00 0.00 0.00 0.00 0.00 0.00 0.01 0.00 0.00 0.00 0.00 0.00 0.00 0.01 0.00 0.02 0.12
0.19 0.12 0.06 0.07 0.07 0.02 0.00 0.00 0.00 0.00 0.00 0.00 0.00 0.00 0.00 0.00 0.00 0.00 0.00 0.00 0.00 0.00 0.01 0.01 0.00 0.00 0.00 0.00 0.00 0.00 0.00 0.00 0.00 0.01 0.01 0.01 0.01 0.00 0.00 0.00 0.01 0.00 0.01
0.10 0.09 0.06 0.07 0.07 0.02 0.00 0.00 0.00 0.00 0.00 0.00 0.00 0.00 0.00 0.00 0.00 0.00 0.00 0.00 0.00 0.00 0.00 0.01 0.01 0.00 0.00 0.00 0.00 0.00 0.00 0.00 0.00 0.00 0.01 0.01 0.01 0.01 0.00 0.00 0.00 0.01 0.00
0.12 0.12 0.16 0.14 0.10 0.04 0.00 0.00 0.00 0.00 0.00 0.00 0.00 0.00 0.00 0.00 0.00 0.00 0.00 0.00 0.00 0.00 0.00 0.00 0.00 0.00 0.00 0.00 0.00 0.00 0.00 0.00 0.00 0.00 0.00 0.00 0.01 0.02 0.01 0.01 0.00 0.01 0.01
0.35 0.16 0.08 0.08 0.10 0.05 0.00 0.00 0.00 0.00 0.00 0.00 0.00 0.00 0.00 0.00 0.00 0.00 0.00 0.00 0.00 0.00 0.00 0.00 0.00 0.00 0.00 0.00 0.00 0.00 0.00 0.00 0.00 0.00 0.00 0.00 0.00 0.01 0.01 0.02 0.01 0.01 0.01
0.69 0.23 0.14 0.06 0.04 0.05 0.01 0.01 0.00 0.00 0.00 0.00 0.00 0.00 0.00 0.00 0.00 0.00 0.00 0.00 0.00 0.00 0.00 0.00 0.01 0.00 0.00 0.00 0.00 0.00 0.00 0.00 0.00 0.00 0.00 0.00 0.01 0.00 0.01 0.01 0.01 0.01 0.01
0.69 0.34 0.22 0.10 0.05 0.05 0.02 0.01 0.00 0.00 0.00 0.00 0.00 0.00 0.00 0.00 0.00 0.00 0.00 0.00 0.00 0.00 0.00 0.00 0.00 0.00 0.00 0.00 0.00 0.00 0.00 0.00 0.00 0.00 0.00 0.00 0.00 0.00 0.01 0.02 0.01 0.01 0.01
0.53 0.43 0.23 0.11 0.05 0.04 0.02 0.01 0.00 0.00 0.00 0.00 0.00 0.00 0.00 0.01 0.00 0.00 0.00 0.00 0.00 0.00 0.00 0.00 0.00 0.00 0.00 0.00 0.00 0.00 0.00 0.00 0.00 0.00 0.00 0.00 0.00 0.00 0.01 0.02 0.02 0.02 0.02
0.26 0.46 0.28 0.12 0.02 0.02 0.04 0.05 0.02 0.02 0.02 0.01 0.01 0.01 0.00 0.03 0.10 0.10 0.02 0.00 0.00 0.00 0.00 0.00 0.00 0.00 0.00 0.00 0.00 0.00 0.00 0.00 0.00 0.00 0.00 0.00 0.01 0.01 0.02 0.03 0.03 0.03 0.03
0.26 0.23 0.30 0.21 0.09 0.07 0.11 0.18 0.13 0.13 0.14 0.21 0.14 0.04 0.02 0.01 0.02 0.13 0.11 0.05 0.01 0.00 0.00 0.00 0.00 0.00 0.00 0.00 0.00 0.00 0.00 0.00 0.00 0.00 0.00 0.00 0.00 0.01 0.04 0.07 0.10 0.09 0.09
0.59 0.47 0.38 0.38 0.28 0.24 0.31 0.42 0.46 0.28 0.19 0.19 0.29 0.16 0.17 0.14 0.08 0.06 0.05 0.06 0.10 0.05 0.02 0.03 0.04 0.03 0.02 0.01 0.00 0.00 0.00 0.00 0.00 0.00 0.00 0.01 0.01 0.04 0.10 0.11 0.12 0.14 0.19
0.47 0.54 0.43 0.44 0.44 0.42 0.43 0.41 0.46 0.38 0.35 0.30 0.31 0.34 0.31 0.21 0.13 0.10 0.14 0.10 0.12 0.11 0.06 0.04 0.03 0.04 0.05 0.05 0.04 0.03 0.01 0.00 0.00 0.00 0.01 0.02 0.05 0.08 0.16 0.24 0.31 0.35 0.33
0.32 0.48 0.50 0.55 0.49 0.43 0.41 0.39 0.42 0.44 0.44 0.44 0.40 0.34 0.31 0.24 0.20 0.21 0.27 0.34 0.31 0.21 0.14 0.07 0.05 0.09 0.09 0.08 0.05 0.03 0.03 0.02 0.02 0.05 0.08 0.10 0.13 0.17 0.20 0.18 0.17 0.19 0.25
0.16 0.22 0.33 0.41 0.41 0.53 0.67 0.68 0.62 0.52 0.52 0.40 0.33 0.27 0.21 0.12 0.16 0.18 0.16 0.19 0.23 0.25 0.16 0.09 0.11 0.10 0.11 0.09 0.07 0.05 0.05 0.09 0.13 0.12 0.12 0.11 0.09 0.10 0.11 0.12 0.07 0.05 0.07
0.40 0.46 0.46 0.50 0.64 0.67 0.68 0.65 0.49 0.37 0.36 0.28 0.23 0.27 0.26 0.19 0.17 0.21 0.21 0.21 0.26 0.33 0.31 0.15 0.09 0.07 0.08 0.10 0.11 0.10 0.08 0.09 0.06 0.04 0.04 0.03 0.02 0.02 0.04 0.06 0.06 0.03 0.05
0.56 0.59 0.60 0.52 0.39 0.32 0.34 0.43 0.51 0.52 0.48 0.41 0.38 0.35 0.29 0.32 0.36 0.33 0.31 0.30 0.28 0.29 0.32 0.16 0.08 0.06 0.08 0.09 0.07 0.06 0.05 0.03 0.03 0.03 0.02 0.02 0.02 0.01 0.02 0.03 0.04 0.05 0.03
1.15 0.90 0.68 0.45 0.30 0.19 0.13 0.13 0.20 0.26 0.28 0.32 0.31 0.31 0.28 0.34 0.41 0.36 0.29 0.22 0.17 0.15 0.18 0.12 0.07 0.06 0.05 0.05 0.05 0.04 0.02 0.02 0.04 0.06 0.06 0.05 0.03 0.03 0.03 0.02 0.03 0.03 0.05
0.49 0.30 0.20 0.15 0.11 0.07 0.05 0.05 0.09 0.20 0.27 0.20 0.18 0.19 0.15 0.15 0.13 0.11 0.11 0.10 0.10 0.13 0.16 0.20 0.14 0.08 0.06 0.03 0.03 0.03 0.04 0.04 0.04 0.04 0.05 0.05 0.06 0.06 0.07 0.08 0.08 0.08 0.08
0.17 0.16 0.15 0.16 0.12 0.06 0.05 0.10 0.12 0.11 0.13 0.13 0.09 0.06 0.07 0.07 0.07 0.07 0.10 0.10 0.10 0.11 0.11 0.11 0.10 0.07 0.04 0.03 0.05 0.07 0.08 0.07 0.07 0.08 0.13 0.14 0.14 0.14 0.12 0.13 0.18 0.18 0.20
0.26 0.21 0.21 0.12 0.12 0.16 0.19 0.20 0.16 0.15 0.08 0.05 0.03 0.03 0.04 0.08 0.09 0.06 0.04 0.04 0.05 0.09 0.12 0.12 0.13 0.11 0.08 0.09 0.11 0.13 0.15 0.13 0.14 0.17 0.18 0.16 0.22 0.24 0.23 0.36 0.41 0.46 0.36
0.20 0.23 0.25 0.27 0.28 0.31 0.42 0.35 0.20 0.08 0.05 0.05 0.04 0.05 0.06 0.11 0.06 0.09 0.10 0.12 0.10 0.12 0.16 0.17 0.15 0.15 0.12 0.14 0.21 0.29 0.32 0.36 0.38 0.34 0.38 0.32 0.26 0.25 0.31 0.34 0.42 0.50 0.46
0.23 0.22 0.30 0.38 0.42 0.43 0.54 0.33 0.31 0.14 0.11 0.12 0.08 0.07 0.06 0.09 0.15 0.06 0.15 0.18 0.18 0.24 0.23 0.20 0.22 0.25 0.35 0.41 0.50 0.58 0.55 0.48 0.40 0.29 0.28 0.23 0.22 0.23 0.25 0.34 0.44 0.40 0.46
0.26 0.31 0.34 0.32 0.27 0.26 0.41 0.42 0.47 0.26 0.14 0.10 0.09 0.12 0.12 0.12 0.18 0.23 0.16 0.21 0.24 0.31 0.40 0.43 0.50 0.59 0.58 0.50 0.44 0.46 0.46 0.47 0.43 0.37 0.38 0.46 0.42 0.40 0.34 0.33 0.42 0.31 0.29
0.30 0.26 0.19 0.18 0.19 0.19 0.43 0.36 0.34 0.19 0.16 0.18 0.22 0.29 0.38 0.23 0.52 0.49 0.30 0.30 0.36 0.44 0.66 0.55 0.46 0.55 0.53 0.41 0.36 0.42 0.53 0.82 1.00 0.79 0.65 0.65 0.59 0.54 0.52 0.51 0.50 0.43 0.34
0.11 0.12 0.13 0.13 0.29 0.17 0.42 0.33 0.28 0.13 0.15 0.18 0.25 0.38 0.77 0.38 0.43 0.33 0.22 0.16 0.39 0.70 0.56 0.56 0.60 0.67 0.64 0.68 0.79 0.68 0.70 1.11 1.37 1.31 1.09 1.07 0.96 0.97 1.00 0.74 0.59 0.49 0.43

GFSMA_prec_precacc_078.txt.gz
Total_Precipitation_Accumulation
0.27 0.29 0.15 0.14 0.14 0.18 0.28 0.14 0.06 0.03 0.02 0.00 0.00 0.00 0.00 0.00 0.00 0.00 0.00 0.00 0.01 0.03 0.06 0.06 0.03 0.01 0.01 0.01 0.01 0.00 0.01 0.01 0.00 0.00 0.00 0.00 0.00 0.00 0.01 0.01 0.02 0.08 0.17
0.24 0.19 0.10 0.14 0.09 0.13 0.21 0.08 0.02 0.02 0.01 0.00 0.00 0.00 0.00 0.00 0.00 0.00 0.00 0.00 0.00 0.02 0.04 0.04 0.02 0.01 0.01 0.01 0.00 0.00 0.00 0.00 0.01 0.00 0.00 0.00 0.00 0.00 0.00 0.01 0.00 0.02 0.12
0.21 0.15 0.07 0.10 0.12 0.09 0.15 0.09 0.03 0.02 0.01 0.00 0.00 0.00 0.00 0.00 0.00 0.00 0.00 0.00 0.00 0.01 0.02 0.02 0.01 0.00 0.00 0.00 0.00 0.00 0.00 0.00 0.00 0.01 0.01 0.01 0.01 0.00 0.00 0.00 0.01 0.00 0.01
0.15 0.13 0.08 0.08 0.11 0.12 0.12 0.06 0.01 0.01 0.01 0.00 0.00 0.00 0.00 0.00 0.00 0.00 0.00 0.00 0.00 0.00 0.00 0.01 0.01 0.01 0.01 0.00 0.00 0.00 0.00 0.00 0.00 0.00 0.01 0.01 0.01 0.01 0.00 0.00 0.00 0.01 0.00
0.19 0.14 0.20 0.15 0.14 0.16 0.11 0.03 0.00 0.01 0.01 0.00 0.00 0.00 0.00 0.00 0.00 0.00 0.00 0.00 0.00 0.00 0.00 0.00 0.00 0.00 0.00 0.00 0.00 0.00 0.00 0.00 0.00 0.00 0.00 0.00 0.01 0.02 0.01 0.01 0.00 0.01 0.01
0.89 0.26 0.12 0.09 0.15 0.16 0.07 0.03 0.01 0.00 0.00 0.00 0.00 0.00 0.00 0.00 0.00 0.00 0.00 0.00 0.00 0.00 0.00 0.00 0.00 0.00 0.00 0.00 0.00 0.00 0.00 0.00 0.00 0.00 0.00 0.00 0.00 0.01 0.01 0.02 0.01 0.01 0.01
1.44 0.70 0.27 0.10 0.10 0.15 0.06 0.02 0.01 0.00 0.00 0.00 0.00 0.00 0.00 0.00 0.00 0.00 0.00 0.00 0.00 0.00 0.00 0.01 0.01 0.00 0.00 0.00 0.00 0.00 0.00 0.00 0.00 0.00 0.00 0.00 0.01 0.00 0.01 0.01 0.01 0.01 0.01
0.93 0.81 0.41 0.23 0.12 0.12 0.10 0.02 0.01 0.01 0.01 0.00 0.00 0.00 0.01 0.01 0.00 0.00 0.00 0.00 0.00 0.00 0.00 0.00 0.00 0.00 0.00 0.00 0.00 0.00 0.00 0.00 0.00 0.00 0.00 0.00 0.00 0.00 0.01 0.02 0.01 0.01 0.01
0.69 0.77 0.45 0.37 0.19 0.09 0.06 0.01 0.00 0.00 0.00 0.00 0.00 0.00 0.01 0.01 0.01 0.00 0.00 0.00 0.00 0.00 0.00 0.00 0.00 0.00 0.00 0.00 0.00 0.00 0.00 0.00 0.00 0.00 0.01 0.00 0.00 0.00 0.01 0.02 0.02 0.02 0.02
0.42 0.82 0.53 0.38 0.22 0.06 0.06 0.05 0.02 0.02 0.02 0.01 0.01 0.01 0.00 0.03 0.10 0.10 0.02 0.00 0.00 0.00 0.00 0.00 0.00 0.00 0.00 0.00 0.00 0.00 0.00 0.00 0.00 0.00 0.00 0.01 0.01 0.01 0.02 0.03 0.03 0.03 0.03
0.29 0.54 0.52 0.40 0.19 0.11 0.12 0.18 0.13 0.13 0.14 0.21 0.14 0.05 0.02 0.01 0.02 0.13 0.11 0.05 0.01 0.00 0.00 0.00 0.00 0.00 0.00 0.00 0.00 0.00 0.00 0.00 0.00 0.00 0.00 0.00 0.00 0.02 0.05 0.07 0.10 0.09 0.09
0.69 0.65 0.52 0.45 0.33 0.26 0.32 0.42 0.46 0.28 0.19 0.19 0.29 0.16 0.17 0.15 0.08 0.06 0.05 0.06 0.10 0.05 0.02 0.03 0.04 0.03 0.02 0.01 0.00 0.00 0.00 0.00 0.00 0.00 0.00 0.01 0.01 0.04 0.10 0.11 0.12 0.14 0.19
0.50 0.63 0.59 0.53 0.47 0.45 0.44 0.41 0.46 0.38 0.35 0.30 0.31 0.34 0.31 0.22 0.13 0.10 0.14 0.10 0.12 0.11 0.06 0.04 0.03 0.04 0.05 0.05 0.04 0.03 0.01 0.00 0.00 0.00 0.01 0.02 0.05 0.08 0.16 0.24 0.31 0.35 0.33
0.32 0.52 0.64 0.70 0.56 0.46 0.43 0.40 0.42 0.44 0.44 0.44 0.40 0.34 0.31 0.25 0.21 0.21 0.27 0.34 0.31 0.21 0.14 0.07 0.05 0.09 0.09 0.08 0.05 0.03 0.03 0.02 0.02 0.05 0.08 0.10 0.13 0.17 0.20 0.18 0.17 0.19 0.25
0.17 0.23 0.37 0.48 0.47 0.56 0.70 0.71 0.63 0.52 0.52 0.40 0.33 0.27 0.21 0.12 0.16 0.18 0.17 0.19 0.24 0.26 0.16 0.09 0.11 0.10 0.11 0.09 0.07 0.05 0.05 0.09 0.13 0.12 0.12 0.11 0.09 0.10 0.11 0.12 0.07 0.05 0.07
0.40 0.47 0.48 0.53 0.68 0.76 0.73 0.68 0.54 0.39 0.36 0.28 0.23 0.27 0.26 0.19 0.17 0.22 0.21 0.21 0.26 0.33 0.31 0.15 0.09 0.07 0.08 0.10 0.11 0.10 0.08 0.09 0.06 0.04 0.04 0.03 0.02 0.02 0.04 0.06 0.06 0.03 0.05
0.56 0.59 0.60 0.54 0.40 0.34 0.39 0.46 0.54 0.57 0.52 0.42 0.38 0.35 0.29 0.32 0.36 0.33 0.32 0.31 0.29 0.31 0.34 0.17 0.08 0.06 0.08 0.09 0.07 0.06 0.05 0.03 0.03 0.03 0.02 0.02 0.02 0.01 0.02 0.03 0.04 0.05 0.03
1.15 0.91 0.69 0.46 0.31 0.19 0.15 0.16 0.21 0.28 0.31 0.35 0.32 0.31 0.28 0.34 0.43 0.37 0.31 0.26 0.20 0.16 0.21 0.14 0.07 0.06 0.05 0.05 0.05 0.04 0.02 0.02 0.04 0.06 0.06 0.05 0.03 0.03 0.03 0.02 0.03 0.03 0.05
0.49 0.30 0.20 0.15 0.11 0.07 0.05 0.06 0.10 0.20 0.28 0.21 0.20 0.21 0.16 0.15 0.13 0.11 0.11 0.10 0.10 0.13 0.17 0.22 0.14 0.08 0.06 0.04 0.04 0.04 0.04 0.04 0.04 0.04 0.05 0.05 0.06 0.06 0.07 0.08 0.08 0.08 0.08
0.18 0.17 0.15 0.16 0.12 0.06 0.05 0.11 0.13 0.12 0.13 0.14 0.10 0.07 0.09 0.08 0.08 0.08 0.11 0.10 0.11 0.11 0.12 0.12 0.11 0.07 0.05 0.03 0.06 0.08 0.09 0.07 0.07 0.08 0.13 0.14 0.14 0.14 0.12 0.13 0.18 0.18 0.20
0.26 0.22 0.21 0.13 0.13 0.16 0.20 0.20 0.16 0.15 0.08 0.05 0.03 0.03 0.05 0.09 0.10 0.07 0.08 0.07 0.09 0.13 0.16 0.15 0.14 0.11 0.08 0.09 0.12 0.14 0.17 0.14 0.15 0.18 0.19 0.17 0.22 0.24 0.24 0.36 0.41 0.47 0.36
0.21 0.23 0.26 0.27 0.29 0.33 0.45 0.35 0.20 0.08 0.05 0.05 0.05 0.05 0.07 0.12 0.06 0.09 0.10 0.12 0.11 0.14 0.17 0.18 0.16 0.16 0.12 0.14 0.21 0.30 0.32 0.37 0.38 0.35 0.39 0.33 0.27 0.26 0.31 0.35 0.45 0.51 0.47
0.24 0.23 0.31 0.40 0.45 0.45 0.60 0.35 0.33 0.15 0.13 0.15 0.11 0.10 0.09 0.14 0.22 0.07 0.17 0.21 0.20 0.27 0.26 0.24 0.24 0.27 0.38 0.45 0.53 0.59 0.55 0.48 0.40 0.30 0.28 0.24 0.24 0.26 0.29 0.41 0.53 0.42 0.48
0.27 0.31 0.34 0.32 0.27 0.27 0.43 0.42 0.48 0.26 0.15 0.11 0.11 0.14 0.15 0.14 0.23 0.29 0.16 0.22 0.25 0.39 0.53 0.52 0.59 0.69 0.69 0.57 0.48 0.50 0.52 0.55 0.53 0.47 0.46 0.55 0.54 0.52 0.44 0.43 0.58 0.40 0.35
0.30 0.26 0.19 0.18 0.19 0.19 0.43 0.36 0.34 0.19 0.16 0.19 0.23 0.30 0.38 0.23 0.55 0.52 0.30 0.30 0.38 0.56 0.81 0.65 0.52 0.62 0.62 0.48 0.42 0.46 0.60 1.04 1.34 1.21 1.11 1.09 0.99 0.90 0.87 0.81 0.77 0.66 0.51
0.11 0.12 0.13 0.13 0.29 0.17 0.42 0.33 0.28 0.13 0.15 0.18 0.25 0.38 0.77 0.39 0.44 0.33 0.22 0.16 0.39 0.75 0.62 0.64 0.69 0.79 0.78 0.82 0.96 0.82 0.83 1.29 1.64 1.67 1.46 1.42 1.35 1.36 1.38 1.09 0.89 0.77 0.66

GFSMA_prec_precacc_084.txt.gz
Total_Precipitation_Accumulation
0.29 0.30 0.16 0.16 0.16 0.22 0.43 0.43 0.31 0.26 0.23 0.13 0.01 0.00 0.00 0.00 0.00 0.00 0.00 0.01 0.02 0.03 0.06 0.07 0.03 0.02 0.01 0.01 0.01 0.01 0.01 0.01 0.00 0.00 0.00 0.00 0.00 0.00 0.01 0.01 0.02 0.08 0.17
0.29 0.21 0.13 0.15 0.10 0.18 0.38 0.49 0.46 0.38 0.27 0.10 0.04 0.00 0.00 0.00 0.00 0.00 0.00 0.00 0.01 0.03 0.05 0.05 0.03 0.02 0.02 0.02 0.01 0.01 0.01 0.01 0.01 0.01 0.00 0.00 0.00 0.00 0.00 0.01 0.00 0.02 0.12
0.28 0.18 0.11 0.12 0.14 0.15 0.32 0.45 0.56 0.62 0.38 0.16 0.02 0.00 0.00 0.00 0.00 0.00 0.00 0.00 0.00 0.01 0.03 0.04 0.03 0.01 0.02 0.01 0.00 0.00 0.00 0.00 0.00 0.01 0.01 0.01 0.01 0.00 0.00 0.00 0.01 0.00 0.01
0.26 0.19 0.12 0.11 0.14 0.20 0.36 0.41 0.43 0.64 0.39 0.13 0.01 0.00 0.00 0.00 0.00 0.00 0.00 0.00 0.00 0.00 0.01 0.03 0.02 0.02 0.03 0.01 0.00 0.00 0.00 0.00 0.00 0.00 0.01 0.01 0.01 0.01 0.00 0.00 0.00 0.01 0.00
0.30 0.26 0.26 0.17 0.17 0.28 0.41 0.44 0.39 0.47 0.27 0.11 0.00 0.00 0.00 0.00 0.00 0.00 0.00 0.00 0.00 0.00 0.00 0.00 0.01 0.01 0.02 0.02 0.00 0.00 0.00 0.00 0.00 0.00 0.00 0.00 0.01 0.02 0.01 0.01 0.00 0.01 0.01
1.01 0.38 0.23 0.15 0.17 0.22 0.39 0.49 0.43 0.31 0.16 0.04 0.00 0.00 0.00 0.00 0.00 0.00 0.00 0.00 0.00 0.00 0.00 0.00 0.00 0.00 0.00 0.01 0.00 0.00 0.00 0.00 0.00 0.00 0.00 0.00 0.00 0.01 0.01 0.02 0.01 0.01 0.01
1.73 0.97 0.49 0.19 0.15 0.17 0.21 0.32 0.40 0.24 0.22 0.04 0.00 0.01 0.01 0.00 0.00 0.00 0.00 0.00 0.00 0.00 0.00 0.01 0.01 0.00 0.00 0.00 0.00 0.00 0.00 0.00 0.00 0.00 0.00 0.00 0.01 0.00 0.01 0.01 0.01 0.01 0.01
1.02 1.33 0.74 0.49 0.25 0.23 0.20 0.32 0.31 0.19 0.17 0.04 0.00 0.01 0.03 0.03 0.01 0.00 0.00 0.00 0.00 0.00 0.00 0.00 0.00 0.00 0.00 0.00 0.00 0.00 0.00 0.00 0.00 0.00 0.00 0.00 0.00 0.00 0.01 0.02 0.01 0.01 0.01
0.76 1.00 0.92 0.71 0.45 0.34 0.19 0.14 0.23 0.13 0.07 0.05 0.00 0.00 0.02 0.02 0.02 0.01 0.00 0.00 0.00 0.00 0.00 0.00 0.00 0.00 0.00 0.00 0.00 0.00 0.00 0.00 0.00 0.00 0.01 0.00 0.00 0.00 0.01 0.02 0.02 0.02 0.02
0.51 0.91 0.79 0.68 0.48 0.33 0.33 0.17 0.18 0.17 0.10 0.04 0.03 0.01 0.00 0.03 0.10 0.11 0.03 0.01 0.00 0.00 0.00 0.00 0.00 0.00 0.00 0.00 0.00 0.00 0.00 0.00 0.00 0.00 0.00 0.01 0.01 0.01 0.02 0.03 0.03 0.03 0.03
0.31 0.62 0.73 0.78 0.57 0.46 0.41 0.36 0.26 0.27 0.23 0.25 0.14 0.06 0.03 0.02 0.02 0.13 0.11 0.05 0.01 0.00 0.00 0.00 0.00 0.00 0.00 0.00 0.00 0.00 0.00 0.00 0.00 0.00 0.00 0.00 0.00 0.02 0.05 0.07 0.10 0.09 0.09
0.70 0.79 0.86 0.76 0.81 0.63 0.61 0.67 0.58 0.39 0.28 0.23 0.31 0.18 0.18 0.16 0.09 0.07 0.06 0.07 0.10 0.05 0.02 0.03 0.04 0.03 0.02 0.01 0.00 0.00 0.00 0.00 0.00 0.00 0.00 0.01 0.01 0.04 0.10 0.11 0.12 0.14 0.19
0.51 0.68 0.81 0.82 0.80 0.82 0.67 0.65 0.66 0.49 0.44 0.34 0.33 0.37 0.32 0.22 0.13 0.11 0.15 0.11 0.14 0.11 0.08 0.05 0.03 0.04 0.05 0.05 0.04 0.03 0.01 0.00 0.00 0.00 0.01 0.02 0.05 0.08 0.16 0.24 0.31 0.35 0.33
0.33 0.54 0.71 0.89 0.77 0.76 0.69 0.58 0.56 0.51 0.50 0.49 0.44 0.36 0.32 0.26 0.21 0.21 0.28 0.35 0.31 0.21 0.15 0.09 0.05 0.09 0.09 0.08 0.05 0.03 0.03 0.02 0.02 0.05 0.08 0.10 0.13 0.17 0.20 0.18 0.17 0.19 0.25
0.19 0.25 0.39 0.58 0.64 0.69 0.94 0.86 0.73 0.56 0.55 0.44 0.37 0.29 0.22 0.13 0.18 0.20 0.18 0.22 0.28 0.28 0.16 0.09 0.12 0.11 0.13 0.12 0.08 0.05 0.05 0.09 0.13 0.12 0.12 0.11 0.09 0.10 0.11 0.12 0.07 0.05 0.07
0.43 0.50 0.49 0.55 0.77 0.90 0.86 0.82 0.64 0.45 0.40 0.30 0.25 0.27 0.26 0.19 0.18 0.23 0.22 0.22 0.29 0.36 0.33 0.15 0.09 0.07 0.09 0.11 0.11 0.10 0.08 0.09 0.06 0.04 0.04 0.03 0.02 0.02 0.04 0.06 0.06 0.03 0.05
0.58 0.62 0.65 0.55 0.44 0.45 0.53 0.60 0.61 0.61 0.56 0.46 0.39 0.36 0.31 0.33 0.37 0.34 0.33 0.33 0.31 0.34 0.37 0.17 0.08 0.06 0.08 0.09 0.07 0.06 0.05 0.03 0.03 0.03 0.02 0.02 0.02 0.01 0.02 0.03 0.04 0.05 0.03
1.16 0.92 0.73 0.49 0.32 0.22 0.22 0.29 0.35 0.38 0.33 0.39 0.37 0.34 0.30 0.37 0.45 0.39 0.32 0.26 0.20 0.17 0.22 0.15 0.07 0.06 0.05 0.05 0.05 0.04 0.02 0.02 0.04 0.06 0.06 0.05 0.03 0.03 0.03 0.02 0.03 0.03 0.05
0.49 0.30 0.22 0.19 0.13 0.08 0.08 0.11 0.16 0.29 0.33 0.23 0.23 0.24 0.17 0.17 0.16 0.13 0.13 0.11 0.10 0.13 0.17 0.22 0.14 0.08 0.06 0.04 0.04 0.04 0.04 0.04 0.04 0.04 0.05 0.05 0.06 0.06 0.07 0.08 0.08 0.08 0.08
0.18 0.17 0.16 0.18 0.14 0.08 0.09 0.15 0.16 0.16 0.21 0.19 0.15 0.15 0.13 0.09 0.09 0.10 0.13 0.12 0.12 0.13 0.14 0.15 0.12 0.08 0.06 0.03 0.09 0.09 0.10 0.08 0.07 0.08 0.13 0.15 0.16 0.15 0.13 0.13 0.18 0.18 0.20
0.27 0.23 0.22 0.14 0.14 0.17 0.21 0.22 0.19 0.22 0.16 0.15 0.13 0.12 0.15 0.20 0.20 0.18 0.18 0.16 0.21 0.23 0.25 0.27 0.23 0.16 0.12 0.15 0.20 0.21 0.27 0.21 0.20 0.25 0.26 0.25 0.30 0.27 0.26 0.39 0.44 0.48 0.37
0.22 0.25 0.28 0.29 0.30 0.34 0.48 0.37 0.21 0.09 0.09 0.10 0.14 0.15 0.10 0.14 0.08 0.13 0.14 0.14 0.15 0.19 0.22 0.25 0.24 0.23 0.16 0.18 0.25 0.34 0.39 0.44 0.44 0.41 0.46 0.42 0.32 0.34 0.40 0.46 0.59 0.60 0.52
0.26 0.24 0.33 0.43 0.47 0.47 0.63 0.36 0.34 0.15 0.13 0.16 0.13 0.11 0.10 0.17 0.30 0.09 0.22 0.27 0.25 0.37 0.37 0.34 0.31 0.38 0.55 0.64 0.71 0.72 0.66 0.61 0.54 0.44 0.46 0.44 0.43 0.48 0.52 0.65 0.80 0.57 0.60
0.31 0.35 0.37 0.35 0.28 0.30 0.47 0.44 0.50 0.27 0.15 0.12 0.12 0.16 0.17 0.16 0.31 0.37 0.20 0.28 0.35 0.51 0.69 0.66 0.75 0.92 0.92 0.73 0.62 0.69 0.75 0.80 0.78 0.74 0.73 0.82 0.78 0.76 0.70 0.69 0.88 0.61 0.47
0.39 0.32 0.24 0.22 0.21 0.22 0.49 0.40 0.37 0.19 0.18 0.22 0.24 0.31 0.39 0.24 0.59 0.54 0.30 0.30 0.39 0.59 0.92 0.73 0.56 0.67 0.67 0.53 0.47 0.52 0.70 1.18 1.54 1.46 1.41 1.40 1.30 1.20 1.18 1.12 1.04 0.87 0.64
0.15 0.17 0.15 0.15 0.30 0.17 0.43 0.33 0.28 0.13 0.15 0.18 0.25 0.38 0.77 0.39 0.44 0.33 0.22 0.16 0.39 0.75 0.62 0.66 0.72 0.82 0.80 0.86 1.00 0.83 0.83 1.30 1.67 1.71 1.51 1.50 1.44 1.46 1.49 1.20 0.98 0.83 0.71

GFSMA_prec_precacc_087.txt.gz
Total_Precipitation_Accumulation
0.29 0.30 0.16 0.16 0.16 0.22 0.43 0.43 0.32 0.30 0.27 0.13 0.01 0.02 0.01 0.00 0.00 0.00 0.00 0.01 0.02 0.03 0.06 0.07 0.04 0.02 0.02 0.02 0.01 0.01 0.01 0.01 0.00 0.00 0.00 0.00 0.00 0.00 0.01 0.01 0.02 0.08 0.17
0.29 0.21 0.13 0.15 0.10 0.18 0.38 0.49 0.47 0.40 0.38 0.21 0.13 0.04 0.02 0.00 0.00 0.00 0.00 0.00 0.01 0.03 0.05 0.05 0.03 0.03 0.02 0.02 0.01 0.01 0.01 0.01 0.01 0.01 0.00 0.00 0.00 0.00 0.00 0.01 0.00 0.02 0.12
0.28 0.18 0.12 0.12 0.14 0.15 0.32 0.45 0.57 0.67 0.50 0.30 0.18 0.05 0.00 0.00 0.00 0.00 0.00 0.00 0.00 0.01 0.03 0.05 0.03 0.02 0.02 0.02 0.01 0.01 0.00 0.00 0.00 0.01 0.01 0.01 0.01 0.00 0.00 0.00 0.01 0.00 0.01
0.27 0.20 0.12 0.12 0.16 0.25 0.42 0.41 0.43 0.66 0.54 0.29 0.15 0.03 0.00 0.00 0.00 0.00 0.00 0.00 0.00 0.00 0.01 0.03 0.03 0.03 0.04 0.02 0.01 0.01 0.00 0.00 0.00 0.00 0.01 0.01 0.01 0.01 0.00 0.00 0.00 0.01 0.00
0.30 0.27 0.26 0.19 0.21 0.36 0.45 0.44 0.39 0.54 0.62 0.34 0.10 0.02 0.00 0.00 0.00 0.00 0.00 0.00 0.00 0.00 0.00 0.01 0.01 0.01 0.03 0.02 0.01 0.01 0.00 0.00 0.00 0.00 0.00 0.00 0.01 0.02 0.01 0.01 0.00 0.01 0.01
1.02 0.41 0.27 0.21 0.25 0.26 0.40 0.49 0.47 0.47 0.58 0.32 0.07 0.02 0.00 0.00 0.00 0.00 0.00 0.00 0.00 0.00 0.00 0.00 0.00 0.00 0.00 0.01 0.00 0.00 0.00 0.00 0.00 0.00 0.00 0.00 0.00 0.01 0.01 0.02 0.01 0.01 0.01
1.75 1.01 0.52 0.22 0.18 0.19 0.22 0.33 0.50 0.47 0.57 0.35 0.10 0.03 0.01 0.00 0.00 0.00 0.00 0.00 0.00 0.00 0.00 0.01 0.01 0.00 0.00 0.00 0.00 0.00 0.00 0.00 0.00 0.00 0.00 0.00 0.01 0.00 0.01 0.01 0.01 0.01 0.01
1.03 1.35 0.76 0.52 0.28 0.24 0.20 0.33 0.40 0.41 0.43 0.20 0.04 0.01 0.03 0.03 0.01 0.00 0.00 0.00 0.00 0.00 0.00 0.00 0.00 0.00 0.00 0.00 0.00 0.00 0.00 0.00 0.00 0.00 0.00 0.00 0.00 0.00 0.01 0.02 0.01 0.01 0.01
0.77 1.00 0.93 0.72 0.46 0.35 0.23 0.16 0.26 0.21 0.23 0.18 0.02 0.00 0.02 0.03 0.02 0.01 0.00 0.00 0.00 0.00 0.00 0.00 0.00 0.00 0.00 0.00 0.00 0.00 0.00 0.00 0.00 0.00 0.01 0.00 0.00 0.00 0.01 0.02 0.02 0.02 0.02
0.51 0.92 0.79 0.68 0.49 0.35 0.40 0.28 0.24 0.24 0.18 0.18 0.05 0.01 0.00 0.03 0.10 0.11 0.03 0.01 0.00 0.00 0.00 0.00 0.00 0.00 0.00 0.00 0.00 0.00 0.00 0.00 0.00 0.00 0.00 0.01 0.01 0.01 0.02 0.03 0.03 0.03 0.03
0.32 0.62 0.73 0.78 0.58 0.47 0.44 0.47 0.39 0.37 0.29 0.34 0.17 0.06 0.03 0.02 0.02 0.13 0.11 0.05 0.01 0.00 0.00 0.00 0.00 0.00 0.00 0.00 0.00 0.00 0.00 0.00 0.00 0.00 0.00 0.00 0.00 0.02 0.05 0.07 0.10 0.09 0.09
0.71 0.80 0.86 0.76 0.81 0.64 0.63 0.75 0.71 0.48 0.34 0.31 0.36 0.19 0.18 0.16 0.09 0.07 0.06 0.07 0.10 0.05 0.02 0.03 0.04 0.03 0.02 0.01 0.00 0.00 0.00 0.00 0.00 0.00 0.00 0.01 0.01 0.04 0.10 0.11 0.12 0.14 0.19
0.51 0.68 0.81 0.82 0.80 0.86 0.75 0.75 0.81 0.62 0.51 0.39 0.36 0.39 0.33 0.22 0.13 0.11 0.15 0.11 0.14 0.11 0.08 0.05 0.03 0.04 0.05 0.05 0.04 0.03 0.01 0.00 0.00 0.00 0.01 0.02 0.05 0.08 0.16 0.24 0.31 0.35 0.33
0.33 0.54 0.71 0.89 0.78 0.85 0.84 0.66 0.67 0.63 0.59 0.54 0.47 0.39 0.35 0.29 0.23 0.22 0.29 0.35 0.32 0.22 0.16 0.10 0.05 0.09 0.09 0.08 0.05 0.03 0.03 0.02 0.02 0.05 0.08 0.10 0.13 0.17 0.20 0.18 0.17 0.19 0.25
0.19 0.25 0.39 0.58 0.66 0.79 1.07 0.97 0.83 0.66 0.64 0.49 0.40 0.33 0.25 0.16 0.22 0.21 0.18 0.22 0.28 0.28 0.16 0.10 0.13 0.12 0.13 0.13 0.09 0.05 0.05 0.09 0.13 0.12 0.12 0.11 0.09 0.10 0.11 0.12 0.07 0.05 0.07
0.43 0.50 0.49 0.55 0.77 0.95 0.96 0.99 0.75 0.55 0.49 0.36 0.30 0.32 0.29 0.21 0.18 0.23 0.22 0.22 0.29 0.37 0.33 0.15 0.09 0.07 0.11 0.14 0.14 0.12 0.08 0.10 0.06 0.05 0.05 0.03 0.02 0.02 0.04 0.06 0.06 0.03 0.05
0.58 0.62 0.65 0.55 0.44 0.48 0.61 0.79 0.85 0.70 0.65 0.53 0.44 0.41 0.33 0.34 0.37 0.34 0.33 0.33 0.31 0.35 0.38 0.17 0.08 0.06 0.08 0.09 0.07 0.06 0.05 0.04 0.03 0.04 0.02 0.02 0.02 0.02 0.02 0.03 0.05 0.05 0.03
1.16 0.93 0.73 0.49 0.32 0.23 0.26 0.40 0.55 0.48 0.39 0.46 0.47 0.42 0.34 0.39 0.46 0.41 0.34 0.27 0.21 0.18 0.24 0.15 0.07 0.06 0.05 0.05 0.05 0.04 0.02 0.02 0.04 0.06 0.06 0.05 0.03 0.03 0.03 0.03 0.03 0.03 0.05
0.49 0.30 0.23 0.19 0.13 0.09 0.10 0.19 0.27 0.36 0.43 0.29 0.34 0.35 0.25 0.21 0.18 0.17 0.17 0.14 0.12 0.14 0.18 0.22 0.14 0.08 0.06 0.04 0.04 0.04 0.04 0.04 0.04 0.04 0.05 0.06 0.06 0.06 0.08 0.09 0.08 0.08 0.08
0.19 0.17 0.16 0.22 0.17 0.08 0.12 0.20 0.23 0.24 0.33 0.32 0.21 0.21 0.20 0.17 0.12 0.11 0.14 0.12 0.12 0.13 0.14 0.15 0.12 0.08 0.06 0.03 0.09 0.09 0.10 0.09 0.09 0.09 0.16 0.19 0.19 0.17 0.14 0.14 0.19 0.20 0.21
0.27 0.23 0.22 0.15 0.18 0.19 0.22 0.25 0.24 0.26 0.21 0.28 0.28 0.22 0.20 0.26 0.24 0.19 0.18 0.16 0.21 0.23 0.26 0.27 0.23 0.17 0.14 0.17 0.23 0.27 0.35 0.29 0.33 0.37 0.39 0.38 0.44 0.39 0.37 0.51 0.51 0.56 0.44
0.23 0.26 0.29 0.30 0.31 0.35 0.50 0.39 0.23 0.10 0.10 0.15 0.19 0.21 0.18 0.19 0.10 0.16 0.17 0.19 0.18 0.20 0.23 0.27 0.26 0.26 0.20 0.22 0.28 0.36 0.40 0.45 0.44 0.41 0.47 0.43 0.34 0.37 0.44 0.50 0.65 0.65 0.58
0.27 0.26 0.35 0.44 0.48 0.48 0.65 0.38 0.36 0.15 0.14 0.17 0.15 0.16 0.16 0.26 0.36 0.09 0.23 0.28 0.26 0.39 0.39 0.36 0.34 0.40 0.58 0.68 0.75 0.76 0.70 0.64 0.57 0.46 0.47 0.45 0.44 0.50 0.54 0.68 0.84 0.59 0.61
0.31 0.35 0.37 0.35 0.30 0.31 0.49 0.46 0.53 0.27 0.16 0.13 0.13 0.16 0.19 0.18 0.33 0.39 0.21 0.31 0.39 0.56 0.75 0.71 0.80 0.97 0.96 0.75 0.64 0.70 0.76 0.80 0.79 0.74 0.73 0.82 0.78 0.77 0.70 0.69 0.89 0.61 0.47
0.42 0.35 0.26 0.23 0.22 0.23 0.51 0.42 0.39 0.20 0.18 0.23 0.26 0.33 0.41 0.26 0.64 0.59 0.32 0.31 0.41 0.61 0.93 0.73 0.56 0.67 0.67 0.53 0.47 0.52 0.70 1.18 1.54 1.46 1.41 1.40 1.30 1.20 1.18 1.12 1.04 0.87 0.64
0.21 0.24 0.26 0.26 0.40 0.22 0.50 0.39 0.31 0.13 0.15 0.19 0.25 0.39 0.78 0.39 0.44 0.33 0.22 0.16 0.39 0.75 0.62 0.66 0.72 0.82 0.80 0.86 1.00 0.83 0.83 1.30 1.67 1.71 1.51 1.50 1.44 1.46 1.49 1.20 0.98 0.83 0.71

GFSMA_prec_precacc_090.txt.gz
Total_Precipitation_Accumulation
0.29 0.30 0.16 0.16 0.16 0.22 0.43 0.43 0.33 0.33 0.38 0.25 0.10 0.05 0.02 0.00 0.00 0.00 0.01 0.01 0.02 0.03 0.06 0.07 0.04 0.02 0.02 0.02 0.02 0.02 0.01 0.01 0.01 0.00 0.01 0.00 0.00 0.01 0.01 0.01 0.02 0.08 0.17
0.29 0.21 0.13 0.15 0.10 0.18 0.38 0.49 0.47 0.40 0.46 0.30 0.27 0.09 0.02 0.00 0.00 0.00 0.00 0.00 0.01 0.03 0.05 0.05 0.03 0.03 0.02 0.03 0.02 0.01 0.01 0.01 0.02 0.01 0.01 0.00 0.00 0.00 0.00 0.01 0.00 0.02 0.12
0.28 0.18 0.12 0.12 0.14 0.15 0.33 0.45 0.58 0.69 0.62 0.41 0.36 0.18 0.03 0.00 0.00 0.00 0.00 0.00 0.00 0.01 0.03 0.05 0.04 0.03 0.03 0.02 0.01 0.01 0.00 0.01 0.01 0.01 0.01 0.01 0.01 0.00 0.00 0.00 0.01 0.00 0.01
0.27 0.20 0.13 0.12 0.16 0.26 0.43 0.46 0.44 0.68 0.56 0.32 0.24 0.21 0.04 0.01 0.00 0.00 0.00 0.00 0.00 0.00 0.01 0.03 0.03 0.04 0.05 0.02 0.01 0.01 0.01 0.01 0.00 0.00 0.01 0.01 0.01 0.01 0.00 0.00 0.00 0.01 0.00
0.30 0.27 0.26 0.19 0.21 0.38 0.47 0.49 0.44 0.54 0.62 0.37 0.17 0.22 0.05 0.00 0.00 0.00 0.00 0.00 0.00 0.00 0.00 0.01 0.01 0.01 0.03 0.03 0.01 0.01 0.01 0.01 0.00 0.00 0.00 0.00 0.01 0.02 0.01 0.01 0.00 0.01 0.01
1.02 0.41 0.27 0.21 0.27 0.31 0.44 0.50 0.49 0.49 0.60 0.40 0.22 0.24 0.07 0.00 0.00 0.00 0.00 0.00 0.00 0.00 0.00 0.00 0.00 0.00 0.00 0.01 0.01 0.01 0.01 0.00 0.00 0.00 0.00 0.00 0.00 0.01 0.01 0.02 0.01 0.01 0.01
1.76 1.01 0.52 0.23 0.19 0.22 0.29 0.38 0.52 0.47 0.59 0.55 0.46 0.35 0.08 0.00 0.00 0.00 0.00 0.00 0.00 0.00 0.00 0.01 0.01 0.00 0.00 0.00 0.00 0.00 0.00 0.00 0.00 0.00 0.00 0.00 0.01 0.00 0.01 0.01 0.01 0.01 0.01
1.04 1.35 0.77 0.53 0.31 0.28 0.22 0.35 0.41 0.42 0.50 0.42 0.37 0.21 0.12 0.05 0.02 0.00 0.00 0.00 0.00 0.00 0.00 0.00 0.00 0.00 0.00 0.00 0.00 0.00 0.00 0.00 0.00 0.00 0.00 0.00 0.00 0.00 0.01 0.02 0.01 0.01 0.01
0.77 1.01 0.93 0.73 0.48 0.41 0.27 0.17 0.26 0.22 0.30 0.32 0.14 0.13 0.05 0.04 0.02 0.01 0.00 0.00 0.00 0.00 0.00 0.00 0.00 0.00 0.00 0.00 0.00 0.00 0.00 0.00 0.00 0.01 0.01 0.00 0.00 0.00 0.01 0.02 0.02 0.02 0.02
0.51 0.92 0.79 0.68 0.50 0.36 0.43 0.28 0.25 0.25 0.22 0.27 0.15 0.09 0.01 0.05 0.11 0.11 0.03 0.01 0.00 0.00 0.00 0.00 0.00 0.00 0.00 0.00 0.00 0.00 0.00 0.00 0.00 0.00 0.00 0.01 0.01 0.01 0.02 0.03 0.03 0.03 0.03
0.32 0.63 0.73 0.78 0.58 0.47 0.45 0.48 0.43 0.44 0.33 0.40 0.22 0.09 0.04 0.03 0.03 0.13 0.11 0.05 0.01 0.00 0.00 0.00 0.00 0.00 0.00 0.00 0.00 0.00 0.00 0.00 0.00 0.00 0.00 0.00 0.00 0.02 0.05 0.07 0.10 0.09 0.09
0.72 0.81 0.87 0.76 0.81 0.65 0.65 0.75 0.75 0.58 0.45 0.38 0.43 0.22 0.19 0.17 0.09 0.07 0.06 0.07 0.10 0.05 0.02 0.03 0.04 0.03 0.02 0.01 0.00 0.00 0.00 0.00 0.00 0.00 0.00 0.01 0.01 0.04 0.10 0.11 0.12 0.14 0.19
0.52 0.69 0.82 0.82 0.81 0.87 0.77 0.78 0.85 0.79 0.67 0.49 0.45 0.44 0.35 0.23 0.13 0.12 0.16 0.11 0.14 0.11 0.08 0.05 0.03 0.04 0.05 0.05 0.04 0.03 0.01 0.00 0.00 0.00 0.01 0.02 0.05 0.08 0.16 0.24 0.31 0.35 0.33
0.33 0.55 0.71 0.89 0.78 0.86 0.89 0.78 0.82 0.79 0.83 0.68 0.59 0.48 0.39 0.30 0.23 0.23 0.29 0.35 0.32 0.22 0.16 0.10 0.05 0.09 0.09 0.08 0.05 0.03 0.03 0.02 0.02 0.05 0.08 0.10 0.13 0.17 0.20 0.18 0.17 0.19 0.25
0.19 0.25 0.39 0.58 0.67 0.81 1.14 1.25 1.05 0.87 0.85 0.70 0.54 0.41 0.30 0.19 0.23 0.22 0.19 0.23 0.29 0.28 0.17 0.10 0.14 0.12 0.14 0.14 0.10 0.06 0.05 0.09 0.13 0.12 0.12 0.11 0.09 0.10 0.13 0.13 0.08 0.06 0.07
0.43 0.50 0.49 0.55 0.77 0.96 1.02 1.21 0.97 0.69 0.64 0.55 0.45 0.44 0.35 0.24 0.21 0.25 0.23 0.22 0.29 0.37 0.33 0.15 0.09 0.07 0.11 0.15 0.16 0.14 0.09 0.10 0.06 0.06 0.06 0.05 0.03 0.03 0.05 0.07 0.06 0.04 0.05
0.58 0.62 0.65 0.55 0.44 0.48 0.66 0.93 1.08 0.87 0.80 0.70 0.59 0.52 0.43 0.41 0.41 0.36 0.34 0.34 0.32 0.35 0.38 0.17 0.09 0.06 0.08 0.09 0.07 0.06 0.06 0.04 0.04 0.05 0.05 0.07 0.06 0.05 0.04 0.05 0.06 0.05 0.04
1.17 0.93 0.73 0.49 0.32 0.23 0.31 0.54 0.75 0.69 0.55 0.63 0.62 0.51 0.44 0.49 0.54 0.45 0.36 0.28 0.21 0.18 0.24 0.15 0.07 0.07 0.06 0.05 0.05 0.04 0.02 0.02 0.04 0.06 0.07 0.05 0.04 0.04 0.04 0.04 0.03 0.03 0.05
0.51 0.31 0.23 0.19 0.13 0.09 0.13 0.35 0.46 0.62 0.58 0.44 0.51 0.48 0.36 0.30 0.27 0.21 0.19 0.16 0.13 0.16 0.19 0.23 0.14 0.09 0.07 0.04 0.05 0.04 0.04 0.04 0.04 0.04 0.05 0.06 0.06 0.07 0.08 0.09 0.08 0.08 0.08
0.19 0.18 0.16 0.22 0.17 0.08 0.14 0.25 0.33 0.40 0.51 0.47 0.34 0.37 0.39 0.30 0.19 0.14 0.15 0.14 0.16 0.18 0.17 0.16 0.12 0.08 0.06 0.03 0.09 0.09 0.10 0.09 0.10 0.13 0.22 0.27 0.26 0.22 0.19 0.20 0.26 0.27 0.27
0.28 0.23 0.22 0.16 0.19 0.19 0.23 0.27 0.27 0.31 0.40 0.52 0.47 0.37 0.30 0.35 0.33 0.28 0.25 0.20 0.23 0.25 0.27 0.27 0.23 0.17 0.14 0.17 0.23 0.27 0.36 0.29 0.34 0.40 0.44 0.43 0.48 0.45 0.44 0.57 0.55 0.59 0.47
0.24 0.27 0.30 0.31 0.33 0.36 0.53 0.41 0.25 0.14 0.15 0.20 0.25 0.25 0.22 0.23 0.12 0.17 0.19 0.20 0.19 0.22 0.25 0.28 0.27 0.26 0.21 0.23 0.28 0.37 0.41 0.46 0.47 0.45 0.49 0.46 0.36 0.39 0.46 0.51 0.67 0.66 0.59
0.29 0.27 0.36 0.46 0.50 0.50 0.68 0.40 0.37 0.17 0.17 0.19 0.16 0.16 0.17 0.27 0.38 0.11 0.25 0.29 0.27 0.40 0.40 0.37 0.34 0.41 0.60 0.70 0.78 0.80 0.75 0.71 0.63 0.51 0.51 0.49 0.47 0.52 0.55 0.68 0.85 0.59 0.61
0.33 0.38 0.40 0.37 0.31 0.33 0.51 0.50 0.57 0.28 0.16 0.13 0.14 0.17 0.19 0.19 0.36 0.44 0.25 0.33 0.40 0.57 0.77 0.75 0.83 1.02 1.00 0.78 0.67 0.73 0.78 0.82 0.80 0.75 0.73 0.82 0.78 0.77 0.70 0.69 0.89 0.61 0.47
0.44 0.38 0.29 0.26 0.23 0.24 0.53 0.45 0.42 0.21 0.19 0.24 0.27 0.34 0.43 0.27 0.67 0.61 0.33 0.32 0.42 0.62 0.95 0.74 0.57 0.67 0.68 0.53 0.47 0.52 0.70 1.18 1.54 1.46 1.41 1.40 1.30 1.20 1.18 1.12 1.04 0.87 0.64
0.25 0.27 0.31 0.30 0.47 0.26 0.55 0.44 0.35 0.16 0.18 0.21 0.27 0.41 0.82 0.41 0.47 0.35 0.23 0.16 0.40 0.75 0.62 0.66 0.72 0.82 0.80 0.86 1.00 0.83 0.83 1.30 1.67 1.71 1.51 1.50 1.44 1.47 1.49 1.20 0.98 0.83 0.71

GFSMA_prec_precacc_093.txt.gz
Total_Precipitation_Accumulation
0.29 0.30 0.16 0.16 0.16 0.22 0.43 0.43 0.33 0.33 0.42 0.37 0.35 0.34 0.20 0.07 0.04 0.02 0.02 0.02 0.14 0.08 0.09 0.10 0.06 0.04 0.02 0.03 0.04 0.03 0.02 0.01 0.01 0.00 0.01 0.00 0.01 0.01 0.01 0.01 0.02 0.08 0.17
0.29 0.21 0.13 0.16 0.10 0.18 0.38 0.49 0.47 0.40 0.47 0.43 0.54 0.31 0.15 0.07 0.03 0.04 0.01 0.00 0.02 0.06 0.06 0.08 0.05 0.04 0.03 0.03 0.03 0.03 0.02 0.01 0.02 0.01 0.01 0.00 0.00 0.00 0.01 0.01 0.00 0.02 0.12
0.28 0.18 0.12 0.12 0.14 0.15 0.33 0.45 0.58 0.69 0.62 0.45 0.59 0.36 0.12 0.05 0.04 0.06 0.03 0.00 0.00 0.01 0.03 0.05 0.05 0.04 0.04 0.03 0.02 0.02 0.01 0.01 0.02 0.02 0.01 0.01 0.01 0.00 0.00 0.00 0.01 0.00 0.01
0.27 0.20 0.13 0.12 0.16 0.26 0.43 0.46 0.44 0.68 0.57 0.35 0.31 0.34 0.12 0.06 0.03 0.06 0.03 0.00 0.00 0.00 0.01 0.03 0.03 0.04 0.06 0.03 0.02 0.02 0.01 0.01 0.01 0.01 0.01 0.01 0.01 0.01 0.00 0.00 0.00 0.01 0.00
0.30 0.27 0.26 0.19 0.21 0.38 0.48 0.49 0.44 0.54 0.62 0.38 0.19 0.26 0.10 0.05 0.04 0.03 0.02 0.00 0.00 0.00 0.00 0.01 0.01 0.02 0.04 0.04 0.01 0.02 0.01 0.01 0.01 0.01 0.00 0.01 0.01 0.02 0.01 0.01 0.00 0.01 0.01
1.02 0.41 0.27 0.21 0.27 0.31 0.44 0.50 0.50 0.50 0.61 0.44 0.27 0.28 0.16 0.04 0.05 0.04 0.01 0.00 0.00 0.00 0.00 0.00 0.00 0.01 0.01 0.02 0.01 0.02 0.02 0.01 0.01 0.01 0.00 0.01 0.01 0.01 0.02 0.02 0.01 0.01 0.01
1.76 1.01 0.52 0.23 0.19 0.22 0.30 0.39 0.54 0.49 0.61 0.59 0.52 0.46 0.33 0.15 0.06 0.04 0.01 0.00 0.00 0.00 0.00 0.01 0.01 0.00 0.00 0.01 0.00 0.01 0.02 0.01 0.01 0.00 0.00 0.01 0.01 0.01 0.01 0.01 0.01 0.01 0.01
1.04 1.36 0.78 0.53 0.31 0.29 0.23 0.36 0.44 0.43 0.51 0.44 0.39 0.34 0.39 0.36 0.22 0.05 0.01 0.00 0.00 0.00 0.00 0.00 0.00 0.00 0.00 0.00 0.00 0.00 0.01 0.01 0.01 0.00 0.00 0.00 0.00 0.00 0.01 0.02 0.01 0.01 0.01
0.77 1.01 0.94 0.75 0.49 0.42 0.29 0.20 0.30 0.23 0.31 0.33 0.15 0.23 0.20 0.20 0.12 0.05 0.01 0.00 0.00 0.00 0.00 0.00 0.00 0.00 0.00 0.00 0.00 0.00 0.00 0.00 0.00 0.01 0.01 0.00 0.00 0.00 0.01 0.02 0.02 0.02 0.02
0.51 0.92 0.80 0.70 0.51 0.38 0.46 0.33 0.30 0.30 0.25 0.27 0.17 0.18 0.06 0.08 0.15 0.21 0.10 0.02 0.00 0.00 0.00 0.00 0.00 0.00 0.00 0.00 0.00 0.00 0.00 0.00 0.00 0.00 0.00 0.01 0.01 0.01 0.02 0.03 0.03 0.03 0.03
0.32 0.63 0.74 0.80 0.59 0.48 0.47 0.50 0.47 0.46 0.36 0.41 0.23 0.17 0.15 0.10 0.15 0.27 0.24 0.10 0.01 0.00 0.00 0.00 0.00 0.00 0.00 0.00 0.00 0.00 0.00 0.00 0.00 0.00 0.00 0.00 0.00 0.02 0.05 0.07 0.10 0.09 0.09
0.72 0.81 0.87 0.77 0.82 0.66 0.65 0.77 0.78 0.60 0.46 0.42 0.48 0.25 0.25 0.25 0.19 0.17 0.12 0.09 0.10 0.05 0.02 0.03 0.04 0.03 0.02 0.01 0.00 0.00 0.00 0.00 0.00 0.00 0.00 0.01 0.01 0.04 0.10 0.11 0.12 0.14 0.19
0.52 0.69 0.82 0.83 0.81 0.87 0.78 0.79 0.86 0.80 0.69 0.55 0.56 0.49 0.38 0.27 0.21 0.21 0.22 0.13 0.14 0.11 0.08 0.05 0.03 0.04 0.05 0.05 0.04 0.03 0.01 0.00 0.00 0.00 0.01 0.02 0.05 0.08 0.16 0.24 0.31 0.35 0.33
0.33 0.55 0.72 0.90 0.79 0.87 0.91 0.79 0.84 0.81 0.90 0.81 0.71 0.61 0.44 0.34 0.29 0.26 0.31 0.40 0.34 0.23 0.16 0.10 0.05 0.09 0.09 0.08 0.05 0.03 0.03 0.02 0.02 0.05 0.08 0.10 0.13 0.17 0.20 0.18 0.17 0.19 0.25
0.19 0.25 0.39 0.59 0.67 0.81 1.16 1.29 1.12 0.95 0.94 0.87 0.69 0.57 0.38 0.25 0.27 0.23 0.20 0.24 0.30 0.29 0.17 0.10 0.14 0.12 0.14 0.14 0.10 0.06 0.05 0.09 0.13 0.12 0.12 0.11 0.09 0.10 0.13 0.13 0.08 0.06 0.08
0.43 0.50 0.49 0.55 0.77 0.97 1.03 1.24 1.08 0.87 0.88 0.76 0.70 0.67 0.51 0.33 0.26 0.26 0.23 0.23 0.30 0.38 0.35 0.16 0.09 0.07 0.11 0.15 0.16 0.14 0.09 0.11 0.06 0.06 0.06 0.05 0.04 0.03 0.06 0.08 0.07 0.05 0.05
0.58 0.62 0.65 0.55 0.44 0.48 0.66 0.96 1.21 1.02 1.04 0.94 0.80 0.76 0.60 0.50 0.47 0.38 0.35 0.36 0.34 0.36 0.39 0.20 0.10 0.07 0.08 0.09 0.07 0.06 0.06 0.04 0.04 0.06 0.06 0.08 0.07 0.06 0.06 0.05 0.06 0.05 0.04
1.17 0.93 0.73 0.49 0.32 0.23 0.31 0.58 0.93 0.97 0.80 0.84 0.83 0.72 0.63 0.61 0.61 0.50 0.39 0.32 0.26 0.20 0.26 0.16 0.08 0.07 0.06 0.05 0.05 0.04 0.02 0.02 0.04 0.08 0.08 0.05 0.04 0.04 0.04 0.04 0.03 0.03 0.05
0.51 0.31 0.23 0.19 0.14 0.09 0.13 0.37 0.57 0.85 0.87 0.65 0.69 0.73 0.57 0.46 0.40 0.34 0.28 0.23 0.17 0.18 0.21 0.24 0.14 0.09 0.07 0.05 0.05 0.04 0.04 0.04 0.04 0.04 0.05 0.06 0.06 0.07 0.08 0.09 0.09 0.10 0.10
0.20 0.18 0.17 0.23 0.17 0.08 0.15 0.30 0.40 0.56 0.74 0.71 0.61 0.64 0.60 0.48 0.33 0.28 0.28 0.23 0.22 0.21 0.18 0.16 0.12 0.10 0.09 0.05 0.11 0.09 0.10 0.09 0.10 0.13 0.22 0.28 0.28 0.26 0.24 0.23 0.29 0.30 0.31
0.28 0.24 0.23 0.16 0.19 0.19 0.24 0.30 0.34 0.43 0.58 0.68 0.63 0.59 0.43 0.47 0.46 0.38 0.36 0.29 0.28 0.30 0.31 0.30 0.25 0.20 0.17 0.21 0.25 0.28 0.36 0.31 0.37 0.43 0.45 0.44 0.49 0.46 0.46 0.59 0.56 0.60 0.47
0.24 0.27 0.30 0.31 0.34 0.37 0.54 0.42 0.28 0.17 0.18 0.27 0.33 0.34 0.34 0.36 0.27 0.32 0.32 0.32 0.29 0.29 0.29 0.29 0.28 0.27 0.21 0.23 0.28 0.37 0.42 0.47 0.49 0.48 0.53 0.49 0.39 0.42 0.48 0.53 0.71 0.69 0.60
0.29 0.27 0.37 0.47 0.51 0.51 0.70 0.44 0.42 0.20 0.20 0.21 0.22 0.25 0.23 0.37 0.51 0.20 0.31 0.33 0.30 0.42 0.42 0.37 0.34 0.42 0.60 0.71 0.78 0.81 0.76 0.73 0.67 0.55 0.56 0.53 0.49 0.54 0.56 0.70 0.86 0.59 0.61
0.34 0.39 0.41 0.39 0.32 0.35 0.54 0.54 0.60 0.29 0.19 0.18 0.17 0.20 0.21 0.22 0.41 0.49 0.27 0.33 0.41 0.58 0.77 0.75 0.83 1.02 1.01 0.80 0.69 0.75 0.81 0.85 0.83 0.77 0.75 0.84 0.78 0.77 0.70 0.69 0.89 0.61 0.47
0.44 0.38 0.30 0.27 0.25 0.27 0.56 0.48 0.46 0.21 0.20 0.24 0.29 0.36 0.44 0.27 0.68 0.63 0.33 0.34 0.45 0.65 0.98 0.77 0.59 0.70 0.70 0.55 0.48 0.52 0.70 1.18 1.54 1.46 1.41 1.40 1.30 1.20 1.18 1.12 1.04 0.87 0.64
0.29 0.29 0.32 0.31 0.48 0.27 0.59 0.49 0.41 0.18 0.20 0.21 0.28 0.45 0.86 0.44 0.51 0.38 0.24 0.16 0.42 0.80 0.67 0.69 0.74 0.83 0.81 0.86 1.00 0.83 0.83 1.30 1.67 1.71 1.51 1.50 1.44 1.47 1.49 1.20 0.98 0.83 0.71

GFSMA_prec_precacc_099.txt.gz
Total_Precipitation_Accumulation
0.29 0.30 0.16 0.16 0.16 0.22 0.43 0.43 0.35 0.33 0.42 0.38 0.38 0.46 0.41 0.28 0.27 0.23 0.28 0.42 0.61 0.80 0.28 0.15 0.11 0.09 0.09 0.08 0.06 0.04 0.02 0.01 0.01 0.00 0.01 0.00 0.01 0.01 0.01 0.01 0.02 0.09 0.17
0.29 0.21 0.14 0.16 0.11 0.18 0.39 0.50 0.48 0.41 0.47 0.43 0.60 0.55 0.51 0.36 0.32 0.34 0.19 0.21 0.26 0.57 0.58 0.24 0.12 0.06 0.09 0.10 0.06 0.05 0.03 0.02 0.03 0.02 0.01 0.01 0.01 0.01 0.01 0.01 0.01 0.03 0.12
0.29 0.19 0.12 0.13 0.15 0.15 0.33 0.45 0.58 0.70 0.62 0.46 0.62 0.59 0.54 0.48 0.45 0.43 0.31 0.14 0.11 0.15 0.33 0.40 0.15 0.08 0.09 0.06 0.03 0.03 0.03 0.04 0.03 0.03 0.02 0.01 0.01 0.01 0.01 0.00 0.01 0.01 0.01
0.28 0.20 0.13 0.12 0.16 0.27 0.44 0.46 0.44 0.68 0.57 0.36 0.32 0.47 0.45 0.49 0.49 0.54 0.43 0.25 0.12 0.04 0.07 0.15 0.13 0.07 0.10 0.06 0.02 0.03 0.03 0.03 0.03 0.03 0.02 0.02 0.01 0.02 0.01 0.01 0.01 0.01 0.00
0.31 0.27 0.26 0.19 0.22 0.39 0.48 0.50 0.44 0.55 0.63 0.38 0.20 0.29 0.32 0.42 0.50 0.53 0.52 0.36 0.21 0.09 0.04 0.03 0.04 0.02 0.05 0.05 0.02 0.02 0.02 0.02 0.02 0.03 0.02 0.02 0.02 0.03 0.02 0.01 0.01 0.01 0.01
1.03 0.42 0.27 0.21 0.28 0.32 0.45 0.51 0.51 0.50 0.61 0.44 0.27 0.30 0.20 0.21 0.38 0.46 0.43 0.31 0.19 0.13 0.04 0.02 0.01 0.01 0.01 0.03 0.02 0.02 0.03 0.02 0.02 0.03 0.02 0.02 0.02 0.02 0.03 0.02 0.01 0.01 0.01
1.76 1.01 0.53 0.23 0.19 0.23 0.31 0.39 0.55 0.49 0.61 0.59 0.54 0.48 0.35 0.19 0.19 0.33 0.31 0.15 0.11 0.09 0.03 0.01 0.01 0.00 0.00 0.01 0.01 0.01 0.03 0.03 0.02 0.02 0.02 0.02 0.02 0.01 0.02 0.02 0.01 0.01 0.01
1.04 1.36 0.78 0.54 0.31 0.30 0.23 0.38 0.45 0.45 0.53 0.45 0.40 0.35 0.43 0.46 0.41 0.31 0.26 0.19 0.07 0.05 0.03 0.00 0.00 0.00 0.00 0.00 0.00 0.01 0.03 0.04 0.03 0.02 0.02 0.01 0.01 0.01 0.02 0.02 0.02 0.01 0.01
0.88 1.08 0.96 0.75 0.50 0.43 0.29 0.21 0.32 0.28 0.34 0.37 0.16 0.25 0.22 0.23 0.20 0.29 0.27 0.17 0.16 0.08 0.02 0.00 0.00 0.00 0.00 0.00 0.00 0.00 0.00 0.02 0.03 0.03 0.02 0.01 0.00 0.00 0.02 0.02 0.02 0.02 0.02
1.09 1.37 1.00 0.79 0.54 0.38 0.47 0.35 0.33 0.37 0.35 0.34 0.23 0.20 0.07 0.09 0.18 0.29 0.27 0.26 0.16 0.10 0.04 0.00 0.00 0.00 0.00 0.00 0.00 0.00 0.00 0.00 0.01 0.02 0.01 0.02 0.02 0.02 0.03 0.03 0.03 0.03 0.03
0.55 1.06 1.16 0.98 0.66 0.50 0.47 0.53 0.50 0.51 0.43 0.50 0.29 0.20 0.16 0.11 0.17 0.31 0.36 0.29 0.23 0.12 0.05 0.02 0.00 0.00 0.00 0.00 0.00 0.00 0.00 0.00 0.00 0.00 0.00 0.01 0.01 0.03 0.05 0.07 0.10 0.09 0.09
0.75 0.85 0.92 0.81 0.87 0.68 0.67 0.78 0.82 0.65 0.52 0.48 0.57 0.33 0.29 0.28 0.22 0.26 0.28 0.27 0.32 0.25 0.16 0.11 0.06 0.03 0.02 0.01 0.00 0.00 0.00 0.00 0.00 0.00 0.00 0.01 0.01 0.04 0.11 0.11 0.13 0.14 0.19
0.54 0.71 0.84 0.85 0.84 0.89 0.79 0.81 0.88 0.84 0.74 0.61 0.62 0.57 0.47 0.33 0.26 0.33 0.42 0.39 0.39 0.31 0.29 0.17 0.06 0.04 0.05 0.05 0.04 0.03 0.01 0.00 0.00 0.00 0.01 0.02 0.05 0.08 0.16 0.25 0.31 0.35 0.33
0.36 0.60 0.73 0.93 0.81 0.88 0.93 0.82 0.87 0.84 0.93 0.84 0.74 0.64 0.49 0.44 0.38 0.36 0.44 0.58 0.58 0.43 0.27 0.16 0.07 0.09 0.09 0.08 0.05 0.03 0.03 0.02 0.02 0.05 0.08 0.10 0.13 0.17 0.20 0.18 0.17 0.19 0.26
0.29 0.36 0.42 0.62 0.70 0.84 1.18 1.31 1.16 0.98 0.99 0.90 0.73 0.62 0.45 0.31 0.37 0.40 0.31 0.31 0.40 0.47 0.31 0.16 0.15 0.13 0.14 0.14 0.10 0.06 0.05 0.09 0.13 0.12 0.12 0.11 0.09 0.10 0.13 0.13 0.08 0.06 0.08
0.58 0.60 0.54 0.57 0.79 0.98 1.05 1.26 1.10 0.90 0.94 0.85 0.81 0.78 0.61 0.41 0.35 0.39 0.37 0.31 0.37 0.45 0.45 0.23 0.12 0.08 0.11 0.15 0.16 0.14 0.09 0.11 0.06 0.06 0.06 0.05 0.04 0.03 0.06 0.08 0.07 0.05 0.05
0.75 0.65 0.67 0.56 0.45 0.49 0.68 0.98 1.23 1.05 1.11 1.11 1.02 0.96 0.76 0.65 0.69 0.58 0.51 0.48 0.43 0.43 0.46 0.30 0.12 0.07 0.09 0.10 0.08 0.06 0.06 0.04 0.05 0.06 0.06 0.08 0.07 0.06 0.06 0.05 0.06 0.05 0.04
1.20 0.94 0.73 0.50 0.33 0.24 0.32 0.58 0.94 0.99 0.87 0.94 1.03 1.04 0.99 0.84 0.80 0.72 0.61 0.50 0.36 0.30 0.30 0.25 0.16 0.09 0.08 0.07 0.07 0.06 0.05 0.03 0.05 0.10 0.09 0.05 0.04 0.04 0.04 0.04 0.03 0.03 0.05
0.52 0.32 0.24 0.19 0.14 0.09 0.13 0.37 0.57 0.91 1.01 0.85 0.86 0.97 0.85 0.77 0.65 0.50 0.43 0.41 0.35 0.32 0.32 0.32 0.24 0.14 0.10 0.07 0.07 0.06 0.07 0.06 0.05 0.06 0.06 0.07 0.07 0.08 0.09 0.10 0.10 0.10 0.10
0.20 0.18 0.17 0.23 0.18 0.08 0.16 0.31 0.41 0.58 0.83 0.92 0.86 0.87 0.92 0.78 0.62 0.49 0.45 0.41 0.41 0.39 0.32 0.31 0.23 0.17 0.14 0.11 0.16 0.15 0.14 0.12 0.12 0.14 0.24 0.30 0.31 0.30 0.27 0.27 0.33 0.34 0.34
0.28 0.24 0.23 0.16 0.19 0.19 0.24 0.31 0.38 0.47 0.63 0.81 0.85 0.87 0.77 0.89 0.87 0.73 0.61 0.53 0.51 0.47 0.46 0.44 0.39 0.31 0.27 0.31 0.37 0.42 0.50 0.39 0.44 0.49 0.50 0.50 0.53 0.50 0.49 0.62 0.60 0.63 0.50
0.26 0.27 0.30 0.32 0.34 0.37 0.55 0.43 0.31 0.22 0.25 0.38 0.50 0.63 0.82 0.87 0.79 0.87 0.83 0.76 0.67 0.54 0.47 0.45 0.44 0.43 0.34 0.35 0.45 0.60 0.63 0.65 0.65 0.58 0.62 0.58 0.46 0.45 0.50 0.56 0.76 0.71 0.61
0.31 0.30 0.38 0.47 0.51 0.51 0.71 0.45 0.45 0.22 0.25 0.25 0.28 0.40 0.53 0.96 1.12 0.67 0.86 0.91 0.85 0.88 0.72 0.62 0.54 0.58 0.71 0.80 0.90 0.96 0.88 0.83 0.75 0.63 0.65 0.61 0.58 0.63 0.65 0.81 0.96 0.63 0.62
0.38 0.41 0.42 0.39 0.32 0.35 0.56 0.57 0.65 0.31 0.26 0.26 0.23 0.26 0.34 0.47 0.94 1.05 0.77 0.88 0.90 0.99 1.13 0.99 1.02 1.18 1.15 0.91 0.77 0.84 0.90 0.94 0.93 0.89 0.86 0.94 0.88 0.86 0.77 0.75 0.96 0.62 0.48
0.51 0.40 0.31 0.27 0.25 0.27 0.58 0.52 0.49 0.22 0.21 0.29 0.37 0.45 0.52 0.33 0.83 0.90 0.58 0.58 0.70 0.92 1.22 1.00 0.77 0.84 0.83 0.67 0.58 0.60 0.77 1.26 1.63 1.53 1.48 1.47 1.38 1.26 1.23 1.14 1.05 0.87 0.64
0.51 0.39 0.36 0.33 0.50 0.27 0.61 0.53 0.44 0.19 0.24 0.25 0.31 0.51 0.97 0.53 0.63 0.48 0.33 0.28 0.56 0.96 0.85 0.87 0.88 0.93 0.89 0.94 1.07 0.87 0.90 1.37 1.75 1.79 1.57 1.55 1.48 1.48 1.51 1.20 0.98 0.83 0.71

GFSMA_prec_precacc_105.txt.gz
Total_Precipitation_Accumulation
0.29 0.30 0.16 0.16 0.16 0.23 0.44 0.45 0.37 0.36 0.48 0.45 0.47 0.52 0.45 0.31 0.30 0.24 0.29 0.42 0.72 1.12 0.68 0.84 0.43 0.29 0.19 0.12 0.10 0.06 0.03 0.01 0.01 0.00 0.01 0.00 0.01 0.01 0.01 0.01 0.03 0.09 0.18
0.30 0.21 0.14 0.16 0.11 0.19 0.40 0.51 0.50 0.44 0.54 0.52 0.68 0.60 0.56 0.42 0.36 0.35 0.20 0.21 0.31 0.87 1.23 0.75 0.93 0.28 0.15 0.13 0.16 0.14 0.06 0.04 0.03 0.02 0.01 0.01 0.01 0.01 0.01 0.01 0.01 0.03 0.12
0.29 0.19 0.13 0.13 0.15 0.15 0.34 0.47 0.60 0.74 0.68 0.51 0.66 0.63 0.56 0.51 0.48 0.46 0.35 0.16 0.18 0.35 1.59 1.39 1.32 0.43 0.21 0.14 0.14 0.12 0.08 0.06 0.04 0.04 0.02 0.01 0.01 0.01 0.01 0.01 0.01 0.01 0.02
0.28 0.20 0.13 0.12 0.16 0.27 0.45 0.47 0.45 0.70 0.59 0.40 0.36 0.51 0.50 0.54 0.53 0.60 0.55 0.37 0.33 0.26 0.84 1.74 1.81 1.56 0.43 0.16 0.16 0.11 0.05 0.03 0.03 0.03 0.02 0.02 0.02 0.02 0.01 0.01 0.01 0.01 0.00
0.31 0.27 0.27 0.19 0.22 0.40 0.49 0.50 0.45 0.55 0.64 0.40 0.23 0.32 0.36 0.47 0.54 0.58 0.66 0.54 0.58 0.53 0.39 0.93 1.09 1.03 0.58 0.31 0.13 0.13 0.06 0.02 0.03 0.03 0.02 0.02 0.02 0.03 0.03 0.01 0.01 0.01 0.01
1.03 0.42 0.28 0.21 0.28 0.33 0.47 0.52 0.51 0.50 0.62 0.45 0.29 0.31 0.23 0.27 0.42 0.52 0.62 0.64 0.61 0.85 0.56 0.68 0.41 0.47 0.24 0.10 0.10 0.10 0.08 0.02 0.02 0.03 0.02 0.02 0.02 0.03 0.03 0.02 0.01 0.01 0.01
1.77 1.02 0.53 0.23 0.20 0.23 0.31 0.40 0.56 0.50 0.62 0.60 0.55 0.49 0.37 0.23 0.24 0.38 0.50 0.46 0.68 0.66 0.79 0.90 0.44 0.23 0.09 0.04 0.02 0.05 0.06 0.04 0.03 0.03 0.03 0.03 0.03 0.02 0.02 0.02 0.01 0.01 0.01
1.05 1.36 0.78 0.54 0.32 0.31 0.24 0.39 0.46 0.45 0.54 0.46 0.41 0.36 0.43 0.47 0.44 0.33 0.32 0.36 0.40 0.51 0.55 1.08 0.88 0.31 0.11 0.04 0.01 0.01 0.04 0.05 0.03 0.03 0.03 0.03 0.01 0.01 0.02 0.03 0.02 0.02 0.02
0.94 1.10 0.97 0.77 0.50 0.44 0.31 0.23 0.33 0.29 0.34 0.38 0.17 0.25 0.22 0.24 0.21 0.31 0.32 0.27 0.32 0.33 0.29 0.51 0.82 0.43 0.18 0.09 0.03 0.01 0.01 0.03 0.04 0.04 0.04 0.02 0.01 0.01 0.02 0.02 0.02 0.03 0.02
1.16 1.43 1.07 0.90 0.64 0.43 0.51 0.36 0.35 0.39 0.36 0.35 0.24 0.22 0.09 0.12 0.19 0.31 0.31 0.31 0.22 0.21 0.24 0.22 0.27 0.26 0.15 0.08 0.05 0.02 0.00 0.00 0.02 0.02 0.02 0.03 0.02 0.02 0.03 0.03 0.03 0.03 0.04
0.57 1.08 1.22 1.17 0.92 0.68 0.61 0.63 0.54 0.53 0.45 0.51 0.30 0.22 0.19 0.14 0.22 0.33 0.37 0.32 0.28 0.17 0.09 0.11 0.15 0.14 0.11 0.03 0.02 0.01 0.00 0.00 0.00 0.01 0.02 0.01 0.01 0.03 0.06 0.07 0.10 0.09 0.10
0.79 0.89 1.07 0.91 0.98 0.94 0.92 1.06 1.04 0.73 0.54 0.50 0.59 0.34 0.32 0.30 0.25 0.30 0.31 0.29 0.34 0.28 0.22 0.17 0.10 0.08 0.08 0.06 0.02 0.01 0.00 0.00 0.00 0.00 0.01 0.02 0.02 0.05 0.11 0.12 0.13 0.15 0.19
0.58 0.72 0.89 0.88 0.85 0.93 0.82 0.84 0.96 0.95 0.79 0.63 0.63 0.59 0.49 0.38 0.34 0.38 0.53 0.47 0.42 0.31 0.31 0.26 0.17 0.10 0.06 0.05 0.04 0.03 0.01 0.00 0.00 0.00 0.01 0.03 0.06 0.09 0.17 0.25 0.32 0.36 0.34
0.37 0.62 0.79 0.99 0.90 0.99 1.01 0.87 0.90 0.88 0.96 0.87 0.76 0.66 0.51 0.46 0.46 0.44 0.50 0.65 0.63 0.45 0.28 0.17 0.12 0.18 0.16 0.12 0.07 0.03 0.03 0.02 0.02 0.05 0.08 0.10 0.13 0.17 0.20 0.18 0.17 0.20 0.27
0.32 0.40 0.47 0.78 0.93 1.04 1.33 1.44 1.19 1.02 1.02 0.94 0.77 0.66 0.48 0.32 0.39 0.44 0.40 0.42 0.48 0.53 0.33 0.19 0.18 0.15 0.16 0.18 0.15 0.08 0.06 0.09 0.13 0.12 0.12 0.11 0.09 0.10 0.13 0.13 0.08 0.06 0.08
0.65 0.70 0.66 0.75 0.98 1.28 1.40 1.44 1.18 0.97 1.00 0.88 0.83 0.81 0.64 0.45 0.38 0.41 0.39 0.35 0.43 0.54 0.52 0.27 0.17 0.11 0.14 0.18 0.18 0.16 0.10 0.11 0.06 0.06 0.06 0.05 0.04 0.03 0.06 0.08 0.07 0.05 0.05
0.85 0.80 0.81 0.70 0.61 0.71 1.04 1.37 1.49 1.25 1.19 1.14 1.04 0.98 0.78 0.67 0.72 0.61 0.55 0.52 0.47 0.48 0.53 0.38 0.19 0.15 0.16 0.17 0.14 0.11 0.08 0.06 0.05 0.06 0.06 0.08 0.07 0.06 0.06 0.05 0.06 0.05 0.04
1.35 1.09 0.79 0.59 0.41 0.35 0.51 1.15 1.51 1.41 1.00 0.97 1.05 1.06 1.01 0.87 0.84 0.75 0.64 0.56 0.43 0.36 0.36 0.32 0.24 0.18 0.14 0.12 0.16 0.19 0.18 0.13 0.06 0.10 0.09 0.05 0.04 0.04 0.04 0.04 0.03 0.03 0.05
0.58 0.40 0.28 0.23 0.18 0.14 0.18 0.45 0.88 1.20 1.12 0.90 0.88 0.99 0.87 0.80 0.69 0.56 0.49 0.46 0.41 0.39 0.47 0.45 0.32 0.19 0.15 0.14 0.23 0.31 0.22 0.12 0.05 0.06 0.07 0.07 0.08 0.09 0.10 0.11 0.11 0.11 0.11
0.28 0.25 0.22 0.25 0.19 0.11 0.20 0.34 0.44 0.63 0.87 0.95 0.90 0.91 0.95 0.83 0.66 0.54 0.50 0.48 0.50 0.52 0.45 0.40 0.32 0.26 0.21 0.18 0.27 0.22 0.17 0.15 0.15 0.16 0.25 0.33 0.35 0.35 0.33 0.32 0.37 0.38 0.39
0.47 0.32 0.28 0.17 0.20 0.19 0.25 0.32 0.39 0.48 0.64 0.83 0.87 0.89 0.78 0.91 0.91 0.85 0.72 0.62 0.62 0.62 0.64 0.62 0.55 0.46 0.40 0.41 0.44 0.46 0.53 0.42 0.49 0.54 0.54 0.53 0.58 0.56 0.59 0.73 0.72 0.74 0.59
0.59 0.37 0.36 0.35 0.35 0.37 0.57 0.45 0.32 0.23 0.26 0.39 0.51 0.64 0.83 0.89 0.82 0.95 1.00 0.98 0.87 0.77 0.71 0.63 0.56 0.52 0.44 0.42 0.50 0.63 0.68 0.71 0.73 0.63 0.67 0.70 0.58 0.57 0.61 0.67 0.90 0.83 0.72
1.04 0.81 0.55 0.52 0.54 0.52 0.73 0.46 0.47 0.22 0.26 0.26 0.28 0.40 0.53 0.99 1.19 0.78 1.03 1.10 1.16 1.31 1.10 0.93 0.77 0.71 0.83 0.92 1.01 1.06 0.97 0.91 0.82 0.73 0.81 0.81 0.75 0.80 0.80 0.96 1.08 0.72 0.70
1.49 1.34 0.85 0.56 0.38 0.37 0.59 0.58 0.67 0.32 0.27 0.27 0.23 0.26 0.34 0.47 0.98 1.14 0.93 1.15 1.27 1.42 1.66 1.43 1.40 1.56 1.43 1.18 1.00 0.99 1.05 1.13 1.17 1.12 1.07 1.15 1.05 1.00 0.91 0.88 1.13 0.72 0.57
1.25 1.25 1.07 0.73 0.49 0.38 0.68 0.58 0.52 0.22 0.22 0.29 0.37 0.47 0.54 0.33 0.84 0.94 0.68 0.77 1.02 1.38 1.77 1.57 1.29 1.29 1.31 1.20 1.04 0.96 1.12 1.52 1.88 1.74 1.61 1.56 1.48 1.38 1.37 1.28 1.19 0.97 0.70
1.21 1.06 0.99 0.85 0.90 0.49 0.75 0.59 0.47 0.20 0.25 0.26 0.33 0.53 1.03 0.58 0.67 0.51 0.37 0.35 0.66 1.14 1.13 1.22 1.23 1.33 1.27 1.33 1.49 1.20 1.20 1.65 1.98 2.00 1.71 1.65 1.57 1.56 1.60 1.30 1.04 0.89 0.73

GFSMA_prec_precacc_108.txt.gz
Total_Precipitation_Accumulation
0.29 0.30 0.16 0.16 0.16 0.23 0.45 0.45 0.37 0.36 0.48 0.46 0.48 0.54 0.49 0.34 0.36 0.37 0.36 0.43 0.76 1.14 0.74 0.97 0.65 0.57 0.60 0.40 0.22 0.06 0.03 0.02 0.01 0.00 0.01 0.00 0.01 0.01 0.01 0.01 0.03 0.09 0.18
0.30 0.21 0.14 0.16 0.11 0.19 0.40 0.52 0.50 0.46 0.56 0.53 0.69 0.62 0.59 0.46 0.41 0.43 0.27 0.23 0.32 0.87 1.27 0.85 1.11 0.58 0.42 0.33 0.28 0.16 0.06 0.04 0.03 0.02 0.01 0.01 0.01 0.01 0.01 0.01 0.01 0.03 0.12
0.29 0.19 0.13 0.13 0.15 0.16 0.34 0.47 0.61 0.77 0.69 0.53 0.66 0.64 0.58 0.53 0.50 0.48 0.40 0.20 0.19 0.35 1.62 1.47 1.48 0.67 0.64 0.50 0.25 0.15 0.10 0.08 0.05 0.04 0.02 0.01 0.01 0.01 0.01 0.01 0.01 0.01 0.02
0.28 0.20 0.13 0.12 0.16 0.28 0.46 0.47 0.46 0.71 0.60 0.41 0.37 0.51 0.50 0.56 0.55 0.61 0.57 0.40 0.34 0.26 0.86 1.81 1.94 1.98 1.03 0.89 0.45 0.14 0.09 0.06 0.05 0.04 0.02 0.02 0.02 0.02 0.01 0.01 0.01 0.01 0.00
0.31 0.28 0.27 0.19 0.22 0.40 0.50 0.50 0.45 0.56 0.64 0.41 0.23 0.32 0.37 0.49 0.57 0.60 0.68 0.57 0.59 0.53 0.41 0.97 1.15 1.49 1.65 1.20 0.78 0.20 0.10 0.04 0.03 0.03 0.02 0.02 0.02 0.03 0.03 0.01 0.01 0.01 0.01
1.03 0.42 0.28 0.21 0.28 0.33 0.47 0.53 0.51 0.51 0.62 0.45 0.30 0.32 0.24 0.29 0.45 0.54 0.63 0.65 0.61 0.86 0.57 0.72 0.42 0.51 0.64 0.85 0.79 0.32 0.14 0.04 0.02 0.03 0.02 0.02 0.02 0.03 0.03 0.02 0.01 0.01 0.01
1.79 1.02 0.53 0.24 0.20 0.24 0.31 0.40 0.56 0.51 0.62 0.61 0.57 0.50 0.38 0.24 0.25 0.38 0.50 0.47 0.68 0.66 0.80 0.92 0.45 0.27 0.23 0.37 0.44 0.32 0.12 0.05 0.03 0.03 0.03 0.03 0.03 0.02 0.02 0.02 0.01 0.01 0.01
1.18 1.43 0.84 0.59 0.38 0.33 0.24 0.39 0.46 0.46 0.55 0.47 0.42 0.36 0.44 0.47 0.44 0.35 0.33 0.36 0.40 0.51 0.55 1.10 1.05 0.42 0.23 0.18 0.28 0.21 0.14 0.11 0.05 0.03 0.03 0.03 0.01 0.01 0.03 0.03 0.02 0.02 0.02
0.97 1.14 1.00 0.85 0.76 0.86 0.64 0.29 0.34 0.30 0.35 0.39 0.17 0.25 0.22 0.24 0.21 0.31 0.32 0.28 0.32 0.33 0.29 0.53 1.12 0.77 0.45 0.24 0.19 0.13 0.07 0.09 0.07 0.05 0.04 0.02 0.01 0.01 0.02 0.02 0.02 0.03 0.02
1.20 1.48 1.11 0.97 0.78 0.62 0.69 0.56 0.43 0.41 0.37 0.35 0.25 0.23 0.09 0.12 0.19 0.31 0.31 0.32 0.23 0.21 0.24 0.24 0.53 0.91 0.69 0.41 0.19 0.08 0.03 0.02 0.03 0.03 0.02 0.03 0.02 0.02 0.03 0.03 0.04 0.04 0.05
0.58 1.10 1.24 1.18 0.96 0.77 0.69 0.73 0.59 0.55 0.47 0.51 0.31 0.22 0.19 0.15 0.22 0.34 0.37 0.33 0.29 0.17 0.09 0.12 0.20 0.44 0.69 0.70 0.31 0.14 0.03 0.00 0.00 0.01 0.02 0.02 0.01 0.03 0.06 0.07 0.10 0.09 0.10
0.86 0.97 1.15 0.95 1.01 0.97 0.97 1.19 1.25 0.88 0.64 0.56 0.60 0.35 0.32 0.31 0.25 0.30 0.31 0.30 0.35 0.28 0.23 0.17 0.11 0.14 0.27 0.50 0.38 0.26 0.10 0.00 0.00 0.00 0.01 0.03 0.03 0.05 0.11 0.12 0.13 0.15 0.19
0.82 0.98 1.03 0.94 0.89 0.94 0.87 0.91 1.12 1.18 0.99 0.72 0.67 0.60 0.49 0.38 0.34 0.39 0.55 0.49 0.42 0.32 0.31 0.27 0.18 0.13 0.11 0.13 0.19 0.21 0.15 0.06 0.01 0.00 0.02 0.03 0.06 0.09 0.17 0.26 0.32 0.36 0.34
0.45 0.84 1.03 1.08 0.93 1.02 1.14 1.10 1.15 1.04 1.08 1.11 0.90 0.73 0.56 0.47 0.47 0.45 0.52 0.68 0.64 0.46 0.28 0.17 0.12 0.19 0.18 0.13 0.09 0.06 0.07 0.10 0.08 0.07 0.08 0.11 0.13 0.17 0.21 0.18 0.17 0.20 0.27
0.38 0.45 0.50 0.82 0.97 1.12 1.41 1.54 1.28 1.08 1.05 0.98 0.85 0.78 0.61 0.36 0.41 0.44 0.41 0.42 0.49 0.53 0.34 0.20 0.18 0.15 0.17 0.20 0.16 0.09 0.06 0.10 0.16 0.13 0.12 0.11 0.10 0.10 0.13 0.13 0.08 0.06 0.08
0.73 0.77 0.68 0.76 1.00 1.32 1.43 1.47 1.20 0.99 1.06 0.99 0.99 1.00 0.77 0.48 0.40 0.41 0.40 0.35 0.44 0.54 0.55 0.30 0.18 0.12 0.16 0.20 0.20 0.17 0.10 0.14 0.08 0.06 0.06 0.05 0.04 0.04 0.06 0.08 0.07 0.05 0.05
1.00 0.94 0.94 0.77 0.65 0.74 1.12 1.43 1.50 1.37 1.40 1.34 1.21 1.12 0.88 0.73 0.74 0.62 0.55 0.52 0.47 0.49 0.55 0.40 0.20 0.16 0.18 0.20 0.15 0.11 0.08 0.06 0.06 0.08 0.06 0.08 0.07 0.06 0.06 0.05 0.06 0.05 0.04
1.61 1.42 1.04 0.68 0.50 0.39 0.58 1.21 1.53 1.44 1.19 1.31 1.46 1.31 1.14 0.95 0.87 0.77 0.65 0.56 0.43 0.36 0.37 0.33 0.25 0.18 0.15 0.13 0.17 0.19 0.20 0.17 0.08 0.11 0.09 0.06 0.04 0.04 0.04 0.04 0.03 0.03 0.05
0.78 0.77 0.71 0.60 0.44 0.23 0.20 0.48 0.92 1.34 1.21 0.98 1.19 1.45 1.02 0.85 0.70 0.57 0.51 0.47 0.42 0.40 0.49 0.49 0.34 0.21 0.16 0.14 0.24 0.37 0.31 0.17 0.08 0.08 0.09 0.08 0.09 0.09 0.10 0.11 0.11 0.11 0.11
0.35 0.36 0.49 0.58 0.53 0.28 0.24 0.35 0.44 0.71 1.13 1.03 0.94 0.94 0.98 0.85 0.67 0.55 0.51 0.49 0.51 0.54 0.48 0.49 0.42 0.31 0.24 0.22 0.39 0.32 0.26 0.20 0.19 0.20 0.28 0.34 0.37 0.36 0.33 0.32 0.37 0.38 0.39
0.65 0.51 0.43 0.34 0.44 0.34 0.33 0.37 0.41 0.52 0.76 1.01 0.93 0.91 0.79 0.92 0.93 0.86 0.73 0.62 0.63 0.64 0.68 0.66 0.61 0.53 0.46 0.50 0.56 0.51 0.56 0.48 0.60 0.73 0.63 0.56 0.59 0.57 0.60 0.74 0.72 0.75 0.60
0.99 0.69 0.76 0.55 0.50 0.46 0.66 0.54 0.38 0.27 0.30 0.45 0.69 0.71 0.84 0.91 0.83 0.96 1.01 0.98 0.89 0.79 0.73 0.67 0.62 0.58 0.48 0.46 0.53 0.66 0.70 0.76 0.83 0.76 0.78 0.77 0.64 0.60 0.62 0.68 0.92 0.85 0.75
1.24 1.19 0.89 0.79 0.68 0.63 0.88 0.60 0.52 0.25 0.28 0.27 0.31 0.43 0.53 0.99 1.20 0.78 1.04 1.11 1.17 1.35 1.18 1.01 0.85 0.77 0.90 0.98 1.05 1.09 1.01 0.94 0.86 0.78 0.93 0.92 0.83 0.84 0.82 1.00 1.13 0.74 0.75
1.54 1.42 1.05 0.85 0.60 0.49 0.70 0.68 0.78 0.35 0.29 0.29 0.24 0.27 0.34 0.47 0.98 1.14 0.93 1.15 1.27 1.45 1.74 1.59 1.54 1.67 1.60 1.37 1.08 1.09 1.21 1.29 1.31 1.25 1.18 1.22 1.08 1.04 0.94 0.93 1.21 0.77 0.62
1.26 1.34 1.18 0.85 0.71 0.61 0.84 0.71 0.62 0.25 0.22 0.30 0.38 0.47 0.55 0.33 0.85 0.95 0.68 0.77 1.02 1.40 1.86 1.73 1.45 1.43 1.50 1.53 1.21 1.11 1.32 1.67 2.05 1.89 1.72 1.65 1.56 1.47 1.46 1.36 1.27 1.06 0.78
1.28 1.15 1.15 1.09 1.25 0.88 1.14 0.90 0.72 0.31 0.28 0.27 0.33 0.54 1.04 0.58 0.68 0.51 0.37 0.35 0.66 1.14 1.15 1.30 1.40 1.55 1.52 1.62 1.76 1.43 1.42 1.87 2.16 2.15 1.80 1.73 1.68 1.66 1.73 1.41 1.11 0.95 0.79

GFSMA_prec_precacc_111.txt.gz
Total_Precipitation_Accumulation
0.29 0.30 0.16 0.16 0.16 0.23 0.45 0.45 0.37 0.36 0.48 0.46 0.48 0.54 0.49 0.34 0.36 0.38 0.40 0.48 0.81 1.15 0.76 1.00 0.67 0.61 0.70 0.82 0.76 0.32 0.08 0.04 0.01 0.00 0.01 0.00 0.01 0.01 0.01 0.01 0.03 0.09 0.18
0.30 0.21 0.14 0.16 0.11 0.19 0.40 0.52 0.50 0.46 0.56 0.53 0.69 0.62 0.59 0.46 0.41 0.45 0.28 0.27 0.33 0.88 1.27 0.86 1.14 0.61 0.50 0.54 0.87 0.61 0.13 0.09 0.04 0.02 0.01 0.01 0.01 0.01 0.01 0.01 0.01 0.03 0.12
0.30 0.19 0.13 0.13 0.15 0.16 0.34 0.47 0.61 0.77 0.69 0.53 0.66 0.64 0.58 0.53 0.50 0.50 0.41 0.21 0.19 0.35 1.63 1.47 1.49 0.72 0.75 0.66 0.74 0.86 0.28 0.16 0.06 0.04 0.02 0.01 0.01 0.01 0.01 0.01 0.01 0.01 0.02
0.32 0.22 0.13 0.12 0.16 0.28 0.46 0.47 0.46 0.71 0.60 0.41 0.37 0.51 0.50 0.56 0.56 0.63 0.62 0.42 0.34 0.26 0.86 1.81 1.95 2.00 1.08 1.03 1.09 0.99 0.67 0.19 0.07 0.05 0.03 0.02 0.02 0.02 0.01 0.01 0.01 0.01 0.00
0.35 0.32 0.28 0.20 0.22 0.40 0.50 0.50 0.45 0.56 0.64 0.41 0.23 0.32 0.37 0.50 0.58 0.62 0.69 0.58 0.59 0.53 0.41 0.97 1.15 1.49 1.66 1.25 1.30 1.17 0.81 0.26 0.10 0.06 0.03 0.02 0.02 0.03 0.03 0.01 0.01 0.01 0.01
1.06 0.48 0.31 0.22 0.29 0.34 0.47 0.54 0.51 0.51 0.62 0.45 0.30 0.32 0.25 0.30 0.45 0.54 0.64 0.66 0.61 0.86 0.57 0.72 0.42 0.52 0.65 0.86 0.96 0.81 0.65 0.30 0.12 0.07 0.04 0.02 0.02 0.03 0.03 0.02 0.01 0.01 0.01
1.88 1.02 0.54 0.26 0.22 0.25 0.32 0.41 0.58 0.52 0.65 0.61 0.57 0.50 0.38 0.24 0.26 0.38 0.50 0.47 0.68 0.66 0.80 0.92 0.45 0.27 0.23 0.38 0.47 0.63 0.50 0.29 0.11 0.05 0.04 0.03 0.03 0.02 0.02 0.02 0.02 0.02 0.02
1.21 1.45 0.84 0.60 0.41 0.45 0.35 0.44 0.60 0.55 0.60 0.52 0.46 0.36 0.44 0.47 0.44 0.35 0.33 0.37 0.40 0.51 0.55 1.10 1.05 0.42 0.23 0.18 0.31 0.36 0.38 0.41 0.18 0.08 0.04 0.03 0.01 0.01 0.03 0.03 0.02 0.02 0.02
0.98 1.17 1.05 0.90 0.83 1.13 1.14 1.06 1.21 1.04 0.80 0.61 0.28 0.30 0.22 0.24 0.21 0.31 0.33 0.28 0.32 0.33 0.29 0.53 1.12 0.77 0.47 0.26 0.22 0.30 0.29 0.38 0.31 0.09 0.05 0.02 0.01 0.01 0.02 0.03 0.03 0.04 0.03
1.21 1.50 1.15 1.07 0.85 0.77 0.91 0.92 0.99 1.07 1.06 0.65 0.43 0.29 0.10 0.12 0.19 0.31 0.31 0.33 0.23 0.21 0.24 0.24 0.53 0.91 0.70 0.49 0.31 0.18 0.22 0.30 0.31 0.12 0.04 0.03 0.02 0.02 0.03 0.04 0.04 0.05 0.05
0.60 1.16 1.33 1.29 1.06 0.89 0.77 0.78 0.65 0.61 0.53 0.71 0.48 0.27 0.22 0.15 0.22 0.34 0.37 0.33 0.30 0.17 0.09 0.12 0.20 0.44 0.71 0.77 0.47 0.32 0.18 0.20 0.13 0.11 0.06 0.03 0.01 0.03 0.06 0.08 0.11 0.10 0.11
0.86 1.03 1.31 1.12 1.19 1.15 1.07 1.24 1.31 0.98 0.71 0.59 0.65 0.37 0.33 0.31 0.25 0.30 0.31 0.30 0.35 0.28 0.23 0.17 0.11 0.14 0.29 0.60 0.73 0.50 0.30 0.12 0.08 0.07 0.05 0.03 0.03 0.05 0.11 0.12 0.14 0.16 0.20
0.82 1.01 1.26 1.22 1.12 1.23 1.12 1.06 1.25 1.46 1.41 0.93 0.81 0.71 0.54 0.39 0.34 0.40 0.56 0.49 0.42 0.32 0.32 0.27 0.18 0.13 0.14 0.23 0.36 0.51 0.48 0.23 0.08 0.08 0.06 0.05 0.06 0.09 0.17 0.26 0.32 0.37 0.34
0.45 0.86 1.35 1.50 1.27 1.28 1.35 1.33 1.38 1.32 1.54 1.60 1.07 0.79 0.59 0.47 0.48 0.45 0.53 0.70 0.64 0.46 0.28 0.18 0.12 0.19 0.19 0.17 0.17 0.18 0.29 0.33 0.19 0.13 0.11 0.12 0.14 0.17 0.21 0.18 0.17 0.20 0.28
0.38 0.46 0.57 0.98 1.15 1.27 1.53 1.73 1.51 1.26 1.22 1.33 1.18 0.86 0.67 0.42 0.47 0.48 0.42 0.43 0.49 0.53 0.34 0.20 0.18 0.16 0.17 0.20 0.18 0.11 0.09 0.16 0.25 0.22 0.16 0.12 0.10 0.11 0.13 0.13 0.08 0.06 0.08
0.73 0.79 0.72 0.94 1.22 1.52 1.56 1.56 1.28 1.06 1.12 1.13 1.27 1.27 0.87 0.58 0.53 0.55 0.51 0.42 0.45 0.54 0.55 0.30 0.18 0.12 0.18 0.22 0.21 0.19 0.13 0.15 0.09 0.10 0.11 0.08 0.05 0.04 0.06 0.08 0.07 0.05 0.05
1.05 1.00 1.02 1.02 0.82 0.95 1.27 1.53 1.55 1.39 1.46 1.51 1.41 1.30 1.02 0.86 0.91 0.76 0.67 0.64 0.51 0.50 0.56 0.40 0.20 0.16 0.18 0.21 0.19 0.16 0.11 0.07 0.06 0.09 0.08 0.10 0.08 0.07 0.06 0.05 0.06 0.05 0.04
1.64 1.50 1.18 0.99 0.75 0.58 0.71 1.33 1.61 1.47 1.26 1.53 1.76 1.58 1.39 1.19 1.06 0.93 0.74 0.61 0.47 0.38 0.38 0.33 0.25 0.19 0.15 0.13 0.18 0.21 0.22 0.20 0.09 0.12 0.10 0.06 0.05 0.04 0.04 0.04 0.03 0.03 0.05
0.79 0.83 0.83 0.82 0.82 0.55 0.44 0.60 0.99 1.40 1.32 1.24 1.38 1.61 1.37 1.11 0.87 0.69 0.60 0.53 0.45 0.41 0.50 0.50 0.35 0.21 0.16 0.15 0.24 0.38 0.33 0.18 0.10 0.14 0.11 0.10 0.09 0.09 0.11 0.12 0.11 0.11 0.11
0.36 0.43 0.63 0.78 0.99 0.91 0.82 0.57 0.58 0.81 1.21 1.18 1.03 0.99 1.09 1.00 0.82 0.71 0.61 0.54 0.55 0.57 0.49 0.51 0.43 0.31 0.25 0.23 0.41 0.34 0.28 0.25 0.23 0.24 0.32 0.38 0.41 0.40 0.35 0.33 0.38 0.39 0.39
0.65 0.52 0.47 0.43 0.75 1.07 0.67 0.58 0.51 0.58 0.83 1.07 0.95 0.94 0.83 0.99 1.03 0.96 0.81 0.66 0.65 0.66 0.70 0.67 0.62 0.54 0.49 0.55 0.63 0.58 0.62 0.53 0.66 0.78 0.67 0.62 0.66 0.65 0.66 0.78 0.75 0.76 0.60
1.02 0.78 0.85 0.68 0.60 0.82 1.09 0.73 0.63 0.38 0.42 0.47 0.69 0.75 0.91 0.95 0.88 1.01 1.05 1.02 0.93 0.82 0.76 0.69 0.63 0.60 0.50 0.48 0.56 0.71 0.74 0.84 0.91 0.81 0.84 0.89 0.74 0.72 0.74 0.76 0.98 0.89 0.78
1.25 1.23 0.98 0.95 0.89 0.83 1.32 0.84 0.82 0.40 0.36 0.32 0.33 0.53 0.58 1.03 1.25 0.80 1.07 1.12 1.19 1.37 1.20 1.03 0.86 0.78 0.92 1.00 1.06 1.10 1.02 0.98 0.91 0.83 0.99 1.09 0.97 0.95 0.96 1.09 1.19 0.81 0.79
1.59 1.48 1.15 0.94 0.71 0.70 0.91 1.16 1.12 0.53 0.36 0.35 0.30 0.31 0.39 0.50 1.01 1.18 0.94 1.16 1.27 1.46 1.75 1.60 1.55 1.70 1.64 1.43 1.13 1.16 1.33 1.43 1.45 1.41 1.33 1.35 1.19 1.15 1.02 1.01 1.27 0.87 0.75
1.30 1.39 1.22 0.87 0.76 0.72 1.08 0.99 0.96 0.50 0.39 0.36 0.41 0.51 0.60 0.38 0.90 0.97 0.69 0.77 1.02 1.40 1.86 1.74 1.48 1.48 1.59 1.73 1.34 1.19 1.44 1.81 2.23 2.09 1.91 1.77 1.64 1.54 1.53 1.43 1.33 1.12 0.85
1.35 1.18 1.17 1.14 1.34 1.01 1.34 1.18 1.11 0.61 0.42 0.40 0.42 0.57 1.10 0.62 0.72 0.52 0.38 0.35 0.66 1.14 1.15 1.30 1.40 1.56 1.57 1.75 1.86 1.45 1.47 1.98 2.27 2.29 1.91 1.82 1.77 1.74 1.82 1.50 1.19 1.02 0.87

GFSMA_prec_precacc_117.txt.gz
Total_Precipitation_Accumulation
0.29 0.30 0.16 0.16 0.16 0.23 0.45 0.45 0.37 0.36 0.48 0.46 0.48 0.54 0.49 0.34 0.36 0.38 0.40 0.53 0.87 1.18 0.84 1.08 0.75 0.73 0.76 0.88 0.87 0.69 0.47 0.52 0.31 0.21 0.14 0.06 0.02 0.01 0.01 0.01 0.03 0.09 0.18
0.30 0.21 0.14 0.16 0.11 0.19 0.40 0.52 0.50 0.46 0.56 0.53 0.69 0.62 0.59 0.46 0.41 0.45 0.28 0.29 0.36 0.90 1.29 0.92 1.21 0.67 0.54 0.60 0.90 0.79 0.53 0.49 0.41 0.24 0.10 0.03 0.01 0.02 0.01 0.01 0.01 0.03 0.12
0.35 0.22 0.13 0.13 0.17 0.18 0.37 0.48 0.61 0.77 0.69 0.53 0.66 0.64 0.58 0.53 0.50 0.50 0.41 0.21 0.19 0.35 1.63 1.47 1.52 0.78 0.82 0.73 0.79 1.12 1.00 0.88 0.48 0.32 0.11 0.02 0.04 0.03 0.01 0.01 0.01 0.01 0.02
0.62 0.70 0.50 0.32 0.30 0.51 0.66 0.56 0.50 0.72 0.60 0.41 0.37 0.51 0.50 0.56 0.56 0.63 0.62 0.42 0.34 0.26 0.86 1.81 1.96 2.03 1.15 1.12 1.17 1.14 1.34 1.07 0.85 0.54 0.24 0.03 0.02 0.05 0.01 0.01 0.01 0.01 0.00
0.74 0.70 0.70 0.73 0.71 0.82 0.82 0.72 0.60 0.63 0.66 0.42 0.24 0.32 0.37 0.50 0.58 0.62 0.69 0.58 0.59 0.53 0.41 0.97 1.15 1.50 1.70 1.30 1.42 1.30 1.14 1.21 0.96 0.66 0.46 0.16 0.02 0.06 0.03 0.01 0.01 0.01 0.01
1.12 0.58 0.48 0.54 0.87 1.00 1.05 1.05 0.81 0.70 0.77 0.59 0.39 0.35 0.30 0.33 0.47 0.55 0.64 0.66 0.61 0.86 0.57 0.72 0.42 0.52 0.67 0.89 1.05 0.93 0.76 0.57 0.53 0.65 0.59 0.30 0.06 0.05 0.03 0.02 0.01 0.01 0.01
1.89 1.03 0.56 0.32 0.42 0.48 0.53 0.79 1.18 1.05 1.11 1.04 0.88 0.78 0.59 0.39 0.41 0.50 0.57 0.52 0.70 0.66 0.80 0.92 0.45 0.27 0.23 0.38 0.48 0.74 0.57 0.40 0.25 0.24 0.40 0.39 0.17 0.06 0.02 0.02 0.02 0.02 0.02
1.21 1.45 0.85 0.61 0.43 0.52 0.58 0.70 1.08 1.14 1.06 1.02 1.14 0.90 0.79 0.67 0.64 0.59 0.56 0.51 0.46 0.53 0.56 1.10 1.05 0.42 0.23 0.18 0.31 0.38 0.47 0.52 0.35 0.21 0.19 0.18 0.15 0.07 0.03 0.03 0.02 0.03 0.03
0.98 1.17 1.05 0.91 0.85 1.18 1.21 1.24 1.46 1.48 1.28 1.22 0.98 1.12 0.97 0.89 0.85 0.85 0.84 0.61 0.42 0.36 0.31 0.54 1.12 0.77 0.47 0.26 0.23 0.30 0.30 0.44 0.61 0.37 0.17 0.11 0.11 0.05 0.03 0.03 0.03 0.04 0.04
1.21 1.50 1.15 1.08 0.87 0.81 0.96 0.98 1.12 1.30 1.46 1.50 1.53 1.56 1.23 1.06 0.86 0.76 0.75 0.75 0.37 0.24 0.24 0.25 0.53 0.91 0.70 0.49 0.31 0.18 0.23 0.32 0.49 0.75 0.40 0.16 0.16 0.06 0.04 0.04 0.04 0.05 0.06
0.60 1.16 1.33 1.29 1.06 0.91 0.80 0.82 0.71 0.68 0.59 0.75 0.52 0.44 0.53 0.43 0.42 0.50 0.46 0.37 0.32 0.17 0.09 0.12 0.20 0.44 0.71 0.77 0.47 0.33 0.19 0.24 0.47 0.54 0.80 0.41 0.16 0.10 0.08 0.08 0.11 0.10 0.11
0.86 1.03 1.31 1.12 1.19 1.15 1.10 1.30 1.37 1.05 0.77 0.63 0.68 0.41 0.37 0.34 0.27 0.31 0.32 0.30 0.35 0.28 0.23 0.17 0.11 0.14 0.29 0.60 0.73 0.53 0.40 0.25 0.33 0.55 0.55 0.81 0.52 0.19 0.17 0.14 0.14 0.16 0.21
0.82 1.01 1.26 1.22 1.12 1.23 1.14 1.15 1.38 1.60 1.55 1.05 0.91 0.78 0.61 0.44 0.39 0.46 0.60 0.51 0.43 0.32 0.32 0.27 0.18 0.13 0.14 0.23 0.37 0.55 0.60 0.41 0.36 0.43 0.54 0.53 0.69 0.63 0.36 0.32 0.35 0.37 0.35
0.45 0.86 1.35 1.50 1.27 1.28 1.36 1.38 1.47 1.48 1.78 1.84 1.20 0.93 0.69 0.57 0.58 0.53 0.60 0.77 0.67 0.46 0.28 0.18 0.13 0.19 0.19 0.17 0.18 0.22 0.38 0.49 0.39 0.52 0.59 0.62 0.61 0.63 0.56 0.39 0.22 0.20 0.28
0.38 0.47 0.57 0.98 1.15 1.27 1.53 1.75 1.57 1.36 1.37 1.50 1.27 0.96 0.80 0.55 0.61 0.60 0.52 0.53 0.56 0.54 0.34 0.20 0.19 0.16 0.17 0.20 0.18 0.12 0.13 0.27 0.40 0.39 0.46 0.68 0.59 0.60 0.49 0.35 0.15 0.07 0.08
0.74 0.80 0.72 0.94 1.22 1.52 1.57 1.57 1.33 1.18 1.25 1.33 1.54 1.45 1.03 0.64 0.60 0.71 0.66 0.62 0.64 0.62 0.56 0.31 0.18 0.12 0.18 0.22 0.22 0.19 0.13 0.18 0.16 0.23 0.28 0.31 0.51 0.54 0.46 0.27 0.13 0.05 0.05
1.06 1.01 1.03 1.03 0.83 0.98 1.32 1.60 1.64 1.56 1.63 1.64 1.71 1.47 1.08 0.97 0.98 0.95 0.97 0.90 0.74 0.68 0.64 0.43 0.20 0.16 0.18 0.21 0.20 0.17 0.12 0.09 0.08 0.13 0.18 0.27 0.30 0.36 0.43 0.25 0.12 0.08 0.04
1.64 1.50 1.19 1.00 0.79 0.66 0.83 1.42 1.74 1.61 1.39 1.61 1.90 1.86 1.49 1.30 1.24 1.13 1.01 0.87 0.65 0.60 0.65 0.48 0.28 0.20 0.16 0.14 0.19 0.22 0.24 0.21 0.13 0.14 0.12 0.16 0.21 0.22 0.26 0.30 0.19 0.12 0.09
0.79 0.83 0.83 0.82 0.83 0.60 0.52 0.71 1.17 1.68 1.54 1.34 1.51 1.79 1.54 1.30 1.13 1.08 0.98 0.78 0.64 0.56 0.62 0.61 0.42 0.27 0.18 0.15 0.25 0.38 0.33 0.18 0.10 0.17 0.14 0.12 0.18 0.27 0.29 0.28 0.34 0.26 0.16
0.36 0.43 0.63 0.78 0.99 0.92 0.94 0.91 0.97 1.06 1.46 1.41 1.28 1.24 1.38 1.30 0.96 0.84 0.83 0.87 0.89 0.79 0.59 0.59 0.49 0.36 0.27 0.24 0.43 0.34 0.29 0.25 0.23 0.24 0.33 0.42 0.49 0.54 0.58 0.55 0.53 0.54 0.43
0.65 0.52 0.47 0.44 0.78 1.14 0.83 0.77 0.72 1.00 1.20 1.40 1.41 1.42 1.16 1.37 1.33 1.13 1.01 0.80 0.80 0.88 0.92 0.80 0.72 0.61 0.52 0.57 0.66 0.60 0.64 0.54 0.67 0.79 0.68 0.63 0.70 0.69 0.73 0.93 0.96 1.06 0.78
1.02 0.78 0.85 0.68 0.61 0.86 1.27 0.92 0.78 0.61 0.81 1.02 1.08 1.08 1.47 1.68 1.22 1.21 1.22 1.21 1.10 0.96 0.87 0.87 0.79 0.68 0.54 0.49 0.58 0.72 0.76 0.87 0.97 0.84 0.86 0.92 0.77 0.75 0.78 0.81 1.09 1.03 1.02
1.26 1.24 0.99 0.97 0.91 0.86 1.41 0.97 1.06 0.95 0.84 0.68 0.80 0.92 0.88 1.56 1.85 1.13 1.17 1.26 1.43 1.65 1.43 1.19 0.96 0.90 1.00 1.01 1.07 1.10 1.03 0.99 0.93 0.86 1.05 1.17 1.05 1.05 1.06 1.24 1.40 0.96 0.94
1.61 1.51 1.20 1.00 0.77 0.80 1.02 1.30 1.41 1.05 0.94 0.73 0.63 0.70 0.79 0.83 1.33 1.39 1.15 1.32 1.39 1.68 2.06 1.87 1.76 1.77 1.69 1.44 1.14 1.18 1.38 1.50 1.50 1.46 1.41 1.48 1.34 1.31 1.16 1.13 1.53 1.07 0.92
1.33 1.44 1.28 0.94 0.85 0.87 1.30 1.23 1.24 0.87 1.03 0.97 0.86 0.94 0.93 0.71 1.17 1.28 0.89 1.15 1.32 1.59 2.09 1.89 1.55 1.54 1.62 1.78 1.43 1.27 1.52 1.89 2.37 2.24 2.08 1.92 1.78 1.70 1.70 1.58 1.49 1.35 1.07
1.38 1.21 1.20 1.17 1.38 1.08 1.48 1.36 1.33 0.92 0.83 0.97 0.96 1.07 1.66 1.10 1.13 0.88 0.58 0.56 1.09 1.50 1.32 1.50 1.55 1.58 1.58 1.76 1.92 1.49 1.49 2.04 2.39 2.42 2.00 1.93 1.92 1.92 2.04 1.67 1.32 1.18 1.05

GFSMA_prec_precacc_120.txt.gz
Total_Precipitation_Accumulation
0.34 0.34 0.18 0.18 0.18 0.23 0.45 0.45 0.37 0.36 0.48 0.46 0.48 0.54 0.49 0.34 0.36 0.38 0.40 0.53 0.87 1.18 0.84 1.10 0.78 0.75 0.78 0.89 0.91 0.75 0.53 0.58 0.40 0.33 0.26 0.20 0.21 0.16 0.03 0.01 0.03 0.09 0.18
0.32 0.24 0.16 0.17 0.13 0.21 0.47 0.52 0.50 0.46 0.56 0.53 0.69 0.62 0.59 0.46 0.41 0.45 0.28 0.29 0.36 0.90 1.29 0.92 1.22 0.68 0.54 0.61 0.91 0.80 0.57 0.56 0.51 0.37 0.21 0.14 0.14 0.18 0.09 0.02 0.01 0.03 0.12
0.38 0.24 0.14 0.14 0.17 0.23 0.54 0.55 0.66 0.79 0.70 0.53 0.66 0.64 0.58 0.53 0.50 0.50 0.41 0.21 0.19 0.35 1.63 1.47 1.52 0.78 0.83 0.74 0.80 1.13 1.01 0.92 0.53 0.44 0.26 0.12 0.13 0.20 0.11 0.02 0.01 0.01 0.02
0.70 0.75 0.53 0.33 0.31 0.66 0.89 0.66 0.59 0.84 0.67 0.45 0.38 0.52 0.51 0.57 0.56 0.63 0.62 0.42 0.34 0.26 0.86 1.81 1.96 2.03 1.15 1.13 1.17 1.15 1.34 1.09 0.88 0.61 0.35 0.11 0.07 0.16 0.09 0.04 0.01 0.01 0.00
0.79 0.78 0.80 0.83 0.86 1.09 1.11 1.05 0.84 0.81 0.76 0.50 0.35 0.40 0.41 0.56 0.63 0.65 0.69 0.58 0.59 0.53 0.41 0.97 1.15 1.50 1.70 1.30 1.42 1.30 1.15 1.22 0.98 0.71 0.56 0.27 0.07 0.19 0.09 0.04 0.01 0.01 0.01
1.12 0.59 0.49 0.58 0.98 1.16 1.31 1.46 1.22 0.97 0.95 0.76 0.59 0.52 0.40 0.45 0.60 0.68 0.72 0.76 0.69 0.92 0.60 0.73 0.42 0.52 0.67 0.89 1.05 0.94 0.77 0.58 0.55 0.68 0.67 0.47 0.20 0.18 0.12 0.05 0.02 0.01 0.01
1.89 1.03 0.56 0.32 0.43 0.50 0.61 1.02 1.46 1.35 1.31 1.32 1.34 1.08 0.72 0.49 0.54 0.64 0.74 0.73 0.90 0.82 0.91 0.97 0.47 0.27 0.23 0.38 0.48 0.75 0.59 0.40 0.28 0.29 0.45 0.52 0.43 0.20 0.11 0.05 0.02 0.02 0.02
1.21 1.45 0.85 0.61 0.43 0.52 0.58 0.72 1.10 1.20 1.22 1.29 1.43 1.18 0.94 0.83 0.76 0.67 0.70 0.73 0.66 0.70 0.67 1.18 1.08 0.42 0.23 0.18 0.31 0.38 0.47 0.53 0.37 0.24 0.20 0.23 0.26 0.25 0.11 0.05 0.02 0.03 0.03
0.98 1.17 1.05 0.91 0.85 1.18 1.21 1.24 1.46 1.49 1.30 1.27 1.14 1.31 1.07 0.94 0.89 0.90 0.87 0.70 0.67 0.59 0.42 0.62 1.15 0.78 0.47 0.26 0.23 0.30 0.30 0.44 0.61 0.41 0.20 0.12 0.13 0.11 0.09 0.04 0.03 0.04 0.04
1.21 1.50 1.15 1.08 0.87 0.81 0.96 0.98 1.12 1.30 1.47 1.52 1.54 1.60 1.28 1.08 0.87 0.76 0.75 0.79 0.58 0.40 0.30 0.26 0.54 0.91 0.70 0.49 0.31 0.18 0.23 0.32 0.49 0.76 0.46 0.20 0.20 0.10 0.08 0.06 0.04 0.05 0.06
0.60 1.16 1.33 1.29 1.06 0.91 0.80 0.83 0.71 0.68 0.59 0.76 0.53 0.44 0.53 0.44 0.43 0.50 0.46 0.37 0.33 0.18 0.09 0.12 0.20 0.44 0.71 0.77 0.47 0.33 0.19 0.24 0.47 0.54 0.81 0.47 0.28 0.22 0.13 0.09 0.12 0.10 0.11
0.86 1.03 1.31 1.12 1.19 1.15 1.11 1.30 1.37 1.05 0.77 0.64 0.69 0.41 0.37 0.34 0.27 0.31 0.32 0.31 0.35 0.28 0.23 0.17 0.11 0.14 0.29 0.60 0.73 0.53 0.40 0.25 0.33 0.55 0.55 0.82 0.57 0.35 0.30 0.18 0.15 0.16 0.21
0.82 1.01 1.26 1.22 1.12 1.23 1.14 1.15 1.38 1.60 1.56 1.06 0.92 0.79 0.62 0.45 0.40 0.46 0.60 0.51 0.43 0.32 0.32 0.27 0.18 0.13 0.15 0.23 0.37 0.55 0.60 0.41 0.36 0.43 0.55 0.53 0.70 0.68 0.48 0.41 0.39 0.39 0.36
0.45 0.86 1.35 1.50 1.27 1.28 1.36 1.38 1.47 1.49 1.79 1.85 1.22 0.94 0.71 0.59 0.60 0.54 0.61 0.77 0.67 0.46 0.28 0.18 0.13 0.19 0.20 0.18 0.18 0.22 0.38 0.49 0.39 0.52 0.59 0.62 0.62 0.71 0.77 0.55 0.34 0.31 0.33
0.38 0.47 0.57 0.98 1.15 1.27 1.53 1.75 1.58 1.36 1.38 1.51 1.28 0.98 0.81 0.56 0.62 0.61 0.54 0.54 0.58 0.54 0.34 0.20 0.19 0.16 0.18 0.21 0.18 0.12 0.13 0.27 0.41 0.40 0.46 0.68 0.60 0.63 0.67 0.68 0.55 0.31 0.23
0.74 0.80 0.72 0.94 1.22 1.52 1.57 1.57 1.34 1.19 1.26 1.35 1.56 1.47 1.05 0.65 0.62 0.72 0.68 0.65 0.66 0.63 0.56 0.31 0.19 0.13 0.19 0.23 0.23 0.19 0.13 0.18 0.16 0.24 0.29 0.32 0.53 0.58 0.58 0.57 0.59 0.56 0.35
1.06 1.01 1.03 1.03 0.83 0.98 1.32 1.60 1.65 1.56 1.64 1.66 1.73 1.49 1.10 0.99 1.00 0.98 0.98 0.92 0.79 0.76 0.68 0.46 0.23 0.19 0.22 0.23 0.21 0.18 0.12 0.09 0.09 0.13 0.19 0.28 0.32 0.49 0.63 0.57 0.49 0.49 0.43
1.64 1.50 1.19 1.00 0.79 0.66 0.83 1.42 1.74 1.61 1.39 1.62 1.91 1.88 1.50 1.32 1.25 1.17 1.07 0.93 0.74 0.70 0.76 0.59 0.44 0.32 0.23 0.17 0.20 0.23 0.24 0.22 0.13 0.15 0.12 0.16 0.23 0.28 0.45 0.67 0.56 0.40 0.34
0.79 0.83 0.83 0.82 0.83 0.60 0.52 0.71 1.17 1.68 1.55 1.36 1.54 1.83 1.57 1.34 1.16 1.10 1.02 0.82 0.69 0.65 0.72 0.75 0.59 0.43 0.31 0.22 0.28 0.39 0.34 0.19 0.11 0.18 0.14 0.13 0.20 0.31 0.36 0.44 0.65 0.61 0.34
0.36 0.43 0.63 0.78 0.99 0.92 0.94 0.91 0.97 1.06 1.46 1.42 1.31 1.30 1.47 1.40 1.01 0.86 0.85 0.88 0.91 0.84 0.66 0.66 0.58 0.50 0.39 0.31 0.47 0.36 0.29 0.25 0.24 0.24 0.34 0.42 0.50 0.60 0.74 0.67 0.68 0.75 0.71
0.65 0.52 0.47 0.45 0.78 1.14 0.83 0.77 0.72 1.00 1.20 1.40 1.41 1.43 1.19 1.42 1.38 1.18 1.04 0.82 0.82 0.93 0.97 0.83 0.75 0.64 0.61 0.65 0.72 0.63 0.64 0.54 0.67 0.80 0.70 0.64 0.70 0.76 0.89 1.23 1.22 1.23 1.03
1.02 0.78 0.85 0.68 0.61 0.86 1.28 0.93 0.79 0.61 0.81 1.03 1.08 1.08 1.48 1.68 1.22 1.23 1.30 1.28 1.15 1.02 0.93 0.90 0.80 0.69 0.55 0.51 0.62 0.75 0.77 0.88 0.98 0.84 0.89 0.94 0.78 0.77 0.82 0.87 1.28 1.27 1.30
1.26 1.24 1.00 0.97 0.91 0.87 1.41 0.97 1.07 0.96 0.85 0.71 0.84 0.95 0.89 1.57 1.89 1.33 1.44 1.52 1.65 1.82 1.51 1.24 0.98 0.90 1.01 1.05 1.10 1.13 1.04 1.00 0.93 0.86 1.06 1.18 1.07 1.07 1.07 1.25 1.41 0.98 0.98
1.61 1.51 1.20 1.00 0.77 0.80 1.03 1.30 1.43 1.08 0.98 0.80 0.72 0.79 0.89 0.97 1.62 1.69 1.37 1.53 1.60 1.87 2.25 2.00 1.80 1.79 1.74 1.53 1.22 1.25 1.41 1.52 1.51 1.46 1.41 1.49 1.35 1.32 1.16 1.14 1.54 1.08 0.93
1.33 1.44 1.29 0.94 0.85 0.87 1.30 1.24 1.25 0.92 1.10 1.06 0.94 1.02 1.02 0.84 1.43 1.66 1.29 1.41 1.47 1.68 2.22 2.10 1.85 1.85 1.88 1.99 1.57 1.36 1.62 1.98 2.42 2.25 2.08 1.92 1.78 1.71 1.71 1.58 1.50 1.37 1.07
1.38 1.21 1.20 1.17 1.38 1.08 1.48 1.36 1.34 0.94 0.86 1.02 1.01 1.14 1.77 1.28 1.32 1.10 0.91 0.88 1.28 1.63 1.52 1.72 1.75 1.83 1.86 2.09 2.25 1.67 1.57 2.09 2.40 2.42 2.01 1.95 1.93 1.92 2.04 1.68 1.32 1.19 1.08

GFSMA_prec_precacc_123.txt.gz
Total_Precipitation_Accumulation
0.37 0.38 0.21 0.20 0.21 0.24 0.45 0.45 0.37 0.36 0.48 0.46 0.48 0.54 0.49 0.34 0.36 0.38 0.40 0.53 0.87 1.18 0.84 1.13 0.85 0.79 0.80 0.90 0.91 0.79 0.64 0.62 0.43 0.39 0.34 0.27 0.25 0.23 0.14 0.04 0.03 0.09 0.18
0.37 0.28 0.18 0.20 0.17 0.24 0.52 0.55 0.50 0.46 0.56 0.53 0.69 0.62 0.60 0.46 0.41 0.45 0.28 0.29 0.36 0.90 1.29 0.94 1.31 0.77 0.62 0.66 0.95 0.82 0.60 0.60 0.57 0.43 0.25 0.19 0.21 0.24 0.16 0.07 0.01 0.03 0.12
0.45 0.32 0.23 0.17 0.19 0.26 0.61 0.57 0.68 0.82 0.70 0.53 0.66 0.64 0.60 0.55 0.50 0.50 0.41 0.21 0.19 0.35 1.63 1.47 1.56 0.87 0.93 0.83 0.86 1.17 1.05 0.94 0.54 0.45 0.29 0.17 0.21 0.27 0.14 0.05 0.02 0.01 0.02
0.76 0.83 0.62 0.45 0.36 0.70 0.93 0.67 0.61 0.88 0.71 0.46 0.38 0.53 0.53 0.63 0.59 0.65 0.62 0.42 0.34 0.26 0.86 1.81 1.96 2.04 1.18 1.19 1.22 1.18 1.38 1.11 0.89 0.62 0.35 0.15 0.14 0.26 0.16 0.09 0.02 0.01 0.00
0.80 0.79 0.83 0.89 0.95 1.16 1.18 1.15 1.02 0.87 0.84 0.51 0.35 0.41 0.44 0.61 0.67 0.72 0.75 0.61 0.61 0.54 0.41 0.97 1.15 1.50 1.70 1.31 1.46 1.34 1.18 1.25 1.00 0.72 0.57 0.30 0.14 0.30 0.18 0.09 0.03 0.01 0.01
1.12 0.59 0.49 0.58 0.99 1.21 1.41 1.61 1.53 1.20 1.18 0.95 0.79 0.69 0.50 0.52 0.62 0.70 0.75 0.81 0.73 0.93 0.62 0.74 0.43 0.52 0.67 0.89 1.06 0.98 0.80 0.61 0.57 0.69 0.68 0.47 0.24 0.29 0.23 0.14 0.06 0.03 0.01
1.89 1.03 0.56 0.32 0.43 0.50 0.61 1.05 1.49 1.43 1.48 1.76 2.24 2.13 1.37 0.78 0.63 0.65 0.75 0.74 0.93 0.89 0.98 0.99 0.48 0.28 0.23 0.38 0.48 0.75 0.61 0.43 0.30 0.30 0.46 0.52 0.47 0.30 0.22 0.15 0.08 0.04 0.02
1.21 1.45 0.85 0.61 0.43 0.52 0.58 0.72 1.10 1.21 1.23 1.34 1.55 1.50 1.36 0.99 0.78 0.67 0.70 0.74 0.68 0.74 0.70 1.20 1.09 0.42 0.23 0.18 0.31 0.38 0.48 0.55 0.39 0.26 0.21 0.23 0.27 0.31 0.19 0.14 0.14 0.09 0.04
0.98 1.17 1.05 0.91 0.85 1.18 1.21 1.24 1.46 1.49 1.30 1.28 1.16 1.35 1.11 0.96 0.89 0.91 0.88 0.71 0.68 0.59 0.42 0.62 1.15 0.78 0.47 0.26 0.23 0.30 0.30 0.44 0.62 0.42 0.21 0.12 0.13 0.14 0.16 0.10 0.13 0.13 0.06
1.21 1.50 1.15 1.08 0.87 0.81 0.96 0.98 1.12 1.30 1.47 1.52 1.55 1.62 1.30 1.09 0.87 0.77 0.76 0.80 0.58 0.40 0.30 0.26 0.54 0.91 0.70 0.49 0.31 0.18 0.23 0.32 0.49 0.76 0.46 0.20 0.20 0.10 0.11 0.11 0.10 0.09 0.09
0.60 1.16 1.33 1.29 1.06 0.91 0.80 0.83 0.71 0.68 0.59 0.76 0.53 0.45 0.55 0.46 0.44 0.51 0.47 0.37 0.33 0.18 0.09 0.12 0.20 0.44 0.71 0.77 0.47 0.33 0.19 0.24 0.47 0.54 0.81 0.47 0.28 0.23 0.13 0.12 0.16 0.13 0.13
0.86 1.03 1.31 1.12 1.19 1.15 1.11 1.30 1.38 1.05 0.78 0.64 0.70 0.42 0.38 0.35 0.27 0.31 0.33 0.31 0.35 0.28 0.23 0.17 0.11 0.14 0.29 0.60 0.73 0.53 0.40 0.25 0.33 0.55 0.55 0.82 0.57 0.36 0.32 0.20 0.17 0.20 0.24
0.82 1.01 1.26 1.22 1.12 1.23 1.14 1.15 1.38 1.60 1.56 1.07 0.92 0.80 0.63 0.46 0.41 0.47 0.61 0.52 0.43 0.32 0.32 0.27 0.18 0.13 0.15 0.23 0.37 0.55 0.60 0.41 0.36 0.43 0.55 0.53 0.70 0.69 0.50 0.46 0.45 0.43 0.39
0.45 0.86 1.35 1.50 1.27 1.28 1.36 1.38 1.47 1.49 1.80 1.86 1.23 0.95 0.72 0.60 0.61 0.56 0.62 0.79 0.69 0.47 0.28 0.18 0.13 0.19 0.20 0.18 0.18 0.23 0.38 0.49 0.39 0.52 0.59 0.62 0.62 0.71 0.78 0.57 0.41 0.38 0.37
0.38 0.47 0.57 0.98 1.15 1.27 1.53 1.75 1.58 1.36 1.38 1.52 1.28 0.99 0.82 0.57 0.63 0.62 0.55 0.55 0.60 0.56 0.34 0.20 0.19 0.16 0.18 0.21 0.18 0.13 0.14 0.27 0.42 0.41 0.46 0.68 0.60 0.63 0.67 0.69 0.57 0.38 0.32
0.74 0.80 0.72 0.94 1.22 1.52 1.57 1.57 1.34 1.19 1.26 1.35 1.56 1.48 1.06 0.66 0.63 0.74 0.70 0.67 0.68 0.65 0.58 0.32 0.19 0.13 0.19 0.23 0.24 0.19 0.14 0.20 0.18 0.27 0.30 0.32 0.53 0.58 0.58 0.57 0.60 0.63 0.47
1.06 1.01 1.03 1.03 0.83 0.98 1.32 1.60 1.65 1.56 1.64 1.66 1.74 1.50 1.11 1.01 1.03 1.00 1.01 0.95 0.83 0.79 0.70 0.48 0.25 0.20 0.22 0.24 0.23 0.19 0.13 0.09 0.09 0.14 0.19 0.29 0.32 0.49 0.63 0.57 0.50 0.52 0.59
1.64 1.50 1.19 1.00 0.79 0.66 0.83 1.42 1.74 1.61 1.39 1.62 1.92 1.89 1.52 1.33 1.27 1.20 1.10 0.95 0.77 0.72 0.79 0.62 0.46 0.33 0.24 0.19 0.23 0.26 0.26 0.22 0.13 0.16 0.12 0.16 0.23 0.28 0.45 0.67 0.61 0.49 0.48
0.79 0.83 0.83 0.82 0.84 0.60 0.52 0.71 1.17 1.68 1.55 1.36 1.55 1.85 1.59 1.37 1.19 1.14 1.05 0.85 0.71 0.67 0.76 0.79 0.63 0.47 0.40 0.31 0.33 0.43 0.36 0.19 0.11 0.18 0.14 0.13 0.20 0.31 0.36 0.45 0.70 0.77 0.58
0.36 0.43 0.63 0.78 0.99 0.93 0.95 0.91 0.97 1.06 1.46 1.42 1.31 1.31 1.49 1.43 1.05 0.89 0.88 0.92 0.97 0.89 0.70 0.70 0.62 0.53 0.43 0.41 0.65 0.50 0.33 0.26 0.24 0.24 0.34 0.42 0.50 0.61 0.74 0.69 0.71 0.84 1.00
0.66 0.52 0.48 0.45 0.79 1.14 0.84 0.77 0.72 1.00 1.20 1.40 1.41 1.43 1.20 1.46 1.43 1.22 1.09 0.87 0.89 1.01 1.04 0.89 0.81 0.73 0.64 0.68 0.78 0.75 0.76 0.59 0.68 0.80 0.70 0.64 0.70 0.76 0.90 1.31 1.31 1.30 1.17
1.02 0.78 0.85 0.68 0.62 0.86 1.28 0.93 0.79 0.61 0.81 1.03 1.08 1.08 1.48 1.70 1.23 1.26 1.34 1.35 1.27 1.14 1.02 0.98 0.86 0.74 0.56 0.52 0.63 0.79 0.84 0.95 1.03 0.85 0.89 0.95 0.78 0.77 0.83 0.88 1.39 1.44 1.43
1.26 1.24 1.00 0.97 0.91 0.87 1.41 0.97 1.07 0.96 0.85 0.71 0.84 0.95 0.90 1.58 1.90 1.33 1.45 1.54 1.69 1.87 1.58 1.34 1.14 1.01 1.05 1.07 1.12 1.15 1.08 1.04 1.01 0.90 1.07 1.20 1.08 1.08 1.08 1.26 1.44 1.06 1.23
1.61 1.52 1.20 1.00 0.77 0.81 1.03 1.30 1.43 1.08 0.98 0.80 0.72 0.80 0.90 0.99 1.65 1.71 1.38 1.56 1.68 1.97 2.35 2.16 1.99 1.95 1.89 1.69 1.30 1.29 1.46 1.55 1.55 1.53 1.50 1.54 1.37 1.34 1.18 1.16 1.58 1.11 0.97
1.33 1.44 1.29 0.95 0.85 0.87 1.30 1.24 1.25 0.92 1.10 1.06 0.94 1.03 1.02 0.85 1.47 1.71 1.35 1.50 1.59 1.85 2.43 2.32 2.11 2.14 2.11 2.17 1.73 1.45 1.64 2.02 2.47 2.30 2.14 1.95 1.79 1.72 1.72 1.59 1.52 1.41 1.12
1.38 1.21 1.20 1.18 1.38 1.09 1.48 1.36 1.34 0.94 0.86 1.02 1.01 1.15 1.77 1.29 1.34 1.14 1.00 1.00 1.46 1.86 1.72 1.90 1.90 1.94 1.99 2.26 2.48 1.84 1.68 2.16 2.46 2.49 2.04 1.98 1.95 1.94 2.06 1.69 1.35 1.21 1.09